[[{"header":{"parameterUnit":"m.s-1","parameterCategory":1,"la1":30.6,"la2":29.2853,"lo1":-89.7004,"lo2":-87.6739,"dy":0.0162,"dx":0.0183,"nx":112,"ny":82,"refTime":"2023-05-29T06:00:00:Z","depth":0,"parameterNumber":2,"parameterNumberName":"U-component_of_WINDS"},"data":[0.0,0.0,0.0,0.0,0.0,0.0,0.0,0.0,0.0,0.0,0.0,0.0,0.0,0.0,0.0,0.0,0.0,0.0,0.0,0.0,0.0,0.0,0.0,0.0,0.0,0.0,0.0,0.0,0.0,0.0,0.0,0.0,0.0,0.0,0.0,0.0,0.0,0.0,0.0,0.0,0.0,0.0,0.0,0.0,0.0,0.0,0.0,0.0,0.0,0.0,0.0,0.0,0.0,0.0,0.0,0.0,0.0,0.0,0.0,0.0,0.0,0.0,0.0,0.0,0.0,0.0,0.0,0.0,0.0,0.0,0.0,0.0,0.0,0.0,0.0,0.0,0.0,0.0,0.0,0.0,0.0,0.0,0.0,0.0,0.0,0.0,0.0,0.0,0.0,0.0,0.7418,0.725,0.7872,0.8345,0.8464,0.8321,0.7998,0.7464,0.0,0.0,0.0,0.0,0.0,0.0,0.0,0.0,0.0,0.0,0.0,0.0,0.0,0.0,0.0,0.0,0.0,0.0,0.0,0.0,0.0,0.0,0.0,0.0,0.0,0.0,0.0,0.0,0.0,0.0,0.0,0.0,0.0,0.0,0.0,0.0,0.0,0.0,0.0,0.0,0.0,0.0,0.0,0.0,0.0,0.0,0.0,0.0,0.0,0.0,0.0,0.0,0.0,0.0,0.0,0.0,0.0,0.0,0.0,0.0,0.0,0.0,0.0,0.0,0.0,0.0,0.0,0.0,0.0,0.0,0.0,0.0,0.0,0.0,0.0,0.0,0.0,0.0,0.0,0.0,0.0,0.0,0.0,0.0,0.0,0.0,0.0,0.0,0.0,0.0,0.0,0.0,0.0,0.0,0.0,0.0,0.0,0.0,0.0,0.0,0.0,0.0,0.0,0.0,0.7232,0.7793,0.8123,0.8304,0.8325,0.8041,0.779,0.758,0.0,0.0,0.0,0.0,0.0,0.0,0.0,0.0,0.0,0.0,0.0,0.0,0.0,0.0,0.0,0.0,0.0,0.0,0.0,0.0,0.0,0.0,0.0,0.0,0.0,0.0,0.0,0.0,0.0,0.0,0.0,0.0,0.0,0.0,0.0,0.0,0.0,0.0,0.0,0.0,0.0,0.0,0.0,0.0,0.0,0.0,0.0,0.0,0.0,0.0,0.0,0.0,0.0,0.0,0.0,0.0,0.0,0.0,0.0,0.0,0.0,0.0,0.0,0.0,0.0,0.0,0.0,0.0,0.0,0.0,0.0,0.0,0.0,0.0,0.0,0.0,0.0,0.0,0.0,0.0,0.0,0.0,0.0,0.0,0.0,0.0,0.0,0.0,0.0,0.0,0.0,0.0,0.0,0.0,0.0,0.0,0.0,0.0,0.0,0.0,0.0,0.0,0.0,0.7132,0.7394,0.7952,0.8077,0.8147,0.8147,0.7868,0.7668,0.7604,0.7377,0.0,0.0,0.0,0.0,0.0,0.0,0.0,0.0,0.0,0.0,0.0,0.0,0.0,0.0,0.0,0.0,0.0,0.0,0.0,0.0,0.0,0.0,0.0,0.0,0.0,0.0,0.0,0.0,0.0,0.0,0.0,0.0,0.0,0.0,0.0,0.0,0.0,0.0,0.0,0.0,0.0,0.0,0.0,0.0,0.0,0.0,0.0,0.0,0.0,0.0,0.0,0.0,0.0,0.0,0.0,0.0,0.0,0.0,0.0,0.0,0.0,0.0,0.0,0.0,0.0,0.0,0.0,0.0,0.0,0.0,0.0,0.0,0.0,0.0,0.0,0.0,0.0,0.0,0.0,0.0,0.0,0.0,0.0,0.0,0.0,0.0,0.0,0.0,0.0,0.0,0.0,0.0,0.0,0.0,0.0,0.0,0.0,0.0,0.0,0.0,0.0,0.0,0.7529,0.7621,0.7973,0.7988,0.7988,0.7988,0.7746,0.76,0.76,0.749,0.0,0.0,0.0,0.0,0.0,0.0,0.0,0.0,0.0,0.0,0.0,0.0,0.0,0.0,0.0,0.0,0.0,0.0,0.0,0.0,0.0,0.0,0.0,0.0,0.0,0.0,0.0,0.0,0.0,0.0,0.0,0.0,0.0,0.0,0.0,0.0,0.0,0.0,0.0,0.0,0.0,0.0,0.0,0.0,0.0,0.0,0.0,0.0,0.0,0.0,0.0,0.0,0.0,0.0,0.0,0.0,0.0,0.0,0.0,0.0,0.0,0.0,0.0,0.0,0.0,0.0,0.0,0.0,0.0,0.0,0.0,0.0,0.0,0.0,0.0,0.0,0.0,0.0,0.0,0.0,0.0,0.0,0.0,0.0,0.0,0.0,0.0,0.0,0.0,0.0,0.0,0.0,0.0,0.0,0.0,0.0,0.0,0.0,0.0,0.0,0.0,0.0,0.7617,0.782,0.7996,0.7988,0.7988,0.7988,0.7746,0.76,0.76,0.8095,0.0,0.0,0.0,0.0,0.0,0.0,0.0,0.0,0.0,0.0,0.0,0.0,0.0,0.0,0.0,0.0,0.0,0.0,0.0,0.0,0.0,0.0,0.0,0.0,0.0,0.0,0.0,0.0,0.0,0.0,0.0,0.0,0.0,0.0,0.0,0.0,0.0,0.0,0.0,0.0,0.0,0.0,0.0,0.0,0.0,0.0,0.0,0.0,0.0,0.0,0.0,0.0,0.0,0.0,0.0,0.0,0.0,0.0,0.0,0.0,0.0,0.0,0.0,0.0,0.0,0.0,0.0,0.0,0.0,0.0,0.0,0.0,0.0,0.0,0.0,0.0,0.0,0.0,0.0,0.0,0.0,0.0,0.0,0.0,0.0,0.0,0.0,0.0,0.0,0.0,0.0,0.0,0.0,0.0,0.0,0.0,0.0,0.0,0.0,0.0,0.0,0.0,0.7628,0.7844,0.7975,0.7988,0.7988,0.7988,0.7824,0.795,0.8434,0.0,0.0,0.0,0.0,0.0,0.0,0.0,0.0,0.0,0.0,0.0,0.0,0.0,0.0,0.0,0.0,0.0,0.0,0.0,0.0,0.0,0.0,0.0,0.0,0.0,0.0,0.0,0.0,0.0,0.0,0.0,0.0,0.0,0.0,0.0,0.0,0.0,0.0,0.0,0.0,0.0,0.0,0.0,0.0,0.0,0.0,0.0,0.0,0.0,0.0,0.0,0.0,0.0,0.0,0.0,0.0,0.0,0.0,0.0,0.0,0.0,0.0,0.0,0.0,0.0,0.0,0.0,0.0,0.0,0.0,0.0,0.0,0.0,0.0,0.0,0.0,0.0,0.0,0.0,0.0,0.0,0.0,0.0,0.0,0.0,0.0,0.0,0.0,0.0,0.0,0.0,0.0,0.0,0.0,0.0,0.0,0.0,0.0,0.0,0.0,0.0,0.0,0.7454,0.7702,0.7898,0.7978,0.7988,0.7996,0.7946,0.7847,0.801,0.8531,0.0,0.0,0.0,0.0,0.0,0.0,0.0,0.0,0.0,0.0,0.0,0.0,0.0,0.0,0.0,0.0,0.0,0.0,0.0,0.0,0.0,0.0,0.0,0.0,0.0,0.0,0.0,0.0,0.0,0.0,0.0,0.0,0.0,0.0,0.0,0.0,0.0,0.0,0.0,0.0,0.0,0.0,0.0,0.0,0.0,0.0,0.0,0.0,0.0,0.0,0.0,0.0,0.0,0.0,0.0,0.0,0.0,0.0,0.0,0.0,0.0,0.0,0.0,0.0,0.0,0.0,0.0,0.0,0.0,0.0,0.0,0.0,0.0,0.0,0.0,0.0,0.0,0.0,0.0,0.0,0.0,0.0,0.0,0.0,0.0,0.0,0.0,0.0,0.0,0.0,0.0,0.0,0.0,0.0,0.0,0.0,0.0,0.0,0.0,0.0,0.0,0.0,0.76,0.7834,0.7988,0.7988,0.7988,0.7952,0.78,0.7814,0.775,0.0,0.0,0.0,0.0,0.0,0.0,0.0,0.0,0.0,0.0,0.0,0.0,0.0,0.0,0.0,0.0,0.0,0.0,0.0,0.0,0.0,0.0,0.0,0.0,0.0,0.0,0.0,0.0,0.0,0.0,0.0,0.0,0.0,0.0,0.0,0.0,0.0,0.0,0.0,0.0,0.0,0.0,0.0,0.0,0.0,0.0,0.0,0.0,0.0,0.0,0.0,0.0,0.0,0.0,0.0,0.0,0.0,0.0,0.0,0.0,0.0,0.0,0.0,0.0,0.0,0.0,0.0,0.0,0.0,0.0,0.0,0.0,0.0,0.0,0.0,0.0,0.0,0.0,0.0,0.0,0.0,0.0,0.0,0.0,0.0,0.0,0.0,0.0,0.0,0.0,0.0,0.0,0.0,0.0,0.0,0.0,0.0,0.0,0.0,0.0,0.0,0.0,0.0,0.775,0.7895,0.7988,0.7988,0.7988,0.7952,0.78,0.7885,0.8369,0.937,0.0,0.0,0.0,0.0,0.0,0.0,0.0,0.0,0.0,0.0,0.0,0.0,0.0,0.0,0.0,0.0,0.0,0.0,0.0,0.0,0.0,0.0,0.0,0.0,0.0,0.0,0.0,0.0,0.0,0.0,0.0,0.0,0.0,0.0,0.0,0.0,0.0,0.0,0.0,0.0,0.0,0.0,0.0,0.0,0.0,0.0,0.0,0.0,0.0,0.0,0.0,0.0,0.0,0.0,0.0,0.0,0.0,0.0,0.0,0.0,0.0,0.0,0.0,0.0,0.0,0.0,0.0,0.0,0.0,0.0,0.0,0.0,0.0,0.0,0.0,0.0,0.0,0.0,0.0,0.0,0.0,0.0,0.0,0.0,0.0,0.0,0.0,0.0,0.0,0.0,0.0,0.0,0.0,0.0,0.0,0.0,0.0,0.0,0.0,0.0,0.0,0.0,0.7811,0.7918,0.7988,0.7988,0.7988,0.7952,0.78,0.7871,0.8286,0.9102,0.0,0.0,0.0,0.0,0.0,0.0,0.0,0.0,0.0,0.0,0.0,0.0,0.0,0.0,0.0,0.0,0.0,0.0,0.0,0.0,0.0,0.0,0.0,0.0,0.0,0.0,0.0,0.0,0.0,0.0,0.0,0.0,0.0,0.0,0.0,0.0,0.0,0.0,0.0,0.0,0.0,0.0,0.0,0.0,0.0,0.0,0.0,0.0,0.0,0.0,0.0,0.0,0.0,0.0,0.0,0.0,0.0,0.0,0.0,0.0,0.0,0.0,0.0,0.0,0.0,0.0,0.0,0.0,0.0,0.0,0.0,0.0,0.0,0.0,0.0,0.0,0.0,0.0,0.0,0.0,0.0,0.0,0.0,0.0,0.0,0.0,0.0,0.0,0.0,0.0,0.0,0.0,0.0,0.0,0.0,0.0,0.0,0.0,0.0,0.0,0.0,0.0,0.7811,0.7908,0.7975,0.7988,0.7988,0.7952,0.78,0.78,0.7784,0.7728,0.0,0.0,0.0,0.0,0.0,0.0,0.0,0.0,0.0,0.0,0.0,0.0,0.0,0.0,0.0,0.0,0.0,0.0,0.0,0.0,0.0,0.0,0.0,0.0,0.0,0.0,0.0,0.0,0.0,0.0,0.0,0.0,0.0,0.0,0.0,0.0,0.0,0.0,0.0,0.0,0.0,0.0,0.0,0.0,0.0,0.0,0.0,0.0,0.0,0.0,0.0,0.0,0.0,0.0,0.0,0.0,0.0,0.0,0.0,0.0,1.2801,1.2705,0.0,0.0,0.0,0.0,0.0,0.0,0.0,0.0,0.0,0.0,0.0,0.0,0.0,0.0,0.0,0.0,0.0,0.0,0.0,0.0,0.0,0.0,0.0,0.0,0.0,0.0,0.0,0.0,0.0,0.0,0.0,0.0,0.0,0.0,0.0,0.0,0.0,0.0,0.0,0.0,0.7797,0.7814,0.7881,0.7978,0.7988,0.7952,0.78,0.7898,0.8135,0.8528,0.9041,0.0,0.0,0.0,0.0,0.0,0.0,0.0,0.0,0.0,0.0,0.0,0.0,0.0,0.0,0.0,0.0,0.0,0.0,0.0,0.0,0.0,0.0,0.0,0.0,0.0,0.0,0.0,0.0,0.0,0.0,0.0,0.0,0.0,0.0,0.0,0.0,0.0,0.0,0.0,0.0,0.0,0.0,0.0,0.0,0.0,0.0,0.0,0.0,0.0,0.0,0.0,0.0,0.0,0.0,0.0,0.0,0.0,0.0,0.0,1.3111,1.2665,0.0,0.0,0.0,0.0,0.0,0.0,0.0,0.0,0.0,0.0,0.0,0.0,0.0,0.0,0.0,0.0,0.0,0.0,0.0,0.0,0.0,0.0,0.0,0.0,0.0,0.0,0.0,0.0,0.0,0.0,0.0,0.0,0.0,0.0,0.0,0.0,0.0,0.0,0.0,0.0,0.7878,0.7895,0.7925,0.7982,0.7988,0.7983,0.7902,0.7902,0.8021,0.8313,0.8742,0.0,0.0,0.0,0.0,0.0,0.0,0.0,0.0,0.0,0.0,0.0,0.0,0.0,0.0,0.0,0.0,0.0,0.0,0.0,0.0,0.0,0.0,0.0,0.0,0.0,0.0,0.0,0.0,0.0,0.0,0.0,0.0,0.0,0.0,0.0,0.0,0.0,0.0,0.0,0.0,0.0,0.0,0.0,0.0,0.0,0.0,0.0,0.0,0.0,0.0,0.0,0.0,0.0,1.387,1.4087,1.4298,1.4346,1.4395,1.4401,1.3732,1.2979,1.231,1.2963,0.0,0.0,0.0,0.0,0.0,0.0,0.0,0.0,0.0,0.0,0.0,0.0,0.0,0.0,0.0,0.0,0.0,0.0,0.0,0.0,0.0,0.0,0.7862,0.7743,0.7824,0.7889,0.7746,0.0,0.0,0.0,0.0,0.0,0.0,0.0,0.0,0.0,0.0,0.0,0.7996,0.7993,0.7986,0.7985,0.7988,0.7988,0.7988,0.7925,0.7868,0.7814,0.8451,0.8883,0.0,0.0,0.0,0.0,0.0,0.0,0.0,0.0,0.0,0.0,0.0,0.0,0.0,0.0,0.0,0.0,0.0,0.0,0.0,0.0,0.0,0.0,0.0,0.0,0.0,0.0,0.0,0.0,0.0,0.0,0.0,0.0,1.3921,1.3836,0.0,0.0,0.0,0.0,0.0,0.0,0.0,0.0,0.0,0.0,0.0,0.0,0.0,1.3749,1.3749,1.4008,1.4159,1.4189,1.4226,1.4262,1.4304,1.4552,1.4762,1.4992,1.489,0.0,1.3636,1.3746,0.0,0.0,0.0,0.0,0.0,0.0,0.0,0.0,0.0,0.0,0.0,0.0,0.0,0.0,0.0,0.0,0.0,0.0,0.0,0.0,0.0,0.0,0.823,0.8213,0.8315,0.8379,0.8236,0.7974,0.7784,0.7784,0.7784,0.7743,0.0,0.0,0.0,0.0,0.0,0.0,0.7996,0.7898,0.7868,0.7975,0.7988,0.7988,0.7988,0.8143,0.8121,0.7828,0.8014,0.8392,0.8971,0.9094,0.0,0.0,0.0,0.0,0.0,0.0,0.0,0.0,0.0,0.0,0.0,0.0,0.0,0.0,0.0,0.0,0.0,0.0,0.0,0.0,0.0,0.0,0.0,0.0,0.0,0.0,0.0,0.0,0.0,1.5007,1.4291,1.3756,1.3831,1.3713,0.0,0.0,0.0,0.0,0.0,0.0,0.0,0.0,0.0,1.3779,1.4008,1.4201,1.4358,1.4624,1.498,1.5433,1.5578,1.5801,1.6091,1.6211,1.6332,1.6441,1.6441,1.6157,1.5561,1.3909,1.2576,1.1595,0.0,0.0,0.0,0.0,1.1437,1.14,1.0603,1.0327,1.0247,0.9619,0.0,0.0,0.0,0.0,0.0,0.0,0.0,0.8089,0.8167,0.8353,0.852,0.852,0.8632,0.8699,0.855,0.8411,0.8216,0.7962,0.7915,0.7868,0.7743,0.777,0.0,0.0,0.0,0.7841,0.7996,0.7956,0.7942,0.7982,0.7988,0.7988,0.7988,0.8077,0.8057,0.7922,0.7979,0.8125,0.8423,0.8878,0.9506,0.0,0.0,0.0,0.0,0.0,0.0,0.0,0.0,0.0,0.0,0.0,0.0,0.0,0.0,0.0,0.0,0.0,0.0,0.0,0.0,0.0,0.0,0.0,0.0,0.0,0.0,0.0,0.0,1.4891,1.4389,1.3542,1.3746,1.362,0.0,0.0,0.0,0.0,0.0,0.0,1.3786,1.4135,1.4431,1.4696,1.4841,1.504,1.5324,1.5584,1.6012,1.6616,1.6809,1.7105,1.7485,1.7581,1.7404,1.7073,1.7073,1.6613,1.5697,1.3963,1.2438,1.1177,1.0926,1.0957,1.1115,1.0972,1.098,1.0993,1.0289,1.0046,0.9884,0.9003,0.8641,0.8488,0.8243,0.0,0.0,0.0,0.0,0.8444,0.856,0.871,0.8825,0.8825,0.894,0.8983,0.8855,0.8825,0.8693,0.8213,0.8098,0.8037,0.795,0.7929,0.0,0.7929,0.796,0.8024,0.8115,0.8094,0.8074,0.8074,0.8037,0.7988,0.7988,0.805,0.8057,0.7992,0.805,0.8054,0.7992,0.8587,0.903,0.9292,0.0,0.0,0.0,0.0,0.0,0.0,0.0,0.0,0.0,0.0,0.0,0.0,0.0,0.0,0.0,0.0,0.0,0.0,0.0,0.0,0.0,0.0,0.0,0.0,0.0,0.0,0.0,0.0,0.0,1.2814,1.322,0.0,0.0,0.0,0.0,1.3437,1.3948,1.4358,1.4617,1.5143,1.5535,1.5801,1.6308,1.6706,1.6966,1.726,1.7411,1.7454,1.7436,1.7455,1.752,1.7768,1.7156,1.5883,1.5883,1.4589,1.2553,1.408,1.4488,1.4033,1.258,1.2013,1.1932,1.1055,1.0707,1.0603,0.9745,0.9367,0.9267,0.9318,0.926,0.9083,0.8764,0.8676,0.0,0.0,0.8686,0.8723,0.8848,0.9022,0.9187,0.9187,0.9277,0.9345,0.9192,0.9187,0.9026,0.8573,0.8376,0.8281,0.8274,0.0,0.8274,0.8274,0.8389,0.8478,0.8485,0.8369,0.8284,0.8284,0.8126,0.7988,0.7988,0.8174,0.8197,0.8023,0.8177,0.8194,0.802,0.8031,0.8542,0.9567,0.9612,0.0,0.0,0.0,0.0,0.0,0.0,0.0,0.0,0.0,0.0,0.0,0.0,0.0,0.0,0.0,0.0,0.0,0.0,0.0,0.0,0.0,0.0,0.0,0.0,0.0,0.0,0.0,0.0,1.441,1.447,0.0,1.4268,1.4166,1.4304,1.4763,1.5119,1.5517,1.597,1.6332,1.6646,1.6905,1.7133,1.7328,1.7623,1.772,1.7937,1.8257,1.8257,1.7904,1.7173,1.7294,1.654,1.5214,1.5214,1.4747,1.3914,1.3528,1.2608,1.1364,1.0652,1.0349,1.034,1.0077,1.0054,1.0102,0.9878,0.971,0.9544,0.9339,0.9226,0.9145,0.8916,0.8831,0.8848,0.8995,0.9022,0.906,0.9184,0.9334,0.9469,0.9561,0.9625,0.9649,0.9595,0.951,0.9371,0.9138,0.8788,0.8523,0.8451,0.8434,0.8434,0.8434,0.8478,0.8509,0.8509,0.8523,0.8516,0.8444,0.8445,0.8405,0.8333,0.8318,0.8274,0.8194,0.8147,0.8071,0.7992,0.7988,0.8187,0.8552,0.8581,0.9435,0.0,0.0,0.0,0.0,0.0,0.0,0.0,0.0,0.0,0.0,0.0,0.0,0.0,0.0,0.0,0.0,0.0,0.0,0.0,0.0,0.0,0.0,0.0,0.0,0.0,1.5132,1.5317,1.5253,1.5478,1.5505,1.5143,1.5113,1.5258,1.5602,1.6042,1.6489,1.6942,1.7304,1.7618,1.7907,1.7889,1.804,1.8306,1.8312,1.8494,1.8813,1.8813,1.8192,1.7012,1.7012,1.5971,1.4189,1.4189,1.3927,1.3394,1.2393,1.1219,1.0093,0.9802,0.9713,0.9733,0.9852,0.9964,1.0059,1.013,1.0103,0.9992,0.9675,0.9563,0.9526,0.9268,0.9207,0.9227,0.9351,0.9407,0.9454,0.9662,0.9761,0.9859,0.9954,0.9978,0.9961,0.9879,0.9795,0.967,0.9496,0.9133,0.8811,0.8662,0.8594,0.854,0.8515,0.8526,0.856,0.856,0.8648,0.8672,0.857,0.8604,0.8594,0.8515,0.842,0.8366,0.8366,0.8245,0.8162,0.8162,0.8162,0.8162,0.8162,0.8162,0.9036,1.0834,0.0,0.0,0.0,0.0,0.0,0.0,0.0,0.0,0.0,0.0,0.0,0.0,0.0,0.0,0.0,0.0,0.0,0.0,0.0,0.0,0.0,0.0,0.0,1.431,1.501,1.5433,1.5185,1.6079,1.6314,1.5294,1.5644,1.5952,1.6003,1.67,1.7284,1.755,1.8028,1.8432,1.8686,1.8735,1.8862,1.9116,1.9122,1.9084,1.9058,1.9046,1.8253,1.6883,1.6856,1.5359,1.2717,1.2758,1.1971,1.0688,1.0688,1.0688,1.0657,1.0405,1.0293,1.0342,1.0449,1.05,1.05,1.0493,1.0493,1.0473,1.0327,1.0315,1.0232,0.9927,0.9805,0.9805,0.9805,0.9805,0.9903,1.0233,1.0312,1.0315,1.0318,1.0315,1.0243,1.0062,1.0025,0.9934,0.965,0.941,0.9155,0.895,0.8801,0.8679,0.856,0.8632,0.0,0.8723,0.8723,0.8723,0.8716,0.8587,0.8529,0.8522,0.8519,0.8515,0.8515,0.8512,0.8509,0.8509,0.8509,0.8509,0.8509,0.8535,0.9052,1.011,0.0,0.0,0.0,0.0,0.0,0.0,0.0,0.0,0.0,0.0,0.0,0.0,0.0,0.0,0.0,0.0,0.0,0.0,0.0,0.0,0.0,1.4787,1.4817,1.463,1.5445,1.6115,1.6247,1.6688,1.702,1.7133,1.7103,1.7286,1.7901,1.8155,1.8391,1.8657,1.8808,1.8923,1.8995,1.9183,1.9322,1.9388,1.9388,1.8868,1.7877,1.7655,1.6295,1.396,1.406,1.3062,1.1284,1.1368,1.1154,1.0688,1.0688,1.0688,1.0677,1.0629,1.0599,1.0605,1.0643,1.0656,1.0639,1.0531,1.0565,1.0616,1.0397,1.038,1.0399,1.0212,1.0154,1.0154,1.0154,1.0154,1.0175,1.0291,1.0312,1.0307,1.0409,1.0354,1.0297,1.0358,1.017,0.9994,0.9913,0.9741,0.9557,0.9303,0.9225,0.9181,0.9169,0.9104,0.906,0.906,0.906,0.9019,0.8858,0.893,0.8954,0.8794,0.8713,0.8648,0.8648,0.8543,0.8509,0.8509,0.8509,0.8509,0.8509,0.9257,0.9801,0.0,0.0,0.0,0.0,0.0,0.0,0.0,0.0,0.0,0.0,0.0,0.0,0.0,0.0,0.0,0.0,0.0,0.0,0.0,0.0,0.0,0.0,1.5578,1.5885,1.5734,1.6332,1.6916,1.7159,1.7624,1.7956,1.807,1.804,1.8137,1.8524,1.8076,1.7877,1.8027,1.7585,1.7363,1.7423,1.7532,1.7621,1.7752,1.7681,1.7284,1.6519,1.6349,1.5125,1.3006,1.2992,1.2224,1.0907,1.0904,1.0863,1.0782,1.0782,1.0745,1.0688,0.0,0.0,0.0,0.0,1.0688,1.0674,1.0619,1.0646,1.0657,1.0521,1.0521,1.0561,1.0415,1.0368,1.0368,1.0368,1.0368,1.0385,1.0446,1.0466,1.0487,1.0568,1.0524,1.047,1.0487,1.0354,1.0187,1.0126,0.9991,0.0,0.969,0.9557,0.9456,0.942,0.9335,0.9277,0.9277,0.9277,0.922,0.9045,0.9131,0.9121,0.8923,0.8831,0.0,0.0,0.0,0.8672,0.8672,0.8672,0.0,0.0,0.0,0.9598,0.9598,1.041,0.0,0.0,1.0924,1.1141,0.0,0.0,0.0,0.0,0.0,0.0,0.0,0.0,0.0,0.0,0.0,0.0,0.0,0.0,0.0,0.0,1.6344,1.7159,1.7219,1.7484,1.7726,1.7925,1.8584,1.8813,1.8384,1.8547,1.8539,1.8174,1.722,1.6572,1.6414,1.5475,0.0,0.0,0.0,1.5087,1.5346,1.5231,1.5164,1.5112,1.5089,1.4365,1.307,1.2893,1.2233,1.1193,1.1046,1.0955,1.0938,1.0938,1.085,1.0711,1.0694,1.0688,1.0688,1.0688,1.0688,1.0688,1.0688,0.0,0.0,1.0688,1.0688,1.0697,1.0558,1.0517,1.0517,1.0517,1.0517,1.0548,1.0683,1.0688,1.0688,1.0688,1.0688,1.0683,1.0548,1.0504,1.0456,1.0359,1.0181,1.0038,0.999,0.9788,0.9588,0.9452,0.9444,0.9437,0.9437,0.942,0.9356,0.9223,0.9221,0.0,0.8946,0.8919,0.8912,0.8912,0.8912,0.8919,0.8933,0.8936,0.8943,0.896,0.896,0.896,0.896,0.9145,0.9234,0.9259,1.117,1.1566,0.0,0.0,0.0,0.0,0.0,0.0,0.0,0.0,0.0,0.0,0.0,0.0,0.0,0.0,0.0,1.6525,1.7098,1.7557,1.7998,1.8287,1.8421,1.8233,1.8348,1.8487,1.8601,1.8656,1.8299,1.732,1.7049,1.6427,1.53,1.5134,1.5063,1.5101,1.5392,1.5584,1.5625,1.5587,1.5036,1.4002,1.3787,0.0,1.161,1.1674,1.1525,1.1203,1.1263,1.1236,1.1155,1.1155,1.1036,1.086,1.0735,1.0688,1.0688,1.0688,1.0688,1.0688,1.0688,1.0688,1.0688,1.0688,1.0688,1.0714,1.0683,1.0677,0.0,1.0677,1.0677,1.0683,1.0681,1.0688,1.0688,1.0688,1.0688,1.0677,1.068,1.0578,1.0483,1.0456,1.0334,1.0198,1.0038,0.9869,0.9741,0.9741,0.9639,0.9564,0.9564,0.9456,0.94,0.9369,0.9254,0.9172,0.9141,0.9005,0.8912,0.8912,0.8912,0.8963,0.9134,0.9141,0.9199,0.9293,0.9296,0.9296,0.9296,0.9352,0.9366,0.9366,0.9792,0.9878,0.0,0.0,0.0,0.0,0.0,0.0,0.0,0.0,0.0,0.0,0.0,1.4714,1.5378,0.0,1.6513,1.7177,1.7738,1.7959,1.7496,1.7685,1.7748,1.7471,1.7582,1.7418,1.6834,1.6786,1.6572,1.6003,1.5289,1.4613,1.3994,1.3328,1.3093,1.3237,1.3394,1.3493,1.364,1.3586,1.3239,1.2662,1.2509,1.2089,1.1392,1.1392,1.1392,1.1392,1.1392,1.1348,1.1305,1.123,1.1155,1.1043,1.086,1.0752,1.0688,1.0688,1.0688,1.0688,1.0688,1.0688,1.0688,1.0688,1.0688,1.0688,1.0688,1.0688,1.0688,1.0688,1.0688,1.0688,1.0688,1.0688,1.0688,1.0688,1.0688,1.0688,1.0688,1.066,1.0605,1.0605,1.0487,1.0361,1.0283,1.0148,0.9998,0.9812,0.9731,0.9687,0.9687,0.9649,0.9602,0.9602,0.9534,0.9459,0.9417,0.9245,0.9161,0.9161,0.9161,0.9191,0.9291,0.9294,0.9332,0.941,0.941,0.941,0.941,0.9459,0.9496,0.9496,0.9568,0.9564,0.0,0.0,0.0,0.0,0.0,0.0,0.0,1.4279,1.4383,1.498,1.5439,1.5891,1.6416,1.7115,1.7528,1.7363,1.7925,1.7889,1.6477,1.6476,1.6421,1.5919,1.6283,1.6138,1.5005,1.4913,1.4833,1.4543,1.3525,1.2812,1.2645,1.1587,1.111,1.1385,1.1336,1.1369,1.1616,1.1497,1.1497,1.1584,1.1584,1.1584,1.1616,1.1491,1.1504,1.1577,1.1491,1.1436,1.1423,1.1305,1.124,1.1227,1.1046,1.0863,1.0728,1.0698,1.0688,1.0688,1.0688,1.0688,1.0688,1.0688,1.0688,1.0688,1.0688,1.0688,1.0688,1.0688,1.0688,1.0688,1.0688,1.0688,1.0688,1.0688,1.0688,1.0688,1.0688,1.0688,1.0688,1.0688,1.0619,1.0527,1.0497,1.0395,1.0229,0.9951,0.9852,0.9836,0.9836,0.9808,0.9792,0.9792,0.9765,0.9704,0.9618,0.9469,0.9424,0.9422,0.9427,0.9424,0.9425,0.9425,0.9439,0.9466,0.9466,0.9466,0.9466,0.9591,0.9649,0.9652,0.9737,0.9727,1.5376,1.4926,1.451,1.3849,1.3825,1.4217,0.0,1.5327,1.5541,1.632,1.6525,1.6724,1.7278,1.7641,1.7617,1.6822,1.6976,1.6716,1.5292,1.5121,1.467,1.3373,1.4371,1.507,1.4912,1.5002,1.4569,1.3307,1.3227,1.2684,1.1479,1.1371,1.1358,1.1389,1.1508,1.1586,1.1584,1.1603,1.1603,1.1584,1.1584,1.1584,1.1584,1.1567,1.1603,1.1616,1.1567,1.1592,1.1582,1.1426,1.1365,1.1352,1.1234,1.105,1.0874,1.0738,1.0688,1.0688,1.0688,1.0688,1.0688,1.0688,1.0688,1.0688,1.0688,1.0688,1.0688,1.0688,1.0688,1.0688,1.0688,1.0688,1.0688,1.0688,1.0688,1.0688,1.0688,1.0688,1.0688,1.0688,1.0707,1.0653,1.0514,1.048,1.0415,1.0284,1.0079,0.9991,0.9991,0.9876,0.9792,0.9792,0.9677,0.9629,0.9612,0.9469,0.9439,0.9578,0.9456,0.9442,0.9578,0.9585,0.9642,0.9741,0.9741,0.9741,0.9741,0.9758,0.9768,0.9768,0.9785,0.9781,1.5398,1.485,1.4392,1.4407,1.4757,1.5221,1.5831,1.6205,1.6567,1.7056,1.7406,1.7744,1.8143,1.776,1.727,1.6892,1.6309,1.5397,1.3879,1.3756,1.3215,1.1646,1.2034,1.2458,1.2458,1.2521,1.2337,1.1805,1.1879,1.1725,1.1357,1.1355,1.1433,1.1521,1.1586,1.1584,1.1584,1.1584,1.1584,1.1584,1.1584,1.1584,1.1584,1.1584,1.1584,1.1584,1.1584,1.1584,1.1613,1.1552,1.1525,1.1508,1.1355,1.126,1.1175,1.0907,1.0765,1.0688,1.0688,1.0688,1.0688,1.0688,1.0688,1.0688,1.0688,1.0688,1.0688,1.0688,1.0688,1.0688,1.0688,1.0688,1.0688,1.0688,1.0688,1.0688,1.0688,1.0688,1.0688,1.0688,1.0688,1.0667,1.0636,1.0626,1.0605,1.0544,1.0334,1.012,1.0032,0.9961,0.9923,0.9923,0.9869,0.9836,0.9836,0.9775,0.9727,0.9704,0.9724,0.9727,0.9704,0.9704,0.9731,0.9788,0.9792,0.9792,0.9792,0.9792,0.9792,0.9792,0.9792,0.9792,1.5089,1.4867,1.4739,1.5209,1.5777,1.6314,1.6664,1.7092,1.7515,1.7883,1.8233,1.8472,1.8274,1.7545,1.6769,1.6014,1.5134,1.399,1.2478,1.2325,1.1899,1.0651,1.0555,1.0616,1.0653,1.0701,1.0813,1.0961,1.1012,1.1147,1.144,1.1453,1.1504,1.1616,1.1584,1.1584,1.1584,1.1584,1.1584,1.1584,1.1584,1.1584,1.1584,1.1584,1.1584,1.1584,1.1584,1.1584,1.1616,1.1572,1.1582,1.1563,1.1406,1.1328,1.1297,1.1009,1.0843,1.0742,1.0701,1.0688,1.0688,1.0688,1.0688,1.0688,1.0688,1.0688,1.0688,1.0688,1.0688,1.0688,1.0688,1.0688,1.0688,1.0688,1.0688,1.0688,1.0688,1.0688,1.0688,1.0688,1.0688,1.0688,1.0688,1.0688,1.0688,1.0688,1.0538,1.0344,1.016,1.0069,0.9987,0.9987,0.9981,0.9974,0.9984,0.9981,0.9927,0.9856,0.9917,0.9907,0.9795,0.9792,0.9792,0.9792,0.9792,0.9792,0.9792,0.9792,0.9792,0.9792,0.9792,0.9812,1.4267,1.489,1.5529,1.5801,1.6465,1.7189,1.7738,1.8082,1.8402,1.8953,1.9074,1.8658,1.7291,1.7007,1.6135,1.3532,1.3097,1.2572,1.1175,1.0849,1.0699,1.051,1.0407,1.0348,1.0483,1.0735,1.0968,1.1179,1.1294,1.1447,1.1603,1.1577,1.1613,1.1584,1.1584,1.1584,1.1584,1.1584,1.1584,1.1584,1.1584,1.1584,1.1584,1.1584,1.1584,1.1584,1.1584,1.1584,1.1606,1.146,1.1487,1.1553,1.1322,1.1203,1.1186,1.0968,1.0911,1.0887,1.0738,1.0688,1.0688,1.0688,1.0688,1.0688,1.0688,1.0688,1.0688,1.0688,1.0688,1.0688,1.0688,1.0688,1.0688,1.0688,1.0688,1.0688,1.0688,1.0688,1.0688,1.0688,1.0688,1.0688,1.0688,1.0688,1.0688,1.0688,1.0681,1.0653,1.0497,1.0197,0.9987,0.9987,0.9886,0.9856,0.9974,0.9883,0.9859,0.997,0.9876,0.9795,0.9792,0.9792,0.9792,0.9792,0.9792,0.9792,0.9792,0.9792,0.9792,0.9792,0.9792,0.9869,1.4974,1.5686,1.6441,1.7085,1.7551,1.8028,1.8584,1.8778,1.8893,1.9074,1.8832,1.8173,1.6893,1.5721,1.4435,1.286,1.2023,1.1409,1.0842,1.0921,1.0883,1.0437,1.0483,1.0514,1.0368,1.0531,1.0751,1.0968,1.1158,1.1342,1.146,1.1565,1.1584,1.1584,1.1584,1.1584,1.1584,1.1584,1.1584,1.1584,1.1584,1.1584,1.1584,1.1584,1.1584,1.1584,1.1584,1.1584,1.1616,1.1562,1.1511,1.1457,1.1355,1.1288,1.1179,1.0968,1.0914,1.0894,1.0738,1.0688,1.0688,1.0688,1.0688,1.0688,1.0688,1.0688,1.0688,1.0688,1.0688,1.0688,1.0688,1.0688,1.0688,1.0688,1.0688,1.0452,0.951,0.931,0.9008,0.8038,0.7836,0.8171,0.9144,0.931,0.9613,1.0552,1.0633,1.0551,1.05,1.0321,1.0164,0.9997,0.9974,0.992,0.9869,0.9913,0.992,0.9869,0.9913,0.9896,0.9795,0.9792,0.9792,0.9792,0.9792,0.9792,0.9792,0.9792,0.9792,0.9792,0.9893,0.9967,1.5873,1.6579,1.7286,1.8022,1.8403,1.8693,1.9032,1.911,1.8922,1.8312,1.7888,1.7074,1.5192,1.3944,1.2847,1.1831,1.1099,1.0698,1.0762,1.0873,1.0836,1.0477,1.0514,1.051,1.0371,1.0439,1.0619,1.089,1.1084,1.1264,1.1382,1.1538,1.1584,1.1584,1.1634,1.1634,1.1584,1.1634,1.1634,1.1584,1.1584,1.1584,1.1584,1.1584,1.1584,1.1584,1.1584,1.1584,1.1584,1.1584,1.1531,1.1385,1.1366,1.1219,1.1067,1.0887,1.0833,1.0819,1.0721,1.0688,1.0688,1.0688,1.0688,1.0688,1.0688,1.0688,1.0688,1.0688,1.0688,1.0688,1.0688,1.0319,0.9948,0.9948,0.9546,0.8909,0.8005,0.7802,0.7536,0.66,0.64,0.67,0.7636,0.8238,0.9075,1.0485,1.0636,1.0571,1.0571,1.0446,1.0317,1.0187,1.0082,0.9978,0.9879,0.991,0.9896,0.9798,0.9883,0.9893,0.9795,0.9792,0.9792,0.9792,0.9792,0.9792,0.9792,0.9846,0.9869,0.9876,1.0028,1.0126,1.6845,1.7544,1.807,1.8602,1.8923,1.9104,1.9092,1.901,1.8498,1.6821,1.6416,1.5417,1.2436,1.1861,1.1503,1.0458,1.0315,1.0456,1.0853,1.0711,1.0585,1.0684,1.049,1.0375,1.0504,1.0521,1.0646,1.0904,1.1087,1.1264,1.1382,1.1545,1.1626,1.1584,1.1729,1.1736,1.1584,1.1715,1.1715,1.1584,1.1584,1.1584,1.1584,1.1584,1.1584,1.1584,1.1584,1.1584,1.1584,1.1584,1.1531,1.1375,1.1257,1.1077,1.0894,1.0742,1.0688,1.0688,1.0688,1.0691,1.0698,1.0698,1.0698,1.0698,1.0708,1.0698,1.0688,1.0628,1.0591,1.0585,1.0485,0.9477,0.8473,0.8473,0.7403,0.6364,0.6299,0.6299,0.6266,0.6197,0.6233,0.6299,0.6299,0.7503,0.8942,1.0283,1.0552,1.0621,1.0688,1.0595,1.05,1.049,1.0207,1.0007,1.0032,0.989,0.9802,0.9802,0.9795,0.9792,0.9792,0.9792,0.9792,0.9792,0.9792,0.9795,0.9802,0.9947,1.0021,1.0035,1.0219,1.0397,1.7472,1.8101,1.859,1.8923,1.9056,1.9056,1.8862,1.7956,1.6968,1.6325,1.5046,1.3548,1.1886,1.1437,1.1,1.007,1.0314,1.0654,1.0884,1.107,1.1094,1.0877,1.0917,1.0944,1.0806,1.0928,1.106,1.1135,1.1176,1.1264,1.1382,1.1636,1.1692,1.1587,1.187,1.1881,1.1584,1.1617,1.1617,1.1584,1.1584,1.1584,1.1584,1.1584,1.1584,1.1584,1.1584,1.1584,1.1584,1.1584,1.1531,1.1375,1.1257,1.1077,1.0894,1.0742,1.0688,1.0688,1.0688,1.0762,1.0857,1.0857,1.0857,1.0877,1.1016,1.0894,1.0508,0.9566,0.9217,0.8875,0.7769,0.7234,0.6967,0.6967,0.6667,0.6099,0.5068,0.4833,0.4533,0.3461,0.4131,0.4833,0.4833,0.6001,0.7067,0.7434,0.8437,0.951,1.0585,1.0654,1.0619,1.0504,1.0426,1.0337,1.0229,1.0049,0.9961,0.9961,0.9852,0.9792,0.9792,0.9792,0.9792,0.9792,0.9792,0.9846,0.9961,0.9967,1.0076,1.0226,1.0371,1.0456,1.8354,1.8741,1.8953,1.9213,1.8732,1.8096,1.7796,1.6657,1.5314,1.4292,1.3224,1.2016,1.0617,1.0311,1.0152,0.9769,1.0089,1.0515,1.0867,1.1056,1.1185,1.1114,1.1155,1.1166,1.105,1.1118,1.1227,1.1291,1.1324,1.1399,1.1487,1.1708,1.1826,1.1813,1.1908,1.1881,1.1678,1.1675,1.1644,1.1584,1.1584,1.1584,1.1584,1.1584,1.1584,1.1584,1.1584,1.1584,1.1584,1.1584,1.1531,1.1375,1.1257,1.1077,1.0894,1.0742,1.0688,1.0694,1.0765,1.0884,1.1023,1.0857,1.0816,1.0843,1.1023,1.047,0.9627,0.8972,0.8269,0.7504,0.6661,0.596,0.5468,0.5468,0.4999,0.4331,0.3563,0.3362,0.3162,0.2357,0.2826,0.3564,0.4201,0.4967,0.59,0.7167,0.8071,0.9108,1.0518,1.0688,1.0654,1.0602,1.0531,1.0465,1.0325,1.0106,0.9991,0.992,0.9839,0.9792,0.9792,0.9792,0.9822,0.989,0.989,0.9967,1.012,1.0184,0.9968,0.9472,0.9602,0.933,1.9015,1.906,1.8891,1.8909,1.7764,1.6578,1.6266,1.5098,1.3597,1.1802,1.1302,1.0684,0.9179,0.9055,0.9288,0.9585,0.9856,1.0258,1.086,1.0961,1.1076,1.1389,1.1304,1.1264,1.1285,1.1285,1.1349,1.147,1.1623,1.1655,1.1614,1.1766,1.1962,1.2152,1.1952,1.1824,1.1824,1.1803,1.1722,1.1584,1.1584,1.1584,1.1584,1.1584,1.1584,1.1584,1.1584,1.1584,1.1584,1.1584,1.1541,1.1406,1.1288,1.1104,1.0894,1.0558,1.0432,1.0402,1.0343,1.0434,1.0598,1.0725,1.0792,1.0766,1.069,0.9717,0.8562,0.83,0.7279,0.6174,0.5992,0.4992,0.4011,0.4011,0.3099,0.219,0.2199,0.2197,0.2195,0.2195,0.2191,0.2591,0.3798,0.4033,0.4868,0.7372,0.7905,0.854,0.9948,1.0452,1.0688,1.0688,1.0602,1.0473,1.0348,1.0163,1.0011,0.9859,0.9832,0.9819,0.9819,0.9819,0.9893,1.0045,1.0049,1.0123,1.0342,1.0271,0.9619,0.8429,0.8362,0.7636,1.8111,1.7796,1.7396,1.6163,1.5403,1.4854,1.4573,1.3209,1.1873,1.128,1.0188,0.9248,0.8947,0.9055,0.9322,0.9717,1.0039,1.0449,1.1077,1.1233,1.1379,1.1558,1.1555,1.1586,1.1704,1.1714,1.1779,1.1972,1.2088,1.2064,1.1773,1.206,1.2277,1.242,1.2162,1.2057,1.2057,1.1894,1.1722,1.1584,1.1584,1.1584,1.1584,1.1584,1.1584,1.1584,1.1584,1.1584,1.1584,1.1584,1.1603,1.1565,1.1409,1.1295,1.0983,0.9644,0.9052,0.8807,0.7649,0.7282,0.774,1.0304,1.1206,1.1068,0.9783,0.912,0.8303,0.5981,0.5068,0.4483,0.327,0.2743,0.2568,0.2568,0.2376,0.2202,0.2184,0.221,0.2192,0.2192,0.2206,0.2289,0.2524,0.2558,0.2726,0.3228,0.4298,0.5568,0.6967,0.9211,1.0688,1.0688,1.0697,1.067,1.0646,1.0504,1.0354,1.0209,1.0049,0.9978,0.9978,0.9978,1.0049,1.0239,1.0239,1.031,1.0456,0.9308,0.8683,0.8543,0.7327,0.6633,1.824,1.7717,1.7075,1.5673,1.4359,1.3323,1.3026,1.1617,1.0312,1.0008,0.9401,0.8912,0.8912,0.9055,0.9277,0.9544,0.9846,1.0222,1.0774,1.1012,1.1246,1.1474,1.1636,1.1719,1.1786,1.1904,1.1982,1.2094,1.2203,1.2227,1.2077,1.2281,1.2362,1.2274,1.2284,1.2179,1.1945,1.1948,1.184,1.1584,1.1584,1.1584,1.1584,1.1584,1.1584,1.1548,1.0743,1.0416,1.0344,0.9543,0.9216,0.9205,0.9054,0.897,0.8806,0.791,0.7578,0.7413,0.6848,0.667,0.6917,0.8429,0.8882,0.8712,0.8063,0.7232,0.6265,0.4991,0.4002,0.3146,0.2426,0.2223,0.2204,0.2185,0.22,0.2216,0.2195,0.2187,0.221,0.221,0.2199,0.2188,0.2188,0.2188,0.2457,0.3195,0.3865,0.4801,0.6233,0.7603,0.9042,1.0552,1.0047,0.9585,0.9521,0.9454,0.9327,0.9162,0.9795,0.9818,0.9053,0.9022,0.8733,0.8183,0.8154,0.8239,0.8352,0.7693,0.7027,0.6337,0.5635,0.4899,1.8041,1.7161,1.6217,1.4844,1.3171,1.1775,1.1506,1.0333,0.9222,0.896,0.8912,0.8912,0.8912,0.9032,0.9196,0.9379,0.9578,0.9907,1.0419,1.0694,1.0999,1.1396,1.1643,1.1786,1.1881,1.201,1.2125,1.219,1.2267,1.2335,1.2335,1.244,1.2396,1.22,1.2379,1.2301,1.1884,1.204,1.1915,1.1584,1.1584,1.1436,1.1109,1.1109,1.0926,1.0563,0.9327,0.8817,0.8709,0.7512,0.7004,0.6998,0.6894,0.6822,0.6729,0.6289,0.6084,0.6045,0.5879,0.5835,0.5835,0.5835,0.6182,0.6559,0.6293,0.5394,0.4416,0.4246,0.3292,0.2298,0.2292,0.2256,0.2223,0.2206,0.2201,0.2219,0.2216,0.2208,0.2206,0.2199,0.2193,0.2188,0.2188,0.2188,0.2591,0.3698,0.3865,0.4367,0.5767,0.5965,0.6944,0.9519,0.879,0.8079,0.7989,0.7982,0.79,0.7721,0.8817,0.8904,0.7745,0.7678,0.7244,0.6265,0.6234,0.63,0.64,0.6099,0.5367,0.43,0.3999,0.3262,1.6182,1.4783,1.3359,1.1736,1.0663,1.0035,1.0008,0.9439,0.8943,0.8916,0.8912,0.8912,0.8912,0.8923,0.9021,0.9334,0.9434,0.9673,1.0392,1.0636,1.0921,1.1492,1.1587,1.1799,1.221,1.2173,1.221,1.244,1.2474,1.2481,1.2481,1.2494,1.2488,1.2464,1.2488,1.2352,1.2081,1.2091,1.1915,1.1584,1.1584,1.0854,0.9507,0.9507,0.8745,0.7404,0.7259,0.7223,0.7185,0.704,0.7004,0.7004,0.6996,0.6909,0.6638,0.5342,0.4749,0.4423,0.3148,0.2728,0.2728,0.2728,0.4642,0.6643,0.5079,0.464,0.436,0.2913,0.2403,0.2287,0.2298,0.2287,0.2276,0.2216,0.2248,0.2269,0.2214,0.2202,0.2194,0.2201,0.2208,0.2188,0.2188,0.2188,0.2256,0.2389,0.2389,0.2893,0.43,0.4501,0.5093,0.6717,0.6717,0.6629,0.6673,0.6679,0.661,0.6487,0.6583,0.6579,0.6394,0.639,0.6366,0.6385,0.6387,0.6391,0.64,0.5101,0.4434,0.4266,0.2994,0.2323,1.4765,1.3823,1.3004,1.1321,1.0346,0.9792,0.9792,0.9335,0.8912,0.8912,0.8912,0.8912,0.8912,0.8912,0.895,0.9068,0.9088,0.9279,0.9758,1.0029,1.037,1.1006,1.1318,1.1623,1.1979,1.2125,1.2284,1.2484,1.2501,1.2501,1.2501,1.2501,1.2501,1.2501,1.2501,1.2362,1.2101,1.2098,1.1466,1.0233,1.0233,0.9399,0.7912,0.7912,0.7584,0.6934,0.6031,0.5634,0.5525,0.4581,0.4183,0.4183,0.4183,0.4135,0.4011,0.3452,0.3194,0.3074,0.251,0.2296,0.2296,0.2296,0.3131,0.4034,0.3329,0.3192,0.3132,0.2478,0.2296,0.2294,0.2283,0.2316,0.2268,0.2221,0.2242,0.2291,0.2231,0.2183,0.2209,0.2213,0.2197,0.2188,0.2188,0.2188,0.2188,0.2188,0.2188,0.2397,0.296,0.3032,0.3252,0.3849,0.4662,0.5159,0.5228,0.5233,0.5222,0.5162,0.5935,0.5996,0.5092,0.505,0.4674,0.3896,0.3863,0.3863,0.3863,0.3294,0.3027,0.3027,0.2457,0.2188,1.3555,1.2883,1.2372,1.1095,1.0282,0.9781,0.9737,0.9305,0.8912,0.8912,0.8912,0.8912,0.8912,0.8912,0.8912,0.0,0.0,0.9014,0.934,0.9635,0.9998,1.0585,1.0972,1.1345,1.1695,1.2084,1.2349,1.2491,1.2501,1.2269,1.1798,1.176,1.176,1.176,1.176,1.139,1.0666,1.0664,0.9974,0.8636,0.8636,0.7804,0.632,0.632,0.6065,0.5559,0.4475,0.4004,0.3895,0.2769,0.2296,0.2296,0.2296,0.2296,0.2296,0.2296,0.2296,0.2296,0.2296,0.2296,0.2296,0.2296,0.2296,0.2296,0.2296,0.2296,0.2296,0.2296,0.2296,0.2296,0.2296,0.2296,0.2286,0.2245,0.2252,0.2289,0.2238,0.222,0.2204,0.2208,0.2195,0.2188,0.2188,0.2188,0.2188,0.2188,0.2196,0.221,0.2197,0.2208,0.2225,0.222,0.3111,0.3731,0.3764,0.3767,0.3767,0.3767,0.469,0.475,0.3707,0.3691,0.3228,0.2222,0.2188,0.2188,0.2188,0.2188,0.2188,0.2188,0.2188,0.2193,1.2689,1.1675,1.0843,1.0571,1.0158,0.9754,0.9642,0.9234,0.8912,0.8912,0.8912,0.8912,0.8912,0.8912,0.8912,0.8912,0.8912,0.9014,0.934,0.9635,0.9988,1.0439,1.0633,1.0931,1.1526,1.2026,1.2349,1.2491,1.2501,1.176,1.0125,1.0045,1.0045,1.0045,1.0045,0.9122,0.7279,0.7263,0.7172,0.7042,0.7042,0.6212,0.4729,0.4729,0.3859,0.2333,0.2333,0.2333,0.2333,0.2296,0.2296,0.2296,0.2296,0.2296,0.2296,0.2296,0.2296,0.2296,0.2296,0.2296,0.2296,0.2296,0.2296,0.2296,0.2296,0.2296,0.2296,0.2296,0.2296,0.2296,0.2296,0.2296,0.2296,0.2295,0.2295,0.2288,0.2296,0.2231,0.2201,0.2206,0.2209,0.2188,0.2188,0.2188,0.2188,0.2188,0.2214,0.22,0.22,0.2191,0.2222,0.2287,0.2326,0.2325,0.2326,0.2326,0.2326,0.2326,0.2262,0.2232,0.2235,0.2239,0.2222,0.2188,0.2188,0.2188,0.2188,0.2188,0.2188,0.2188,0.2188,0.2205,1.0714,1.0377,1.0255,1.0083,0.9774,0.9507,0.9462,0.9159,0.8912,0.8912,0.8912,0.8912,0.8912,0.8912,0.8912,0.8912,0.8912,0.8943,0.9038,0.9477,0.9988,1.0439,1.1077,1.1519,1.1709,1.1989,1.2234,1.2345,1.14,1.0552,1.0045,0.8917,0.8294,0.8294,0.8275,0.7944,0.7204,0.7189,0.6622,0.5418,0.5418,0.4584,0.306,0.306,0.2769,0.2296,0.2296,0.2296,0.2296,0.2296,0.2296,0.2296,0.2296,0.2296,0.2296,0.2296,0.2296,0.2296,0.2296,0.2296,0.2296,0.2296,0.2296,0.2296,0.2296,0.2296,0.2296,0.2296,0.2296,0.2296,0.2296,0.2296,0.2296,0.2296,0.2296,0.2283,0.2234,0.2217,0.2195,0.2213,0.2195,0.2188,0.2188,0.2188,0.2195,0.2217,0.2193,0.2215,0.2257,0.2217,0.2229,0.2278,0.2303,0.2298,0.2318,0.2283,0.2283,0.2283,0.2292,0.2272,0.2262,0.2233,0.2217,0.2217,0.2217,0.2217,0.2217,0.2217,0.2217,0.2217,0.2217,0.2187,0.9539,0.9693,0.9896,0.9748,0.9561,0.9393,0.9335,0.911,0.8912,0.8912,0.8912,0.8912,0.8912,0.8912,0.8912,0.8912,0.8912,0.8929,0.9011,0.9453,1.0001,1.0562,1.1307,1.1736,1.179,1.1455,1.129,1.1431,0.9968,0.8798,0.8134,0.7121,0.6252,0.5643,0.6187,0.6161,0.5399,0.5381,0.4839,0.3787,0.3787,0.3278,0.2296,0.2296,0.2296,0.2296,0.2296,0.2296,0.0,0.2296,0.2296,0.2296,0.2296,0.2296,0.2296,0.2296,0.2296,0.2296,0.2296,0.2296,0.2296,0.2296,0.2296,0.2296,0.2296,0.2296,0.2296,0.2296,0.2296,0.2296,0.2296,0.2296,0.2296,0.2296,0.2296,0.2286,0.225,0.2226,0.2203,0.2246,0.2212,0.2192,0.2204,0.2196,0.2195,0.2214,0.2193,0.2214,0.2251,0.2215,0.2224,0.226,0.2294,0.2298,0.2315,0.229,0.2296,0.2296,0.2306,0.2291,0.2291,0.2226,0.221,0.221,0.221,0.221,0.221,0.221,0.221,0.2211,0.2222,0.2227,0.0,0.9432,0.9697,0.9595,0.9456,0.9342,0.9199,0.9035,0.0,0.8912,0.8912,0.8912,0.8912,0.8912,0.8912,0.8912,0.8912,0.896,0.9162,0.9585,1.014,1.086,1.135,1.1704,1.1769,1.0583,0.9867,0.9973,0.8324,0.6653,0.5085,0.4895,0.4094,0.2547,0.3956,0.3966,0.242,0.2325,0.2296,0.2296,0.2296,0.2296,0.2296,0.2296,0.2296,0.2296,0.2296,0.2296,0.2296,0.2296,0.2296,0.2296,0.2296,0.2296,0.2296,0.2296,0.2296,0.2296,0.2296,0.2296,0.2296,0.2296,0.2296,0.2296,0.2296,0.2296,0.2296,0.2296,0.2296,0.2296,0.2296,0.2296,0.2296,0.2296,0.2296,0.2295,0.2294,0.2251,0.2221,0.2282,0.2252,0.2201,0.2198,0.221,0.219,0.2195,0.2183,0.2201,0.2203,0.2191,0.2208,0.221,0.2271,0.2288,0.229,0.2317,0.2296,0.2296,0.2308,0.2294,0.2294,0.2231,0.2216,0.2216,0.2216,0.2216,0.2216,0.2216,0.2216,0.2217,0.2281,0.2294,0.8754,0.0,0.9109,0.9075,0.9041,0.9004,0.0,0.8936,0.8912,0.8912,0.8912,0.8912,0.8912,0.8912,0.8912,0.8912,0.8912,0.896,0.9162,1.0036,1.0799,1.124,1.1789,1.2013,1.1661,1.0533,0.9796,0.9772,0.7161,0.5422,0.5024,0.3785,0.2889,0.2509,0.2819,0.2787,0.2389,0.2352,0.2296,0.2296,0.2296,0.2296,0.2296,0.2296,0.2296,0.2296,0.2296,0.2296,0.2296,0.2296,0.2296,0.2296,0.2296,0.2296,0.2296,0.2296,0.2296,0.2296,0.2296,0.2296,0.2296,0.2296,0.2296,0.2296,0.2296,0.2296,0.2296,0.2296,0.2296,0.2296,0.2296,0.2296,0.2296,0.2296,0.2296,0.229,0.2305,0.229,0.2275,0.2224,0.222,0.2199,0.2195,0.219,0.2204,0.2217,0.2211,0.2208,0.2197,0.2186,0.2185,0.2208,0.2216,0.223,0.2289,0.2317,0.2296,0.2296,0.229,0.2287,0.2287,0.228,0.2276,0.2276,0.2276,0.2276,0.2276,0.2276,0.2276,0.2276,0.2283,0.2287,0.8747,0.8848,0.8912,0.8912,0.8912,0.8912,0.8912,0.8912,0.8912,0.8912,0.8912,0.8912,0.8912,0.8912,0.8912,0.8912,0.8912,0.9034,0.9412,1.0198,1.0928,1.1433,1.1843,1.1762,1.094,0.9568,0.8398,0.761,0.527,0.3853,0.3822,0.2978,0.2473,0.2467,0.2412,0.2395,0.2415,0.2348,0.2296,0.2296,0.2296,0.2296,0.2296,0.2296,0.2296,0.2296,0.2296,0.2296,0.2296,0.2296,0.2296,0.2296,0.2296,0.2296,0.2296,0.2296,0.2296,0.2296,0.2296,0.2296,0.2296,0.2296,0.2296,0.2296,0.2296,0.2296,0.2296,0.2296,0.2296,0.2296,0.2296,0.2296,0.2296,0.2296,0.2296,0.2292,0.2313,0.23,0.2286,0.2269,0.223,0.221,0.2205,0.2195,0.2205,0.2183,0.2199,0.2185,0.2202,0.2189,0.2185,0.2202,0.2194,0.2217,0.2268,0.2273,0.2296,0.2296,0.2296,0.2296,0.2296,0.2296,0.2296,0.2296,0.2296,0.2296,0.2296,0.2296,0.2296,0.2296,0.2296,0.2296,0.8869,0.8912,0.8912,0.8912,0.8912,0.8912,0.8912,0.8912,0.8912,0.8912,0.8912,0.8912,0.8912,0.8912,0.8912,0.8912,0.897,0.9227,0.9842,1.0324,1.085,1.1502,1.1749,1.1366,1.0078,0.8457,0.6801,0.512,0.3456,0.2478,0.2389,0.2448,0.2474,0.2417,0.2415,0.2413,0.2371,0.2345,0.2296,0.2296,0.2296,0.2296,0.2296,0.2296,0.2296,0.2296,0.2296,0.2296,0.2296,0.2296,0.2296,0.2296,0.2296,0.2296,0.2296,0.2296,0.2296,0.2296,0.2296,0.2296,0.2296,0.2296,0.2296,0.2296,0.2296,0.2296,0.2296,0.2296,0.2296,0.2296,0.2296,0.2296,0.2296,0.2296,0.2296,0.2296,0.2296,0.2314,0.2297,0.2297,0.2252,0.2223,0.2218,0.2204,0.2206,0.2202,0.2211,0.2188,0.2188,0.2188,0.2188,0.2188,0.2205,0.2206,0.221,0.2259,0.2292,0.2296,0.2296,0.2296,0.2296,0.2296,0.2296,0.2296,0.2296,0.2296,0.2296,0.2296,0.2296,0.2296,0.2296,0.2296,0.8869,0.8912,0.8912,0.8912,0.8912,0.8912,0.8912,0.8912,0.8912,0.8912,0.8912,0.8912,0.8912,0.8912,0.8912,0.8912,0.923,0.9758,1.0447,1.086,1.1234,1.1575,1.1976,1.1548,0.9828,0.8347,0.6817,0.5116,0.3402,0.2395,0.2386,0.2428,0.2414,0.2416,0.2415,0.2366,0.2303,0.2299,0.2296,0.2296,0.2296,0.2296,0.2296,0.2296,0.2296,0.2296,0.2296,0.2296,0.2296,0.2296,0.2296,0.2296,0.2296,0.2296,0.2296,0.2296,0.2296,0.2296,0.2296,0.2296,0.2296,0.2296,0.2296,0.2296,0.2296,0.2296,0.2296,0.2296,0.2296,0.2296,0.2296,0.2296,0.2296,0.2296,0.2296,0.2296,0.2296,0.2293,0.229,0.229,0.23,0.2286,0.2279,0.2249,0.2204,0.2199,0.2191,0.2188,0.2188,0.2188,0.2188,0.2188,0.2186,0.2183,0.2208,0.2277,0.2307,0.2295,0.2296,0.2296,0.2296,0.2296,0.2296,0.2296,0.2296,0.2296,0.2296,0.2296,0.2296,0.2296,0.2296,0.2296,0.8892,0.8912,0.8912,0.8912,0.8912,0.8912,0.8912,0.8912,0.8912,0.8912,0.8912,0.8912,0.8912,0.9041,0.9227,0.947,0.9751,1.0117,1.0538,1.0785,1.1097,1.1565,1.1728,1.0931,0.8671,0.7796,0.6281,0.3775,0.2847,0.2371,0.2339,0.239,0.2385,0.2355,0.2354,0.2347,0.2296,0.2318,0.2318,0.2296,0.2296,0.2296,0.2296,0.2296,0.2296,0.2296,0.2296,0.2296,0.2296,0.2296,0.2296,0.2296,0.2296,0.2296,0.2296,0.2296,0.2296,0.2296,0.2296,0.2296,0.2296,0.2296,0.2296,0.2296,0.2296,0.2296,0.2296,0.2296,0.2296,0.2296,0.2296,0.2296,0.2296,0.2296,0.2296,0.2296,0.2296,0.2296,0.2292,0.2313,0.23,0.2295,0.2308,0.2249,0.2211,0.2206,0.2193,0.2188,0.2188,0.2188,0.2188,0.2188,0.2216,0.2212,0.2208,0.2273,0.2303,0.2295,0.2296,0.2296,0.2296,0.2296,0.2296,0.2296,0.2296,0.2289,0.231,0.231,0.2266,0.225,0.225,0.225,0.8912,0.8912,0.8912,0.8912,0.8912,0.8919,0.8953,0.896,0.897,0.9007,0.8987,0.896,0.896,0.9205,0.9527,0.9947,1.0209,1.0419,1.0666,1.0802,1.1087,1.1653,1.1263,1.0062,0.7716,0.6977,0.5495,0.2612,0.2373,0.2348,0.2309,0.2358,0.2357,0.2297,0.2296,0.2293,0.2287,0.2302,0.2305,0.2296,0.2289,0.229,0.2296,0.2296,0.2296,0.2296,0.2296,0.2293,0.2287,0.2287,0.2283,0.2276,0.2276,0.2281,0.2287,0.2294,0.2296,0.2296,0.2296,0.2296,0.2296,0.2296,0.2296,0.2296,0.2296,0.2296,0.2296,0.2296,0.2296,0.2296,0.2296,0.2296,0.2296,0.2296,0.2296,0.2296,0.2296,0.2296,0.2288,0.2296,0.2291,0.2289,0.2281,0.2236,0.2208,0.2197,0.2189,0.2188,0.2188,0.2188,0.2188,0.2188,0.2216,0.2215,0.2218,0.2283,0.2309,0.2295,0.2296,0.2293,0.2287,0.2287,0.2283,0.2276,0.2276,0.2266,0.228,0.228,0.2232,0.221,0.221,0.221,0.8912,0.8912,0.8912,0.8912,0.8912,0.8946,0.9134,0.9165,0.9206,0.9349,0.9264,0.9165,0.9165,0.9298,0.9527,0.9947,1.0258,1.0677,1.1246,1.1335,1.1514,1.2013,1.0635,0.9067,0.7638,0.6028,0.4332,0.2535,0.2334,0.235,0.2373,0.235,0.2298,0.2296,0.2296,0.2284,0.2294,0.2292,0.2305,0.2296,0.2306,0.2307,0.2296,0.2296,0.2296,0.2296,0.2296,0.2318,0.2294,0.2294,0.2277,0.2216,0.2216,0.2233,0.2297,0.2287,0.2296,0.2296,0.2296,0.2296,0.2296,0.2296,0.2296,0.2296,0.2296,0.2296,0.2296,0.2296,0.2296,0.2296,0.2296,0.2296,0.2296,0.2296,0.2296,0.2296,0.2296,0.2296,0.2288,0.2296,0.2291,0.2281,0.2218,0.2187,0.2201,0.2203,0.221,0.2188,0.2188,0.2188,0.2188,0.2188,0.2216,0.2223,0.2282,0.2313,0.2294,0.2296,0.2296,0.2285,0.2295,0.2294,0.2281,0.2217,0.2216,0.2216,0.2214,0.2214,0.2212,0.221,0.221,0.221,0.8912,0.8912,0.8912,0.8912,0.8912,0.8973,0.9267,0.9325,0.9339,0.9396,0.9483,0.9568,0.9568,0.9693,0.9913,1.036,1.0714,1.1053,1.1474,1.1535,1.1266,1.0555,0.9838,0.8457,0.6103,0.5206,0.4129,0.2505,0.232,0.2294,0.2324,0.2313,0.2298,0.2243,0.2243,0.2238,0.2227,0.2244,0.2249,0.2242,0.2232,0.2242,0.2306,0.2251,0.2243,0.2243,0.2243,0.2237,0.2227,0.2227,0.222,0.221,0.221,0.2228,0.229,0.2246,0.2255,0.2307,0.2307,0.2307,0.2309,0.2291,0.2296,0.2296,0.2296,0.2296,0.2296,0.2296,0.2296,0.2296,0.2296,0.2296,0.2296,0.2296,0.2296,0.2296,0.2296,0.2283,0.2309,0.2315,0.2303,0.2288,0.2276,0.2264,0.225,0.2196,0.2202,0.2217,0.2217,0.22,0.2188,0.2188,0.2216,0.2217,0.2224,0.229,0.2314,0.2295,0.2296,0.2291,0.2318,0.2317,0.2275,0.2264,0.2264,0.2246,0.221,0.221,0.2191,0.2189,0.2189,0.2189,0.8912,0.8912,0.8912,0.8912,0.8912,0.9014,0.9432,0.9486,0.9479,0.9574,0.968,0.9737,0.9781,0.9876,1.0092,1.0575,1.0938,1.1288,1.1511,1.1553,1.1089,0.968,0.8962,0.7615,0.5132,0.4312,0.3509,0.2436,0.2336,0.2311,0.2292,0.2281,0.2232,0.2211,0.221,0.2206,0.2196,0.2211,0.2211,0.2196,0.2187,0.2238,0.2276,0.222,0.221,0.221,0.221,0.2205,0.2196,0.2196,0.2191,0.2183,0.2192,0.2244,0.2261,0.2214,0.2224,0.2277,0.2277,0.2283,0.2294,0.2313,0.2289,0.2296,0.2296,0.229,0.2283,0.2283,0.2276,0.2269,0.2269,0.2283,0.2294,0.2285,0.229,0.2296,0.2296,0.2311,0.2296,0.2315,0.2296,0.2277,0.2277,0.2277,0.2269,0.2214,0.2185,0.22,0.22,0.2208,0.2192,0.2201,0.2187,0.2212,0.2208,0.2273,0.2299,0.2282,0.2291,0.2293,0.2283,0.2283,0.2279,0.2269,0.2269,0.225,0.221,0.221,0.2189,0.2183,0.2183,0.2183,0.8912,0.8912,0.8912,0.8912,0.8912,0.9068,0.9656,0.968,0.9663,0.9957,0.9788,0.9656,0.9768,0.9795,0.9971,1.0419,1.0904,1.1251,1.1369,1.1485,1.1053,0.964,0.7974,0.6425,0.5,0.3302,0.2296,0.2296,0.2306,0.229,0.229,0.2226,0.221,0.221,0.221,0.2195,0.22,0.22,0.22,0.22,0.2203,0.2187,0.221,0.221,0.221,0.221,0.221,0.2193,0.22,0.22,0.2216,0.2192,0.2188,0.22,0.2204,0.2199,0.221,0.221,0.221,0.2229,0.229,0.229,0.2309,0.2296,0.2296,0.2313,0.2291,0.229,0.2233,0.221,0.221,0.2252,0.2289,0.2297,0.2312,0.2296,0.2295,0.231,0.229,0.229,0.223,0.221,0.221,0.2211,0.2211,0.221,0.2185,0.22,0.22,0.2207,0.22,0.2196,0.22,0.2212,0.2207,0.2273,0.229,0.2291,0.2317,0.2283,0.2292,0.2291,0.2277,0.2212,0.2211,0.2211,0.2211,0.2211,0.2211,0.221,0.221,0.221,0.8912,0.8912,0.8912,0.8912,0.9068,0.9323,0.9608,0.9557,0.9595,1.0107,1.0056,0.9934,1.0117,1.0226,1.0337,1.047,1.0904,1.0866,0.9906,0.9897,0.9016,0.6428,0.5683,0.4771,0.3223,0.2609,0.2303,0.2303,0.224,0.2214,0.2228,0.2219,0.2204,0.2216,0.2215,0.2211,0.2202,0.2202,0.2202,0.2201,0.2192,0.2209,0.2213,0.2191,0.2215,0.2215,0.2215,0.221,0.2202,0.2202,0.2197,0.219,0.2198,0.2215,0.2199,0.2186,0.2195,0.2214,0.2214,0.2219,0.2234,0.2277,0.2296,0.2303,0.2303,0.2298,0.2286,0.223,0.2217,0.2206,0.2184,0.2208,0.2234,0.2226,0.2261,0.2285,0.2244,0.2229,0.2224,0.2224,0.2216,0.221,0.221,0.2244,0.2257,0.2216,0.2203,0.2217,0.2208,0.2194,0.2192,0.2201,0.2202,0.2215,0.2211,0.2221,0.2245,0.2288,0.2298,0.2308,0.2283,0.2284,0.228,0.2271,0.2271,0.2261,0.2277,0.2277,0.2231,0.221,0.221,0.221,0.8912,0.8912,0.8926,0.9011,0.9205,0.9435,0.9646,0.9761,0.9944,1.0368,1.029,1.0205,1.0415,1.0429,1.0446,1.0565,1.0383,0.996,0.9098,0.8613,0.7438,0.4942,0.4657,0.4015,0.2405,0.2247,0.2273,0.2273,0.221,0.2185,0.2201,0.2189,0.2208,0.2189,0.2188,0.2188,0.2188,0.2188,0.2188,0.2188,0.2188,0.2198,0.2215,0.2197,0.2188,0.2188,0.2188,0.2188,0.2188,0.2188,0.2188,0.2188,0.2188,0.2199,0.2214,0.2195,0.22,0.2216,0.2216,0.219,0.2206,0.2243,0.2263,0.2273,0.2273,0.2264,0.2251,0.2197,0.2184,0.2205,0.2187,0.2204,0.2192,0.2192,0.2228,0.2252,0.2218,0.2201,0.2196,0.2208,0.2201,0.2196,0.2208,0.2248,0.2264,0.2217,0.22,0.221,0.2195,0.2188,0.2188,0.2188,0.2188,0.2196,0.2215,0.2193,0.2216,0.2252,0.2277,0.2298,0.2315,0.229,0.2296,0.2296,0.2296,0.2288,0.2307,0.2307,0.2262,0.2244,0.2244,0.2244,0.8912,0.8919,0.896,0.9148,0.9328,0.9523,0.9832,1.0219,1.0544,1.0623,1.0487,1.0402,1.067,1.05,1.0376,1.0475,0.9557,0.8687,0.8415,0.741,0.6115,0.4582,0.4372,0.3816,0.235,0.2208,0.2206,0.2206,0.2213,0.2196,0.2196,0.2204,0.2188,0.2188,0.2188,0.2188,0.2188,0.2188,0.2188,0.2188,0.2188,0.2188,0.2188,0.2188,0.2188,0.2188,0.2188,0.2188,0.2188,0.2188,0.2188,0.2188,0.2188,0.2188,0.2188,0.2188,0.2188,0.2188,0.2188,0.2207,0.2196,0.2199,0.2184,0.2206,0.2206,0.2187,0.22,0.2196,0.221,0.2188,0.2188,0.2209,0.2196,0.2196,0.2187,0.2209,0.2204,0.2183,0.2207,0.2197,0.2217,0.2208,0.2201,0.2266,0.2277,0.2211,0.2215,0.2186,0.2192,0.2188,0.2188,0.2188,0.2188,0.2188,0.2188,0.2214,0.2197,0.22,0.2252,0.2285,0.229,0.2318,0.2296,0.2296,0.2296,0.2296,0.2296,0.2296,0.2296,0.2296,0.2296,0.2296,0.8912,0.9022,0.9141,0.9204,0.9534,0.9984,1.04,1.0569,1.0616,1.0415,1.051,1.0643,1.0674,1.0637,1.0277,0.9235,0.8912,0.7971,0.5586,0.5166,0.4512,0.2909,0.2699,0.2594,0.2245,0.2189,0.221,0.221,0.2215,0.2198,0.2198,0.2192,0.2188,0.2188,0.2188,0.2188,0.2188,0.2188,0.2188,0.2188,0.2188,0.2188,0.2188,0.2188,0.2188,0.2188,0.2188,0.2188,0.2188,0.2188,0.2188,0.2188,0.2188,0.2188,0.2188,0.2188,0.2188,0.2188,0.2188,0.2192,0.2202,0.2192,0.2204,0.221,0.221,0.2205,0.2195,0.2205,0.2193,0.2188,0.2188,0.2193,0.2198,0.2198,0.2206,0.2197,0.2185,0.2188,0.2195,0.2212,0.2188,0.2202,0.2208,0.22,0.221,0.2215,0.2184,0.2196,0.2189,0.2188,0.2188,0.2188,0.2188,0.2188,0.2188,0.2195,0.2208,0.2199,0.2213,0.2241,0.2289,0.2318,0.2296,0.2296,0.2296,0.2296,0.2296,0.2296,0.2296,0.2296,0.2296,0.2296,0.8912,0.8967,0.9103,0.9345,0.9768,1.0207,1.0541,1.0633,1.0677,1.0524,1.0612,1.0688,1.0688,1.0688,1.0452,0.9712,0.8491,0.7114,0.5527,0.4236,0.3127,0.2305,0.2202,0.2202,0.2202,0.2187,0.2213,0.2213,0.2197,0.2188,0.2188,0.2188,0.2188,0.2188,0.2188,0.2188,0.2188,0.2188,0.2188,0.2188,0.2188,0.2188,0.2188,0.2188,0.2188,0.2188,0.2188,0.2188,0.2188,0.2188,0.2188,0.2188,0.2188,0.2188,0.2188,0.2188,0.2188,0.2188,0.2188,0.2188,0.2191,0.2207,0.2213,0.2213,0.2213,0.2213,0.2209,0.2193,0.2188,0.2188,0.2188,0.2188,0.2188,0.2188,0.2213,0.2193,0.2195,0.2201,0.2208,0.2192,0.2201,0.2213,0.2213,0.2191,0.2202,0.22,0.2208,0.2188,0.2188,0.2188,0.2188,0.2188,0.2188,0.2188,0.2188,0.2188,0.2195,0.2211,0.2192,0.2215,0.2246,0.229,0.2283,0.2296,0.2296,0.2296,0.2296,0.2296,0.2296,0.2296,0.2296,0.2296,0.8912,0.8929,0.9054,0.9534,0.9927,1.0246,1.0415,1.0571,1.068,1.068,1.0671,1.0688,1.0688,1.0688,1.0552,1.0047,0.7971,0.6233,0.5732,0.3662,0.2188,0.2188,0.2188,0.2188,0.2188,0.2188,0.2188,0.2188,0.2188,0.2188,0.2188,0.2188,0.2188,0.2188,0.2188,0.2188,0.2188,0.2188,0.2188,0.2188,0.2188,0.2188,0.2188,0.2188,0.2188,0.2188,0.2188,0.2188,0.2188,0.2188,0.2188,0.2188,0.2188,0.2188,0.2188,0.2188,0.2188,0.2188,0.2188,0.2188,0.2188,0.2188,0.2188,0.2188,0.2188,0.2188,0.2188,0.2188,0.2188,0.2188,0.2188,0.2188,0.2188,0.2188,0.2188,0.2188,0.2188,0.2188,0.2188,0.2188,0.2188,0.2188,0.2188,0.2188,0.2197,0.2189,0.2205,0.2188,0.2188,0.2188,0.2188,0.2188,0.2188,0.2188,0.2188,0.2188,0.2188,0.2188,0.2213,0.2194,0.22,0.2248,0.2289,0.2281,0.2291,0.2296,0.2296,0.2291,0.2291,0.2296,0.2291,0.2292,0.8912,0.9028,0.926,0.968,0.9808,0.9958,1.0274,1.0419,1.0521,1.0521,1.0626,1.0688,1.0688,1.0688,0.9881,0.7369,0.6667,0.5531,0.3093,0.2423,0.2188,0.2188,0.2188,0.2188,0.2188,0.2188,0.2188,0.2188,0.2188,0.2188,0.2188,0.2188,0.2188,0.2188,0.2188,0.2188,0.2188,0.2188,0.2188,0.2188,0.2188,0.2188,0.2188,0.2188,0.2188,0.2188,0.2188,0.2188,0.2188,0.2188,0.2188,0.2188,0.2188,0.2188,0.2188,0.2188,0.2188,0.2188,0.2188,0.2188,0.2188,0.2188,0.2188,0.2188,0.2188,0.2188,0.2188,0.2188,0.2188,0.2188,0.2188,0.2188,0.2188,0.2188,0.2188,0.2188,0.2188,0.2188,0.2188,0.2188,0.2188,0.2188,0.2188,0.2188,0.219,0.2194,0.2191,0.2188,0.2188,0.2188,0.2188,0.2188,0.2188,0.2188,0.2188,0.2188,0.2188,0.2188,0.2192,0.2206,0.2199,0.2208,0.2226,0.2221,0.2271,0.2296,0.2296,0.2308,0.2309,0.2295,0.2307,0.2309,0.8912,0.9045,0.923,0.9427,0.9635,0.9825,0.9992,1.0205,1.0407,1.0407,0.987,0.9659,1.0538,1.0047,0.9108,0.7836,0.6268,0.48,0.3564,0.2691,0.2188,0.2188,0.2188,0.2188,0.2188,0.2188,0.2188,0.2188,0.2188,0.2188,0.2188,0.2188,0.2188,0.2188,0.2188,0.2188,0.2188,0.2188,0.2188,0.2188,0.2188,0.2188,0.2188,0.2188,0.2188,0.2188,0.2188,0.2188,0.2188,0.2188,0.2188,0.2188,0.2188,0.2188,0.2188,0.2188,0.2188,0.2188,0.2188,0.2188,0.2188,0.2188,0.2188,0.2188,0.2188,0.2188,0.2188,0.2188,0.2188,0.2188,0.2188,0.2188,0.2188,0.2188,0.2188,0.2188,0.2188,0.2188,0.2188,0.2188,0.2188,0.2188,0.2188,0.2188,0.2188,0.2188,0.2188,0.2188,0.2188,0.2188,0.2188,0.2188,0.2188,0.2188,0.2188,0.2188,0.2188,0.2188,0.2188,0.2195,0.2208,0.2191,0.2206,0.2185,0.2226,0.2248,0.2248,0.2236,0.2236,0.2248,0.2236,0.2236,0.8912,0.9018,0.9134,0.92,0.9464,0.9627,0.9301,0.9503,0.9646,0.9295,0.8499,0.822,0.9363,0.8734,0.7928,0.7569,0.5691,0.4167,0.3831,0.2859,0.2188,0.2188,0.2188,0.2188,0.2188,0.2188,0.2188,0.2188,0.2188,0.2188,0.2188,0.2188,0.2188,0.2188,0.2188,0.2188,0.2188,0.2188,0.2188,0.2188,0.2188,0.2188,0.2188,0.2188,0.2188,0.2188,0.2188,0.2188,0.2188,0.2188,0.2188,0.2188,0.2188,0.2188,0.2188,0.2188,0.2188,0.2188,0.2188,0.2188,0.2188,0.2188,0.2188,0.2188,0.2188,0.2188,0.2188,0.2188,0.2188,0.2188,0.2188,0.2188,0.2188,0.2188,0.2188,0.2188,0.2188,0.2188,0.2188,0.2188,0.2188,0.2188,0.2188,0.2188,0.2188,0.2188,0.2188,0.2188,0.2188,0.2188,0.2188,0.2188,0.2188,0.2188,0.2188,0.2188,0.2188,0.2188,0.2188,0.2188,0.2188,0.221,0.2189,0.2189,0.2211,0.2195,0.221,0.2203,0.2203,0.221,0.2202,0.1993,0.8912,0.8916,0.8956,0.9148,0.9308,0.9117,0.7968,0.7972,0.7861,0.6574,0.6368,0.6436,0.6505,0.6517,0.6074,0.4749,0.4396,0.3831,0.249,0.2256,0.2188,0.2188,0.2188,0.2188,0.2188,0.2188,0.2188,0.2188,0.2188,0.2188,0.2188,0.2188,0.2188,0.2188,0.2188,0.2188,0.2188,0.2188,0.2188,0.2188,0.2188,0.2188,0.2188,0.2188,0.2188,0.2188,0.2188,0.2188,0.2188,0.2188,0.2188,0.2188,0.2188,0.2188,0.2188,0.2188,0.2188,0.2188,0.2188,0.2188,0.2188,0.2188,0.2188,0.2188,0.2188,0.2188,0.2188,0.2188,0.2188,0.2188,0.2188,0.2188,0.2188,0.2188,0.2188,0.2188,0.2188,0.2188,0.2188,0.2188,0.2188,0.2188,0.2188,0.2188,0.2188,0.2188,0.2188,0.2188,0.2188,0.2188,0.2188,0.2188,0.2188,0.2188,0.2188,0.2188,0.2188,0.2188,0.2188,0.2188,0.2188,0.219,0.2191,0.2191,0.2192,0.2188,0.221,0.2217,0.2217,0.221,0.2216,0.1489,0.8912,0.8912,0.8923,0.9001,0.8555,0.7999,0.7572,0.7068,0.6553,0.6058,0.5362,0.4805,0.4758,0.4899,0.484,0.4371,0.3509,0.2726,0.2222,0.2141,0.2129,0.2129,0.2147,0.2125,0.2125,0.2177,0.2188,0.2188,0.2188,0.2188,0.2188,0.2188,0.2188,0.2188,0.2188,0.2188,0.2188,0.2188,0.2188,0.2188,0.2188,0.2188,0.2188,0.2188,0.2188,0.2188,0.2188,0.2188,0.2188,0.2188,0.2188,0.2188,0.2188,0.2188,0.2188,0.2188,0.2188,0.2188,0.2188,0.2188,0.2188,0.2188,0.2188,0.2188,0.2188,0.2188,0.2188,0.2188,0.2188,0.2188,0.2188,0.2188,0.2188,0.2188,0.2188,0.2188,0.2188,0.2188,0.2188,0.2188,0.2188,0.2188,0.2188,0.2188,0.2188,0.2188,0.2188,0.2188,0.2188,0.2188,0.2188,0.2188,0.2188,0.2188,0.2188,0.2188,0.2188,0.2188,0.2188,0.2188,0.2188,0.2188,0.2188,0.2188,0.2188,0.2199,0.2187,0.221,0.221,0.2187,0.1223,0.0509,0.8912,0.8912,0.8912,0.8912,0.8451,0.7775,0.6933,0.6271,0.5578,0.472,0.3896,0.3304,0.3271,0.3382,0.3477,0.3527,0.2716,0.2103,0.2091,0.2109,0.2096,0.2096,0.2091,0.2106,0.2095,0.2164,0.2184,0.2174,0.2182,0.2188,0.2188,0.2188,0.2188,0.2188,0.2188,0.2188,0.2188,0.2188,0.2188,0.2188,0.2188,0.2188,0.2188,0.2188,0.2188,0.2188,0.2188,0.2188,0.2188,0.2188,0.2188,0.2188,0.2188,0.2188,0.2188,0.2188,0.2188,0.2188,0.2188,0.2188,0.2188,0.2188,0.2188,0.2188,0.2188,0.2188,0.2188,0.2188,0.2188,0.2188,0.2188,0.2188,0.2188,0.2188,0.2188,0.2188,0.2188,0.2188,0.2188,0.2188,0.2188,0.2188,0.2188,0.2188,0.2188,0.2188,0.2188,0.2188,0.2188,0.2188,0.2188,0.2188,0.2188,0.2188,0.2188,0.2188,0.2188,0.2188,0.2188,0.2188,0.2188,0.2188,0.2188,0.2188,0.2188,0.2193,0.2204,0.2193,0.1952,0.1446,0.0439,-0.0576,0.0,0.0,0.0,0.8912,0.9014,0.8489,0.6009,0.5578,0.4987,0.2472,0.2017,0.2038,0.2008,0.2008,0.1986,0.2013,0.2042,0.2093,0.2095,0.2094,0.2093,0.2093,0.2088,0.2095,0.2098,0.2151,0.2174,0.2111,0.2171,0.2188,0.2188,0.2188,0.2188,0.2188,0.2188,0.2188,0.2188,0.2188,0.2188,0.2188,0.2188,0.2188,0.2188,0.2188,0.2188,0.2188,0.2188,0.2188,0.2188,0.2188,0.2188,0.2188,0.2188,0.2188,0.2188,0.2188,0.2188,0.2188,0.2188,0.2188,0.2188,0.2188,0.2188,0.2188,0.2188,0.2188,0.2188,0.2188,0.2188,0.2188,0.2188,0.2188,0.2188,0.2188,0.2188,0.2188,0.2188,0.2188,0.2188,0.2188,0.2188,0.2188,0.2188,0.2188,0.2188,0.2188,0.2188,0.2188,0.2188,0.2188,0.2188,0.2188,0.2188,0.2188,0.2188,0.2189,0.219,0.219,0.219,0.219,0.2191,0.219,0.219,0.2191,0.2191,0.2172,0.2132,0.2136,0.138,0.0,-0.0171,-0.1831,0.8912,0.0,0.0,0.0,0.0,0.0,0.6848,0.6136,0.5158,0.3544,0.3291,0.3081,0.2161,0.2008,0.201,0.1987,0.2026,0.2039,0.2029,0.2014,0.2032,0.2032,0.2026,0.204,0.2032,0.2086,0.2119,0.211,0.2171,0.2188,0.2188,0.2188,0.2188,0.2188,0.2188,0.2188,0.2188,0.2188,0.2188,0.2188,0.2188,0.2188,0.2188,0.2188,0.2188,0.2188,0.2188,0.2188,0.2188,0.2188,0.2188,0.2188,0.2188,0.2188,0.2188,0.2188,0.2188,0.2188,0.2188,0.2188,0.2188,0.2188,0.2188,0.2188,0.2188,0.2188,0.2188,0.2188,0.2188,0.2188,0.2188,0.2188,0.2188,0.2188,0.2188,0.2188,0.2188,0.2188,0.2188,0.2188,0.2188,0.2188,0.2188,0.2188,0.2188,0.2188,0.2188,0.2188,0.2188,0.2188,0.2188,0.2188,0.2188,0.2188,0.2188,0.2209,0.2187,0.2187,0.2187,0.2197,0.2185,0.22,0.2198,0.2185,0.2185,0.1668,0.0523,0.055,0.0343,-0.0138,-0.2326,-0.4358,0.0,0.0,0.8912,0.8912,0.0,0.0,0.6669,0.6001,0.5062,0.3304,0.3034,0.2867,0.213,0.2008,0.2008,0.2008,0.2008,0.2013,0.1999,0.1987,0.2008,0.2008,0.2001,0.1987,0.1987,0.2074,0.2109,0.2109,0.2171,0.2188,0.2188,0.2188,0.2188,0.2188,0.2188,0.2188,0.2188,0.2188,0.2188,0.2188,0.2188,0.2188,0.2188,0.2188,0.2188,0.2188,0.2188,0.2188,0.2188,0.2188,0.2188,0.2188,0.2188,0.2188,0.2188,0.2188,0.2188,0.2188,0.2188,0.2188,0.2188,0.2188,0.2188,0.2188,0.2188,0.2188,0.2188,0.2188,0.2188,0.2188,0.2188,0.2188,0.2188,0.2188,0.2188,0.2188,0.2188,0.2188,0.2188,0.2188,0.2188,0.2188,0.2188,0.2188,0.2188,0.2188,0.2188,0.2188,0.2188,0.2188,0.2188,0.2188,0.2188,0.2194,0.2206,0.219,0.2206,0.2183,0.2184,0.2192,0.221,0.2193,0.2192,0.221,0.1578,0.0176,-0.2011,-0.0731,-0.0766,-0.2081,-0.4443,-0.6016,0.0,0.0,0.0,0.8933,0.895,0.0,0.63,0.588,0.5282,0.2971,0.2562,0.2587,0.2468,0.2315,0.2223,0.2223,0.2099,0.2008,0.2008,0.2008,0.2008,0.2008,0.1999,0.2014,0.2014,0.2065,0.2099,0.2099,0.2164,0.2185,0.2188,0.2188,0.2188,0.2188,0.2188,0.2188,0.2188,0.2188,0.2188,0.2188,0.2188,0.2188,0.2188,0.2188,0.2188,0.2188,0.2188,0.2188,0.2188,0.2188,0.2188,0.2188,0.2188,0.2188,0.2188,0.2188,0.2188,0.2188,0.2188,0.2188,0.2188,0.2188,0.2188,0.2188,0.2188,0.2188,0.2188,0.2188,0.2188,0.2188,0.2188,0.2188,0.2188,0.2188,0.2188,0.2188,0.2188,0.2188,0.2188,0.2188,0.2188,0.2188,0.2188,0.2188,0.2188,0.2188,0.2188,0.2188,0.2188,0.2188,0.2188,0.2188,0.2188,0.2201,0.2198,0.2203,0.2218,0.2214,0.2215,0.2216,0.222,0.2217,0.2217,0.222,0.0528,-0.1768,-0.4683,-0.1941,-0.2083,-0.497,-0.6277,-0.6928,0.8912,0.9022,0.9141,0.9141,0.9233,0.0,0.8593,0.8555,0.8206,0.6655,0.6432,0.6239,0.5305,0.4244,0.3539,0.3539,0.2683,0.2008,0.2008,0.2008,0.2008,0.2008,0.2012,0.1984,0.1984,0.2016,0.2004,0.2004,0.2087,0.2129,0.2187,0.2188,0.2188,0.2188,0.2188,0.2188,0.2188,0.2188,0.2188,0.2188,0.2188,0.2188,0.2188,0.2188,0.2188,0.2188,0.2188,0.2188,0.2188,0.2188,0.2188,0.2188,0.2188,0.2188,0.2188,0.2188,0.2188,0.2188,0.2188,0.2188,0.2188,0.2188,0.2188,0.2188,0.2188,0.2188,0.2188,0.2188,0.2188,0.2188,0.2188,0.2188,0.2188,0.2188,0.2188,0.2188,0.2188,0.2188,0.2188,0.2188,0.2188,0.2188,0.2188,0.2188,0.2188,0.2188,0.2188,0.2188,0.2188,0.2188,0.2188,0.2188,0.2188,0.2201,0.2198,0.2187,0.2214,0.228,0.2282,0.2292,0.2279,0.2294,0.2292,0.2279,-0.047,-0.2821,-0.4711,-0.3971,-0.4652,-0.656,-0.6675,-0.6837,0.9161,0.9211,0.9294,0.9294,0.9352,0.0,0.0,0.8393,0.8078,0.6904,0.6661,0.6487,0.6004,0.4794,0.3905,0.3905,0.2836,0.2008,0.2008,0.2008,0.2008,0.2008,0.2008,0.2013,0.1996,0.201,0.2,0.2061,0.2092,0.2123,0.2186,0.2188,0.2188,0.2188,0.2188,0.2188,0.2188,0.2188,0.2188,0.2188,0.2188,0.2188,0.2188,0.2188,0.2188,0.2188,0.2188,0.2188,0.2188,0.2188,0.2188,0.2188,0.2188,0.2188,0.2188,0.2188,0.2188,0.2188,0.2188,0.2188,0.2188,0.2188,0.2188,0.2188,0.2188,0.2188,0.2188,0.2188,0.2188,0.2188,0.2188,0.2188,0.2188,0.2188,0.2188,0.2188,0.2188,0.2188,0.2188,0.2188,0.2188,0.2188,0.2188,0.2188,0.2188,0.2188,0.2188,0.2188,0.2188,0.2188,0.2188,0.2188,0.2202,0.2189,0.2185,0.2216,0.2281,0.231,0.2311,0.2318,0.2295,0.2283,0.1593,0.0036,-0.1529,-0.3456,-0.5858,-0.5747,-0.6144,-0.6986,-0.6851,-0.6862,0.941,0.943,0.9425,0.9425,0.9445,0.9222,0.0,0.0,0.0,0.6772,0.652,0.6487,0.6614,0.5345,0.4269,0.4289,0.3015,0.2006,0.1969,0.2003,0.2008,0.2008,0.2008,0.1986,0.2008,0.201,0.2035,0.2096,0.2101,0.2116,0.2186,0.2188,0.2188,0.2188,0.2188,0.2188,0.2188,0.2188,0.2188,0.2188,0.2188,0.2188,0.2188,0.2188,0.2188,0.2188,0.2188,0.2188,0.2188,0.2188,0.2188,0.2188,0.2188,0.2188,0.2188,0.2188,0.2188,0.2188,0.2188,0.2188,0.2188,0.2188,0.2188,0.2188,0.2188,0.2188,0.2188,0.2188,0.2188,0.2188,0.2188,0.2188,0.2188,0.2188,0.2188,0.2188,0.2188,0.2188,0.2188,0.2188,0.2188,0.2188,0.2188,0.2188,0.2188,0.2188,0.2188,0.2188,0.2188,0.2188,0.2188,0.2188,0.2216,0.2212,0.2208,0.2273,0.2303,0.2295,0.2296,0.2296,0.2296,0.2296,0.0838,-0.2256,-0.2293,-0.3856,-0.699,-0.6934,-0.6936,-0.6988,-0.6916,-0.6922,0.941,0.9479,0.9585,0.9585,0.968,0.9677,0.943,0.0,0.9318,0.9215,0.0,0.9201,0.9337,0.0,0.0,0.5678,0.3605,0.1967,0.191,0.196,0.2008,0.2008,0.2008,0.2009,0.2012,0.2012,0.2037,0.2097,0.2102,0.2127,0.2185,0.2188,0.2188,0.2188,0.2188,0.2188,0.2188,0.2188,0.2188,0.2188,0.2188,0.2188,0.2188,0.2188,0.2188,0.2188,0.2188,0.2188,0.2188,0.2188,0.2188,0.2188,0.2188,0.2188,0.2188,0.2188,0.2188,0.2188,0.2188,0.2188,0.2188,0.2188,0.2188,0.2188,0.2188,0.2188,0.2188,0.2188,0.2188,0.2188,0.2188,0.2188,0.2188,0.2188,0.2188,0.2188,0.2188,0.2188,0.2188,0.2188,0.2188,0.2188,0.2188,0.2188,0.2188,0.2188,0.2188,0.2188,0.2188,0.2188,0.2188,0.2188,0.2216,0.2212,0.2208,0.2273,0.2303,0.2295,0.2296,0.2296,0.2296,0.2296,0.0838,-0.2256,-0.2293,-0.3856,-0.699,-0.6934,-0.6936,-0.6986,-0.6819,-0.6831,0.9635,0.9683,0.9704,0.9704,0.9748,0.9775,0.9714,0.9669,0.9632,0.9687,0.0,0.0,0.0,0.0,0.0,0.0,0.5479,0.3992,0.3176,0.3099,0.2836,0.2099,0.2008,0.2008,0.2008,0.2008,0.2025,0.2035,0.2086,0.2115,0.2126,0.2179,0.2188,0.2188,0.2188,0.2188,0.2188,0.2188,0.2188,0.2188,0.2188,0.2188,0.2188,0.2188,0.2188,0.2188,0.2188,0.2188,0.2188,0.2188,0.2188,0.2188,0.2188,0.2188,0.2188,0.2188,0.2188,0.2188,0.2188,0.2188,0.2188,0.2188,0.2188,0.2188,0.2188,0.2188,0.2188,0.2188,0.2188,0.2188,0.2188,0.2188,0.2188,0.2188,0.2188,0.2188,0.2188,0.2188,0.2188,0.2188,0.2188,0.2188,0.2188,0.2188,0.2188,0.2188,0.2188,0.2188,0.2188,0.2188,0.2188,0.2188,0.2198,0.2197,0.221,0.2252,0.2284,0.2295,0.2296,0.1895,0.0984,0.0947,-0.051,-0.3638,-0.3711,-0.4767,-0.699,-0.6988,-0.6988,-0.6986,-0.686,-0.6868,0.9792,0.9792,0.9792,0.9792,0.9792,0.9792,0.9792,0.9744,0.9717,0.9778,0.9744,0.0,0.0,0.0,0.7908,0.7878,0.0,0.5552,0.4586,0.4141,0.3416,0.2161,0.2008,0.2008,0.2008,0.2008,0.1988,0.1985,0.2039,0.2097,0.2095,0.2159,0.2176,0.2176,0.2184,0.2188,0.2188,0.2188,0.2188,0.2188,0.2188,0.2188,0.2188,0.2188,0.2188,0.2188,0.2188,0.2188,0.2188,0.2188,0.2188,0.2188,0.2188,0.2188,0.2188,0.2188,0.2188,0.2188,0.2188,0.2188,0.2188,0.2188,0.2188,0.2188,0.2188,0.2188,0.2188,0.2188,0.2188,0.2188,0.2188,0.2188,0.2188,0.2188,0.2188,0.2188,0.2188,0.2188,0.2188,0.2188,0.2188,0.2188,0.2188,0.2188,0.2188,0.2188,0.2188,0.2188,0.2188,0.2188,0.2188,0.2188,0.2202,0.2201,0.221,0.2256,0.2288,0.2296,0.1895,0.1166,0.0036,-0.0401,-0.1929,-0.4657,-0.4693,-0.5459,-0.699,-0.699,-0.699,-0.6988,-0.7065,-0.7069,0.9792,0.9792,0.9792,0.9792,0.9792,0.9792,0.9792,0.99,0.9964,0.9819,0.9903,0.9961,0.9815,0.8745,0.7884,0.0,0.6721,0.0,0.0,0.4723,0.3416,0.2161,0.2008,0.2008,0.2008,0.2008,0.1988,0.1985,0.1988,0.2033,0.2096,0.2094,0.211,0.211,0.2172,0.2188,0.2188,0.2188,0.2188,0.2188,0.2188,0.2188,0.2188,0.2188,0.2188,0.2188,0.2188,0.2188,0.2188,0.2188,0.2188,0.2188,0.2188,0.2188,0.2188,0.2188,0.2188,0.2188,0.2188,0.2188,0.2188,0.2188,0.2188,0.2188,0.2188,0.2188,0.2188,0.2188,0.2188,0.2188,0.2188,0.2188,0.2188,0.2188,0.2188,0.2188,0.2188,0.2188,0.2188,0.2188,0.2188,0.2188,0.2188,0.2188,0.2188,0.2188,0.2188,0.2188,0.2188,0.2188,0.2188,0.2188,0.2217,0.2213,0.2208,0.2274,0.2304,0.2295,0.0911,0.0036,0.0,-0.142,-0.302,-0.4657,-0.4693,-0.5459,-0.699,-0.699,-0.699,-0.7027,-0.7383,-0.7383,0.9792,0.9863,0.994,0.994,0.994,0.994,0.994,0.9981,0.9974,0.9822,0.991,0.9971,0.9819,0.9454,0.9161,0.0,0.0,0.818,0.0,0.53,0.3416,0.2161,0.2008,0.2008,0.2008,0.2008,0.2011,0.199,0.2008,0.2023,0.2033,0.2063,0.2089,0.2108,0.2119,0.2168,0.2188,0.2188,0.2188,0.2188,0.2188,0.2188,0.2188,0.2188,0.2188,0.2188,0.2188,0.2188,0.2188,0.2188,0.2188,0.2188,0.2188,0.2188,0.2188,0.2188,0.2188,0.2188,0.2188,0.2188,0.2188,0.2188,0.2188,0.2188,0.2188,0.2188,0.2188,0.2188,0.2188,0.2188,0.2188,0.2188,0.2188,0.2188,0.2188,0.2188,0.2188,0.2188,0.2188,0.2188,0.2188,0.2188,0.2188,0.2188,0.2188,0.2188,0.2188,0.2188,0.2188,0.2188,0.2188,0.2188,0.2216,0.2204,0.2215,0.2208,0.1839,0.0887,0.0322,-0.0899,-0.2909,-0.355,-0.462,-0.6188,-0.6223,-0.6478,-0.699,-0.699,-0.699,-0.7027,-0.7421,-0.7387,0.9856,0.9944,1.0032,1.0086,1.0099,1.0099,1.0099,1.014,1.0133,1.0015,1.0072,1.0113,0.991,0.9869,0.9852,0.0,0.0,0.0,0.0,0.5988,0.4122,0.2836,0.2284,0.2008,0.2008,0.2008,0.2008,0.2008,0.1993,0.2003,0.2003,0.2032,0.2062,0.2092,0.2104,0.2124,0.2188,0.2188,0.2188,0.2188,0.2188,0.2188,0.2188,0.2188,0.2188,0.2188,0.2188,0.2188,0.2188,0.2188,0.2188,0.2188,0.2188,0.2188,0.2188,0.2188,0.2188,0.2188,0.2188,0.2188,0.2188,0.2188,0.2188,0.2188,0.2188,0.2188,0.219,0.2201,0.2197,0.2191,0.2201,0.2197,0.2188,0.2188,0.2188,0.2188,0.2188,0.2188,0.2188,0.2188,0.2188,0.2188,0.2188,0.2188,0.2188,0.2188,0.2188,0.2188,0.2188,0.2188,0.2188,0.2188,0.2206,0.2188,0.2199,0.2193,0.1581,0.0141,-0.0498,-0.1967,-0.4453,-0.518,-0.6044,-0.7129,-0.7037,-0.7037,-0.7131,-0.7035,-0.699,-0.699,-0.7278,-0.7242]},{"header":{"parameterUnit":"m.s-1","parameterCategory":1,"la1":30.6,"la2":29.2853,"lo1":-89.7004,"lo2":-87.6739,"dy":0.0162,"dx":0.0183,"nx":112,"ny":82,"refTime":"2023-05-29T06:00:00:Z","depth":0,"parameterNumber":3,"parameterNumberName":"V-component_of_WINDS"},"data":[0.0,0.0,0.0,0.0,0.0,0.0,0.0,0.0,0.0,0.0,0.0,0.0,0.0,0.0,0.0,0.0,0.0,0.0,0.0,0.0,0.0,0.0,0.0,0.0,0.0,0.0,0.0,0.0,0.0,0.0,0.0,0.0,0.0,0.0,0.0,0.0,0.0,0.0,0.0,0.0,0.0,0.0,0.0,0.0,0.0,0.0,0.0,0.0,0.0,0.0,0.0,0.0,0.0,0.0,0.0,0.0,0.0,0.0,0.0,0.0,0.0,0.0,0.0,0.0,0.0,0.0,0.0,0.0,0.0,0.0,0.0,0.0,0.0,0.0,0.0,0.0,0.0,0.0,0.0,0.0,0.0,0.0,0.0,0.0,0.0,0.0,0.0,0.0,0.0,0.0,4.2205,4.1381,4.4643,4.7178,4.7851,4.7043,4.5216,4.2196,0.0,0.0,0.0,0.0,0.0,0.0,0.0,0.0,0.0,0.0,0.0,0.0,0.0,0.0,0.0,0.0,0.0,0.0,0.0,0.0,0.0,0.0,0.0,0.0,0.0,0.0,0.0,0.0,0.0,0.0,0.0,0.0,0.0,0.0,0.0,0.0,0.0,0.0,0.0,0.0,0.0,0.0,0.0,0.0,0.0,0.0,0.0,0.0,0.0,0.0,0.0,0.0,0.0,0.0,0.0,0.0,0.0,0.0,0.0,0.0,0.0,0.0,0.0,0.0,0.0,0.0,0.0,0.0,0.0,0.0,0.0,0.0,0.0,0.0,0.0,0.0,0.0,0.0,0.0,0.0,0.0,0.0,0.0,0.0,0.0,0.0,0.0,0.0,0.0,0.0,0.0,0.0,0.0,0.0,0.0,0.0,0.0,0.0,0.0,0.0,0.0,0.0,0.0,0.0,4.1147,4.4479,4.6067,4.6947,4.7062,4.5605,4.4182,4.2989,0.0,0.0,0.0,0.0,0.0,0.0,0.0,0.0,0.0,0.0,0.0,0.0,0.0,0.0,0.0,0.0,0.0,0.0,0.0,0.0,0.0,0.0,0.0,0.0,0.0,0.0,0.0,0.0,0.0,0.0,0.0,0.0,0.0,0.0,0.0,0.0,0.0,0.0,0.0,0.0,0.0,0.0,0.0,0.0,0.0,0.0,0.0,0.0,0.0,0.0,0.0,0.0,0.0,0.0,0.0,0.0,0.0,0.0,0.0,0.0,0.0,0.0,0.0,0.0,0.0,0.0,0.0,0.0,0.0,0.0,0.0,0.0,0.0,0.0,0.0,0.0,0.0,0.0,0.0,0.0,0.0,0.0,0.0,0.0,0.0,0.0,0.0,0.0,0.0,0.0,0.0,0.0,0.0,0.0,0.0,0.0,0.0,0.0,0.0,0.0,0.0,0.0,0.0,4.045,4.1931,4.5244,4.5956,4.6201,4.6201,4.4624,4.3489,4.3124,4.1835,0.0,0.0,0.0,0.0,0.0,0.0,0.0,0.0,0.0,0.0,0.0,0.0,0.0,0.0,0.0,0.0,0.0,0.0,0.0,0.0,0.0,0.0,0.0,0.0,0.0,0.0,0.0,0.0,0.0,0.0,0.0,0.0,0.0,0.0,0.0,0.0,0.0,0.0,0.0,0.0,0.0,0.0,0.0,0.0,0.0,0.0,0.0,0.0,0.0,0.0,0.0,0.0,0.0,0.0,0.0,0.0,0.0,0.0,0.0,0.0,0.0,0.0,0.0,0.0,0.0,0.0,0.0,0.0,0.0,0.0,0.0,0.0,0.0,0.0,0.0,0.0,0.0,0.0,0.0,0.0,0.0,0.0,0.0,0.0,0.0,0.0,0.0,0.0,0.0,0.0,0.0,0.0,0.0,0.0,0.0,0.0,0.0,0.0,0.0,0.0,0.0,0.0,4.2562,4.322,4.5359,4.5594,4.5594,4.5594,4.407,4.3104,4.3104,4.1418,0.0,0.0,0.0,0.0,0.0,0.0,0.0,0.0,0.0,0.0,0.0,0.0,0.0,0.0,0.0,0.0,0.0,0.0,0.0,0.0,0.0,0.0,0.0,0.0,0.0,0.0,0.0,0.0,0.0,0.0,0.0,0.0,0.0,0.0,0.0,0.0,0.0,0.0,0.0,0.0,0.0,0.0,0.0,0.0,0.0,0.0,0.0,0.0,0.0,0.0,0.0,0.0,0.0,0.0,0.0,0.0,0.0,0.0,0.0,0.0,0.0,0.0,0.0,0.0,0.0,0.0,0.0,0.0,0.0,0.0,0.0,0.0,0.0,0.0,0.0,0.0,0.0,0.0,0.0,0.0,0.0,0.0,0.0,0.0,0.0,0.0,0.0,0.0,0.0,0.0,0.0,0.0,0.0,0.0,0.0,0.0,0.0,0.0,0.0,0.0,0.0,0.0,4.3201,4.4494,4.5494,4.5594,4.5594,4.5594,4.407,4.3104,4.3104,4.1284,0.0,0.0,0.0,0.0,0.0,0.0,0.0,0.0,0.0,0.0,0.0,0.0,0.0,0.0,0.0,0.0,0.0,0.0,0.0,0.0,0.0,0.0,0.0,0.0,0.0,0.0,0.0,0.0,0.0,0.0,0.0,0.0,0.0,0.0,0.0,0.0,0.0,0.0,0.0,0.0,0.0,0.0,0.0,0.0,0.0,0.0,0.0,0.0,0.0,0.0,0.0,0.0,0.0,0.0,0.0,0.0,0.0,0.0,0.0,0.0,0.0,0.0,0.0,0.0,0.0,0.0,0.0,0.0,0.0,0.0,0.0,0.0,0.0,0.0,0.0,0.0,0.0,0.0,0.0,0.0,0.0,0.0,0.0,0.0,0.0,0.0,0.0,0.0,0.0,0.0,0.0,0.0,0.0,0.0,0.0,0.0,0.0,0.0,0.0,0.0,0.0,0.0,4.3258,4.4628,4.5518,4.5594,4.5594,4.5594,4.4513,4.3558,4.2889,0.0,0.0,0.0,0.0,0.0,0.0,0.0,0.0,0.0,0.0,0.0,0.0,0.0,0.0,0.0,0.0,0.0,0.0,0.0,0.0,0.0,0.0,0.0,0.0,0.0,0.0,0.0,0.0,0.0,0.0,0.0,0.0,0.0,0.0,0.0,0.0,0.0,0.0,0.0,0.0,0.0,0.0,0.0,0.0,0.0,0.0,0.0,0.0,0.0,0.0,0.0,0.0,0.0,0.0,0.0,0.0,0.0,0.0,0.0,0.0,0.0,0.0,0.0,0.0,0.0,0.0,0.0,0.0,0.0,0.0,0.0,0.0,0.0,0.0,0.0,0.0,0.0,0.0,0.0,0.0,0.0,0.0,0.0,0.0,0.0,0.0,0.0,0.0,0.0,0.0,0.0,0.0,0.0,0.0,0.0,0.0,0.0,0.0,0.0,0.0,0.0,0.0,4.2139,4.3682,4.4936,4.5537,4.5594,4.5494,4.5205,4.4648,4.3884,4.289,0.0,0.0,0.0,0.0,0.0,0.0,0.0,0.0,0.0,0.0,0.0,0.0,0.0,0.0,0.0,0.0,0.0,0.0,0.0,0.0,0.0,0.0,0.0,0.0,0.0,0.0,0.0,0.0,0.0,0.0,0.0,0.0,0.0,0.0,0.0,0.0,0.0,0.0,0.0,0.0,0.0,0.0,0.0,0.0,0.0,0.0,0.0,0.0,0.0,0.0,0.0,0.0,0.0,0.0,0.0,0.0,0.0,0.0,0.0,0.0,0.0,0.0,0.0,0.0,0.0,0.0,0.0,0.0,0.0,0.0,0.0,0.0,0.0,0.0,0.0,0.0,0.0,0.0,0.0,0.0,0.0,0.0,0.0,0.0,0.0,0.0,0.0,0.0,0.0,0.0,0.0,0.0,0.0,0.0,0.0,0.0,0.0,0.0,0.0,0.0,0.0,0.0,4.3104,4.4571,4.5594,4.5594,4.5594,4.5244,4.4378,4.4316,4.3951,0.0,0.0,0.0,0.0,0.0,0.0,0.0,0.0,0.0,0.0,0.0,0.0,0.0,0.0,0.0,0.0,0.0,0.0,0.0,0.0,0.0,0.0,0.0,0.0,0.0,0.0,0.0,0.0,0.0,0.0,0.0,0.0,0.0,0.0,0.0,0.0,0.0,0.0,0.0,0.0,0.0,0.0,0.0,0.0,0.0,0.0,0.0,0.0,0.0,0.0,0.0,0.0,0.0,0.0,0.0,0.0,0.0,0.0,0.0,0.0,0.0,0.0,0.0,0.0,0.0,0.0,0.0,0.0,0.0,0.0,0.0,0.0,0.0,0.0,0.0,0.0,0.0,0.0,0.0,0.0,0.0,0.0,0.0,0.0,0.0,0.0,0.0,0.0,0.0,0.0,0.0,0.0,0.0,0.0,0.0,0.0,0.0,0.0,0.0,0.0,0.0,0.0,0.0,4.3951,4.4917,4.5594,4.5594,4.5594,4.5244,4.4378,4.4859,4.4215,4.1834,0.0,0.0,0.0,0.0,0.0,0.0,0.0,0.0,0.0,0.0,0.0,0.0,0.0,0.0,0.0,0.0,0.0,0.0,0.0,0.0,0.0,0.0,0.0,0.0,0.0,0.0,0.0,0.0,0.0,0.0,0.0,0.0,0.0,0.0,0.0,0.0,0.0,0.0,0.0,0.0,0.0,0.0,0.0,0.0,0.0,0.0,0.0,0.0,0.0,0.0,0.0,0.0,0.0,0.0,0.0,0.0,0.0,0.0,0.0,0.0,0.0,0.0,0.0,0.0,0.0,0.0,0.0,0.0,0.0,0.0,0.0,0.0,0.0,0.0,0.0,0.0,0.0,0.0,0.0,0.0,0.0,0.0,0.0,0.0,0.0,0.0,0.0,0.0,0.0,0.0,0.0,0.0,0.0,0.0,0.0,0.0,0.0,0.0,0.0,0.0,0.0,0.0,4.4297,4.5051,4.5594,4.5594,4.5594,4.5244,4.4378,4.4782,4.4171,4.2033,0.0,0.0,0.0,0.0,0.0,0.0,0.0,0.0,0.0,0.0,0.0,0.0,0.0,0.0,0.0,0.0,0.0,0.0,0.0,0.0,0.0,0.0,0.0,0.0,0.0,0.0,0.0,0.0,0.0,0.0,0.0,0.0,0.0,0.0,0.0,0.0,0.0,0.0,0.0,0.0,0.0,0.0,0.0,0.0,0.0,0.0,0.0,0.0,0.0,0.0,0.0,0.0,0.0,0.0,0.0,0.0,0.0,0.0,0.0,0.0,0.0,0.0,0.0,0.0,0.0,0.0,0.0,0.0,0.0,0.0,0.0,0.0,0.0,0.0,0.0,0.0,0.0,0.0,0.0,0.0,0.0,0.0,0.0,0.0,0.0,0.0,0.0,0.0,0.0,0.0,0.0,0.0,0.0,0.0,0.0,0.0,0.0,0.0,0.0,0.0,0.0,0.0,4.4297,4.4994,4.5518,4.5594,4.5594,4.5244,4.4378,4.4378,4.4004,4.3002,0.0,0.0,0.0,0.0,0.0,0.0,0.0,0.0,0.0,0.0,0.0,0.0,0.0,0.0,0.0,0.0,0.0,0.0,0.0,0.0,0.0,0.0,0.0,0.0,0.0,0.0,0.0,0.0,0.0,0.0,0.0,0.0,0.0,0.0,0.0,0.0,0.0,0.0,0.0,0.0,0.0,0.0,0.0,0.0,0.0,0.0,0.0,0.0,0.0,0.0,0.0,0.0,0.0,0.0,0.0,0.0,0.0,0.0,0.0,0.0,3.9398,3.9101,0.0,0.0,0.0,0.0,0.0,0.0,0.0,0.0,0.0,0.0,0.0,0.0,0.0,0.0,0.0,0.0,0.0,0.0,0.0,0.0,0.0,0.0,0.0,0.0,0.0,0.0,0.0,0.0,0.0,0.0,0.0,0.0,0.0,0.0,0.0,0.0,0.0,0.0,0.0,0.0,4.422,4.4455,4.484,4.5537,4.5594,4.5244,4.4378,4.4936,4.4298,4.1915,4.2306,0.0,0.0,0.0,0.0,0.0,0.0,0.0,0.0,0.0,0.0,0.0,0.0,0.0,0.0,0.0,0.0,0.0,0.0,0.0,0.0,0.0,0.0,0.0,0.0,0.0,0.0,0.0,0.0,0.0,0.0,0.0,0.0,0.0,0.0,0.0,0.0,0.0,0.0,0.0,0.0,0.0,0.0,0.0,0.0,0.0,0.0,0.0,0.0,0.0,0.0,0.0,0.0,0.0,0.0,0.0,0.0,0.0,0.0,0.0,4.0427,4.0016,0.0,0.0,0.0,0.0,0.0,0.0,0.0,0.0,0.0,0.0,0.0,0.0,0.0,0.0,0.0,0.0,0.0,0.0,0.0,0.0,0.0,0.0,0.0,0.0,0.0,0.0,0.0,0.0,0.0,0.0,0.0,0.0,0.0,0.0,0.0,0.0,0.0,0.0,0.0,0.0,4.4821,4.4917,4.509,4.5556,4.5594,4.5417,4.4955,4.4955,4.4359,4.2893,4.2728,0.0,0.0,0.0,0.0,0.0,0.0,0.0,0.0,0.0,0.0,0.0,0.0,0.0,0.0,0.0,0.0,0.0,0.0,0.0,0.0,0.0,0.0,0.0,0.0,0.0,0.0,0.0,0.0,0.0,0.0,0.0,0.0,0.0,0.0,0.0,0.0,0.0,0.0,0.0,0.0,0.0,0.0,0.0,0.0,0.0,0.0,0.0,0.0,0.0,0.0,0.0,0.0,0.0,4.2686,4.3355,4.4005,4.4153,4.4302,4.4321,4.2341,4.1719,4.2064,4.1192,0.0,0.0,0.0,0.0,0.0,0.0,0.0,0.0,0.0,0.0,0.0,0.0,0.0,0.0,0.0,0.0,0.0,0.0,0.0,0.0,0.0,0.0,4.4586,4.3912,4.4374,4.4739,4.3932,0.0,0.0,0.0,0.0,0.0,0.0,0.0,0.0,0.0,0.0,0.0,4.5494,4.5475,4.5436,4.5575,4.5594,4.5594,4.5594,4.509,4.4624,4.4316,4.3603,4.3058,0.0,0.0,0.0,0.0,0.0,0.0,0.0,0.0,0.0,0.0,0.0,0.0,0.0,0.0,0.0,0.0,0.0,0.0,0.0,0.0,0.0,0.0,0.0,0.0,0.0,0.0,0.0,0.0,0.0,0.0,0.0,0.0,3.8706,3.8736,0.0,0.0,0.0,0.0,0.0,0.0,0.0,0.0,0.0,0.0,0.0,0.0,0.0,4.2314,4.2314,4.3113,4.3578,4.367,4.3782,4.3893,4.4023,4.4785,4.5517,4.6141,4.5825,0.0,4.2679,4.2541,0.0,0.0,0.0,0.0,0.0,0.0,0.0,0.0,0.0,0.0,0.0,0.0,0.0,0.0,0.0,0.0,0.0,0.0,0.0,0.0,0.0,0.0,4.6524,4.6428,4.7005,4.737,4.6562,4.522,4.4143,4.4143,4.4143,4.3912,0.0,0.0,0.0,0.0,0.0,0.0,4.5494,4.4936,4.4763,4.5518,4.5594,4.5594,4.5594,4.6182,4.5908,4.4393,4.4876,4.4469,4.278,4.2555,0.0,0.0,0.0,0.0,0.0,0.0,0.0,0.0,0.0,0.0,0.0,0.0,0.0,0.0,0.0,0.0,0.0,0.0,0.0,0.0,0.0,0.0,0.0,0.0,0.0,0.0,0.0,0.0,0.0,3.8716,3.9132,3.8847,3.9194,3.9338,0.0,0.0,0.0,0.0,0.0,0.0,0.0,0.0,0.0,4.2407,4.3113,4.3708,4.4191,4.5008,4.6104,4.7497,4.7943,4.863,4.9522,4.9893,5.0265,5.0599,5.0599,4.9726,4.8071,4.4968,4.4223,4.4833,0.0,0.0,0.0,0.0,4.3926,4.448,4.57,4.6104,4.6101,4.6117,0.0,0.0,0.0,0.0,0.0,0.0,0.0,4.5874,4.6317,4.7375,4.8317,4.8317,4.8952,4.9336,4.849,4.7702,4.6744,4.5302,4.5032,4.4763,4.3912,4.4066,0.0,0.0,0.0,4.4609,4.5494,4.5263,4.5186,4.5556,4.5594,4.5594,4.5594,4.5956,4.584,4.5071,4.5398,4.5213,4.4364,4.3757,4.3325,0.0,0.0,0.0,0.0,0.0,0.0,0.0,0.0,0.0,0.0,0.0,0.0,0.0,0.0,0.0,0.0,0.0,0.0,0.0,0.0,0.0,0.0,0.0,0.0,0.0,0.0,0.0,0.0,3.9305,3.9803,3.8984,3.9782,4.0052,0.0,0.0,0.0,0.0,0.0,0.0,4.2508,4.3503,4.4413,4.5231,4.5677,4.629,4.7163,4.7961,4.928,5.1138,5.1732,5.2642,5.3813,5.4007,5.4167,5.4252,5.4252,5.4129,5.3527,4.8397,4.7137,4.8173,4.5403,4.4672,4.5317,4.6256,4.6976,4.7735,4.9468,4.9937,4.969,4.948,4.8851,4.7985,4.6898,0.0,0.0,0.0,0.0,4.7735,4.8548,4.9394,5.0048,5.0048,5.0702,5.1111,5.0221,5.0048,4.9298,4.6725,4.6071,4.5725,4.5086,4.497,0.0,4.497,4.5143,4.5509,4.6167,4.6052,4.5936,4.5936,4.5725,4.5594,4.5594,4.5802,4.584,4.5614,4.5802,4.5821,4.5614,4.4829,4.4384,4.431,0.0,0.0,0.0,0.0,0.0,0.0,0.0,0.0,0.0,0.0,0.0,0.0,0.0,0.0,0.0,0.0,0.0,0.0,0.0,0.0,0.0,0.0,0.0,0.0,0.0,0.0,0.0,0.0,0.0,3.9291,4.0535,0.0,0.0,0.0,0.0,4.143,4.2927,4.4191,4.5072,4.6605,4.7813,4.863,5.019,5.1416,5.2215,5.3023,5.3487,5.3617,5.3664,5.372,5.3822,5.4583,5.5147,5.5506,5.5506,5.6284,5.7213,5.3127,5.105,5.0387,4.9762,4.9561,4.9701,5.0783,5.1197,5.1398,5.2581,5.2451,5.1894,5.2678,5.2351,5.1351,4.9702,4.9202,0.0,0.0,4.926,4.9471,5.0341,5.1164,5.1769,5.1769,5.2447,5.2832,5.1967,5.1769,5.1024,4.8466,4.7351,4.6812,4.6774,0.0,4.6774,4.6774,4.7428,4.7928,4.7966,4.7312,4.6831,4.6831,4.6086,4.5594,4.5594,4.6355,4.649,4.5648,4.6374,4.6471,4.5629,4.5547,4.5395,4.513,4.51,0.0,0.0,0.0,0.0,0.0,0.0,0.0,0.0,0.0,0.0,0.0,0.0,0.0,0.0,0.0,0.0,0.0,0.0,0.0,0.0,0.0,0.0,0.0,0.0,0.0,0.0,0.0,0.0,4.2073,4.364,0.0,4.3912,4.3678,4.4106,4.5435,4.6531,4.7757,4.915,5.0265,5.1231,5.2029,5.2633,5.333,5.4137,5.4434,5.5103,5.619,5.619,5.657,5.7286,5.7576,5.7919,5.8301,5.8301,5.8602,5.8946,5.7171,5.544,5.3753,5.2504,5.2027,5.2129,5.3075,5.3755,5.4342,5.5316,5.5068,5.4126,5.2794,5.2159,5.1697,5.0567,5.0245,5.0341,5.0851,5.1005,5.1216,5.2087,5.2933,5.3703,5.4222,5.4587,5.4722,5.4414,5.3933,5.3145,5.1659,4.9837,4.8336,4.7774,4.7678,4.7678,4.7678,4.7928,4.8101,4.8101,4.8336,4.8298,4.7735,4.7894,4.7822,4.7259,4.7024,4.6774,4.6471,4.6201,4.5917,4.5614,4.5594,4.5559,4.5452,4.5467,4.5237,0.0,0.0,0.0,0.0,0.0,0.0,0.0,0.0,0.0,0.0,0.0,0.0,0.0,0.0,0.0,0.0,0.0,0.0,0.0,0.0,0.0,0.0,0.0,0.0,0.0,4.3332,4.488,4.4613,4.6681,4.772,4.6605,4.6513,4.6958,4.8017,4.9373,5.0748,5.2141,5.3255,5.4221,5.501,5.5057,5.5419,5.6236,5.6255,5.6812,5.7899,5.7899,5.8363,5.9206,5.9206,5.9475,5.9965,5.9965,6.0026,6.0108,5.9744,5.8743,5.7242,5.5588,5.4909,5.5025,5.5876,5.6511,5.7049,5.7632,5.7478,5.6665,5.4698,5.4063,5.3851,5.2727,5.2381,5.2496,5.3029,5.3178,5.3447,5.4621,5.5357,5.5915,5.6453,5.6588,5.6492,5.6209,5.5728,5.5016,5.3857,5.1798,4.9971,4.9125,4.874,4.8432,4.8139,4.8355,4.8548,4.8548,4.9048,4.9183,4.8606,4.8798,4.874,4.8139,4.7601,4.7293,4.7293,4.6759,4.6436,4.6436,4.6436,4.6436,4.6436,4.6436,4.6215,4.5786,0.0,0.0,0.0,0.0,0.0,0.0,0.0,0.0,0.0,0.0,0.0,0.0,0.0,0.0,0.0,0.0,0.0,0.0,0.0,0.0,0.0,0.0,0.0,4.4042,4.6197,4.7497,4.6735,4.9485,5.0209,4.707,4.8147,4.9094,4.916,5.1398,5.3097,5.3914,5.5484,5.6729,5.7509,5.7555,5.7945,5.8725,5.8743,5.8735,5.8764,5.8727,5.8897,5.9243,5.9271,5.9656,6.0314,6.0346,6.0527,6.0806,6.0806,6.0806,6.0633,5.9011,5.8377,5.8467,5.9261,5.955,5.955,5.9511,5.9511,5.9396,5.8569,5.8313,5.803,5.6299,5.5785,5.5785,5.5785,5.5785,5.6165,5.7852,5.8294,5.8313,5.8333,5.8313,5.8088,5.7247,5.7036,5.6516,5.49,5.3197,5.1755,5.0919,5.0072,4.9221,4.8389,4.8952,0.0,4.9471,4.9471,4.9471,4.9433,4.8702,4.8216,4.8178,4.8159,4.8139,4.8139,4.812,4.8101,4.8101,4.8101,4.8101,4.8101,4.8096,4.7962,4.769,0.0,0.0,0.0,0.0,0.0,0.0,0.0,0.0,0.0,0.0,0.0,0.0,0.0,0.0,0.0,0.0,0.0,0.0,0.0,0.0,0.0,4.5509,4.5602,4.5026,4.7534,4.9596,5.0005,5.1361,5.2382,5.2633,5.254,5.32,5.4992,5.5772,5.6496,5.7313,5.7777,5.813,5.8353,5.8929,5.9356,5.956,5.956,5.9727,5.9991,5.9364,5.9387,6.0019,6.0597,6.08,6.0698,6.1338,6.1298,6.0806,6.0806,6.0806,6.0748,6.0281,6.0108,6.0146,6.0358,6.0435,6.0339,5.9723,5.9915,6.0204,5.8775,5.8679,5.8973,5.7915,5.7588,5.7588,5.7588,5.7588,5.7703,5.8179,5.8294,5.8454,5.9031,5.8723,5.8396,5.8742,5.7863,5.6863,5.6401,5.542,5.4203,5.276,5.2318,5.2068,5.1832,5.1467,5.1216,5.1216,5.1216,5.0986,5.0399,5.0644,5.062,5.0034,4.9413,4.9048,4.9048,4.8452,4.8101,4.8101,4.8101,4.8101,4.8101,4.7903,4.7774,0.0,0.0,0.0,0.0,0.0,0.0,0.0,0.0,0.0,0.0,0.0,0.0,0.0,0.0,0.0,0.0,0.0,0.0,0.0,0.0,0.0,0.0,4.7943,4.889,4.8426,5.0265,5.1964,5.281,5.424,5.5261,5.5512,5.5419,5.5819,5.6905,5.7438,5.7909,5.8394,5.8895,5.9328,5.9656,5.9787,6.0209,6.0903,6.0537,6.0652,6.1249,6.0749,6.0803,6.1351,6.1454,6.1631,6.1858,6.2037,6.1806,6.1345,6.1345,6.1133,6.0806,0.0,0.0,0.0,0.0,6.0806,6.0729,6.0223,6.0377,6.0633,5.9665,5.9665,5.9896,5.9069,5.88,5.88,5.88,5.88,5.8896,5.9242,5.9358,5.9473,5.9935,5.9685,5.9377,5.9473,5.8723,5.7959,5.7613,5.6843,0.0,5.4953,5.4203,5.3626,5.3255,5.2774,5.2447,5.2447,5.2447,5.212,5.1298,5.162,5.1563,5.0765,5.0245,0.0,0.0,0.0,4.9183,4.9183,4.9183,0.0,0.0,0.0,4.8951,4.8951,4.9643,0.0,0.0,4.8772,4.8743,0.0,0.0,0.0,0.0,0.0,0.0,0.0,0.0,0.0,0.0,0.0,0.0,0.0,0.0,0.0,0.0,5.0302,5.281,5.2995,5.371,5.4453,5.5066,5.709,5.7899,5.658,5.7082,5.7269,5.6669,5.7557,5.8153,5.8198,5.9303,0.0,0.0,0.0,6.0933,6.2418,6.1662,6.1679,6.2496,6.2401,6.2531,6.2835,6.2153,6.2386,6.3275,6.2647,6.2326,6.223,6.223,6.1729,6.0941,6.0845,6.0806,6.0806,6.0806,6.0806,6.0806,6.0806,0.0,0.0,6.0806,6.0806,6.0666,5.9877,5.9646,5.9646,5.9646,5.9646,5.9819,6.0589,6.0806,6.0806,6.0806,6.0806,6.0589,5.9819,5.9569,5.93,5.8563,5.7742,5.7113,5.7022,5.5689,5.4376,5.3606,5.339,5.3351,5.3351,5.3255,5.289,5.214,5.1962,0.0,5.0899,5.0745,5.0707,5.0707,5.0707,5.0745,5.0822,5.0842,5.088,5.0976,5.0976,5.0976,5.0976,5.1697,5.2038,5.2014,5.0778,5.0729,0.0,0.0,0.0,0.0,0.0,0.0,0.0,0.0,0.0,0.0,0.0,0.0,0.0,0.0,0.0,5.0859,5.2624,5.4035,5.5391,5.6283,5.6589,5.6116,5.6469,5.6896,5.7249,5.7416,5.7818,5.8587,5.885,5.9107,5.9429,6.0278,6.0839,6.099,6.2166,6.2943,6.3255,6.3103,6.3237,6.3654,6.3001,0.0,6.322,6.3764,6.3732,6.3333,6.3878,6.3724,6.3064,6.3064,6.2589,6.1787,6.1075,6.0806,6.0806,6.0806,6.0806,6.0806,6.0806,6.0806,6.0806,6.0806,6.0806,6.0762,6.0589,6.055,0.0,6.055,6.055,6.0589,6.0768,6.0806,6.0806,6.0806,6.0806,6.0748,6.0569,5.9992,5.9454,5.93,5.8607,5.7838,5.7113,5.6151,5.542,5.5241,5.4664,5.4241,5.4241,5.3626,5.314,5.2967,5.2313,5.1851,5.1678,5.1068,5.0707,5.0707,5.0707,5.0996,5.164,5.1678,5.2005,5.2702,5.2722,5.2722,5.2722,5.287,5.2947,5.2947,5.2672,5.2656,0.0,0.0,0.0,0.0,0.0,0.0,0.0,0.0,0.0,0.0,0.0,4.5287,4.733,0.0,5.0822,5.2865,5.4593,5.5999,5.7004,5.7845,5.8051,5.7257,5.7509,5.7987,5.8586,5.8661,5.8884,5.9466,5.9654,6.0004,6.0613,6.1222,6.1932,6.278,6.3186,6.3823,6.4691,6.4263,6.4355,6.4949,6.4541,6.4442,6.4609,6.4609,6.4609,6.4609,6.4609,6.4359,6.391,6.3487,6.3064,6.2627,6.1787,6.1172,6.0806,6.0806,6.0806,6.0806,6.0806,6.0806,6.0806,6.0806,6.0806,6.0806,6.0806,6.0806,6.0806,6.0806,6.0806,6.0806,6.0806,6.0806,6.0806,6.0806,6.0806,6.0806,6.0806,6.0454,6.0146,6.0146,5.9473,5.8761,5.8319,5.755,5.6703,5.5824,5.5362,5.5112,5.5112,5.4722,5.4453,5.4453,5.4068,5.3645,5.3236,5.2433,5.1952,5.1952,5.1952,5.2125,5.2524,5.2544,5.2755,5.3197,5.3197,5.3197,5.3197,5.3645,5.3857,5.3857,5.426,5.4241,0.0,0.0,0.0,0.0,0.0,0.0,0.0,4.2674,4.4265,4.6104,4.7516,4.8909,5.0525,5.2577,5.4148,5.4549,5.642,5.7946,5.8302,5.8911,5.9089,5.8518,5.8965,5.945,5.9766,5.995,6.005,6.0142,6.0539,6.1093,6.1806,6.233,6.3211,6.457,6.4083,6.4474,6.5878,6.5205,6.5205,6.5904,6.5904,6.5904,6.5878,6.5166,6.5243,6.5865,6.5166,6.4859,6.4782,6.391,6.3545,6.3468,6.2647,6.1806,6.1037,6.0864,6.0806,6.0806,6.0806,6.0806,6.0806,6.0806,6.0806,6.0806,6.0806,6.0806,6.0806,6.0806,6.0806,6.0806,6.0806,6.0806,6.0806,6.0806,6.0806,6.0806,6.0806,6.0806,6.0806,6.0806,6.0223,5.9704,5.9531,5.8954,5.8011,5.6434,5.6055,5.5958,5.5958,5.5805,5.5708,5.5708,5.5555,5.5208,5.4549,5.3703,5.3274,5.3433,5.3294,5.3274,5.3453,5.3453,5.353,5.3683,5.3683,5.3683,5.3683,5.4395,5.4722,5.4741,5.5401,5.5343,3.9348,4.0189,4.1046,4.1315,4.2002,4.3353,0.0,4.6997,4.7831,5.0228,5.0859,5.1472,5.3079,5.4193,5.5452,5.7248,5.8362,5.9148,5.9532,5.9676,5.9809,6.0012,5.9861,5.975,5.9809,6.0451,6.0979,6.1287,6.2063,6.2694,6.3085,6.3878,6.4416,6.4589,6.5263,6.5705,6.5904,6.5801,6.5801,6.5904,6.5904,6.5904,6.5904,6.5807,6.5801,6.5878,6.5807,6.5743,6.5686,6.4801,6.4455,6.4378,6.3506,6.2666,6.1864,6.1095,6.0806,6.0806,6.0806,6.0806,6.0806,6.0806,6.0806,6.0806,6.0806,6.0806,6.0806,6.0806,6.0806,6.0806,6.0806,6.0806,6.0806,6.0806,6.0806,6.0806,6.0806,6.0806,6.0806,6.0806,6.0723,6.0416,5.9627,5.9435,5.9069,5.814,5.7343,5.6843,5.6843,5.6189,5.5708,5.5708,5.5054,5.4607,5.4511,5.3703,5.353,5.4318,5.3626,5.3549,5.4318,5.4357,5.4684,5.542,5.542,5.542,5.542,5.5516,5.5574,5.5574,5.567,5.5651,4.1597,4.2376,4.309,4.4175,4.5417,4.6847,4.8723,4.9875,5.0989,5.2494,5.3571,5.4611,5.5735,5.6759,5.7726,5.8549,5.9565,6.0211,6.0118,6.0487,6.0547,5.9914,6.0156,6.0388,6.0388,6.0694,6.1151,6.1812,6.2196,6.2881,6.4,6.4397,6.4839,6.534,6.5705,6.5904,6.5904,6.5904,6.5904,6.5904,6.5904,6.5904,6.5904,6.5904,6.5904,6.5904,6.5904,6.5904,6.5859,6.5513,6.5359,6.5263,6.4397,6.3858,6.3378,6.2056,6.1248,6.0806,6.0806,6.0806,6.0806,6.0806,6.0806,6.0806,6.0806,6.0806,6.0806,6.0806,6.0806,6.0806,6.0806,6.0806,6.0806,6.0806,6.0806,6.0806,6.0806,6.0806,6.0806,6.0806,6.0806,6.0691,6.0319,6.0262,6.0146,5.98,5.8607,5.7574,5.7074,5.667,5.6459,5.6459,5.6151,5.5958,5.5958,5.5612,5.5343,5.5208,5.5324,5.5343,5.5208,5.5208,5.5362,5.5689,5.5708,5.5708,5.5708,5.5708,5.5708,5.5708,5.5708,5.5708,4.3285,4.4352,4.5361,4.681,4.8556,5.0209,5.1286,5.2605,5.3905,5.4936,5.6116,5.7168,5.7846,5.8642,5.9336,5.9767,6.0559,6.1054,6.0823,6.1093,6.0859,5.9642,5.9858,6.0204,6.0416,6.0883,6.1518,6.2364,6.2653,6.3422,6.4878,6.4955,6.5243,6.5878,6.5904,6.5904,6.5904,6.5904,6.5904,6.5904,6.5904,6.5904,6.5904,6.5904,6.5904,6.5904,6.5904,6.5904,6.5878,6.5628,6.5686,6.5788,6.4686,6.4243,6.407,6.2633,6.1691,6.1114,6.0883,6.0806,6.0806,6.0806,6.0806,6.0806,6.0806,6.0806,6.0806,6.0806,6.0806,6.0806,6.0806,6.0806,6.0806,6.0806,6.0806,6.0806,6.0806,6.0806,6.0806,6.0806,6.0806,6.0806,6.0806,6.0806,6.0806,6.0806,5.9762,5.8665,5.7805,5.7286,5.7003,5.7003,5.6786,5.6747,5.6983,5.6786,5.6478,5.6074,5.642,5.6362,5.5728,5.5708,5.5708,5.5708,5.5708,5.5708,5.5708,5.5708,5.5708,5.5708,5.5708,5.5824,4.3748,4.5743,4.7794,4.863,5.0673,5.2902,5.449,5.5549,5.6636,5.8223,5.8595,5.8728,5.9084,5.9187,5.9694,6.1197,6.1452,6.1621,6.1989,6.1333,6.0487,5.9608,5.8833,5.8684,5.9454,6.1075,6.2403,6.3198,6.4051,6.4916,6.5801,6.5865,6.5859,6.5904,6.5904,6.5904,6.5904,6.5904,6.5904,6.5904,6.5904,6.5904,6.5904,6.5904,6.5904,6.5904,6.5904,6.5904,6.582,6.4993,6.5147,6.5731,6.4006,6.3333,6.3237,6.2403,6.2076,6.1941,6.1095,6.0806,6.0806,6.0806,6.0806,6.0806,6.0806,6.0806,6.0806,6.0806,6.0806,6.0806,6.0806,6.0806,6.0806,6.0806,6.0806,6.0806,6.0806,6.0806,6.0806,6.0806,6.0806,6.0806,6.0806,6.0806,6.0806,6.0806,6.0768,6.0416,5.9531,5.8017,5.7003,5.7003,5.6247,5.6074,5.6926,5.6228,5.6093,5.6907,5.6189,5.5728,5.5708,5.5708,5.5708,5.5708,5.5708,5.5708,5.5708,5.5708,5.5708,5.5708,5.5708,5.6151,4.6085,4.8277,5.0599,5.2484,5.4017,5.5484,5.709,5.7685,5.8037,5.8595,5.7852,5.7202,5.7491,5.7296,5.7493,5.8765,6.0616,6.1748,6.1294,6.1935,6.1525,5.9006,5.9454,5.9627,5.88,5.9723,6.0973,6.2403,6.3281,6.4122,6.4993,6.559,6.5904,6.5904,6.5904,6.5904,6.5904,6.5904,6.5904,6.5904,6.5904,6.5904,6.5904,6.5904,6.5904,6.5904,6.5904,6.5904,6.5878,6.557,6.5282,6.4974,6.4397,6.3814,6.3198,6.2403,6.2095,6.1979,6.1095,6.0806,6.0806,6.0806,6.0806,6.0806,6.0806,6.0806,6.0806,6.0806,6.0806,6.0806,6.0806,6.0806,6.0806,6.0806,6.0806,6.0827,6.0902,6.0933,6.0959,6.1055,6.1062,6.1037,6.0958,6.0933,6.0906,6.081,6.03,5.9838,5.955,5.8531,5.7646,5.706,5.6747,5.6439,5.6151,5.6401,5.6439,5.6151,5.6401,5.6305,5.5728,5.5708,5.5708,5.5708,5.5708,5.5708,5.5708,5.5708,5.5708,5.5708,5.6285,5.6709,4.8853,5.1026,5.32,5.5363,5.6533,5.7425,5.8465,5.8706,5.8562,5.808,5.7169,5.6398,5.6206,5.5925,5.6207,5.7666,5.9521,6.0864,6.1229,6.1666,6.1256,5.9415,5.9627,5.9608,5.8819,5.9204,6.0223,6.196,6.2858,6.3679,6.4551,6.5436,6.5904,6.5904,6.6192,6.6192,6.5904,6.6192,6.6192,6.5904,6.5904,6.5904,6.5904,6.5904,6.5904,6.5904,6.5904,6.5904,6.5904,6.5904,6.5397,6.457,6.4256,6.3628,6.2762,6.1941,6.1633,6.1556,6.0998,6.0806,6.0806,6.0806,6.0806,6.0806,6.0806,6.0806,6.0806,6.0806,6.0806,6.0806,6.0806,6.085,6.0872,6.0872,6.0917,6.0974,6.1059,6.1066,6.1099,6.1188,6.1209,6.1177,6.1087,6.1028,6.0949,6.0821,6.0319,5.9954,5.9954,5.9242,5.8511,5.7959,5.7363,5.6766,5.6209,5.6382,5.6305,5.5747,5.6228,5.6285,5.5728,5.5708,5.5708,5.5708,5.5708,5.5708,5.5708,5.6016,5.6151,5.6189,5.7055,5.7613,5.1844,5.3896,5.5512,5.7146,5.813,5.8687,5.865,5.8615,5.8226,5.6902,5.6552,5.6185,5.5238,5.5065,5.5759,5.7831,5.8313,5.93,6.1749,6.0742,6.0031,6.0787,5.9492,5.8838,5.9569,5.9665,6.0377,6.2037,6.2878,6.3679,6.4551,6.5474,6.5936,6.5904,6.6731,6.6769,6.5904,6.6654,6.6654,6.5904,6.5904,6.5904,6.5904,6.5904,6.5904,6.5904,6.5904,6.5904,6.5904,6.5904,6.5397,6.4512,6.3641,6.282,6.1979,6.1114,6.0806,6.0806,6.0806,6.0825,6.0864,6.0864,6.0864,6.0864,6.0921,6.0864,6.0806,6.0856,6.0843,6.0804,6.0821,6.0908,6.1016,6.1016,6.1116,6.1193,6.122,6.122,6.1223,6.121,6.1226,6.122,6.122,6.1103,6.0969,6.0836,6.081,6.0818,6.0806,6.0089,5.955,5.9492,5.8074,5.7118,5.7074,5.6266,5.5766,5.5766,5.5728,5.5708,5.5708,5.5708,5.5708,5.5708,5.5708,5.5728,5.5766,5.6593,5.7016,5.7093,5.7953,5.8775,5.3673,5.5605,5.7109,5.813,5.8539,5.8539,5.7945,5.7496,5.694,5.6009,5.4484,5.3345,5.334,5.3378,5.4068,5.6036,5.8492,6.0614,6.1922,6.2781,6.2916,6.1883,6.1916,6.1871,6.1479,6.1973,6.2525,6.2948,6.3179,6.3679,6.4551,6.5994,6.6519,6.5923,6.7321,6.7378,6.5904,6.6096,6.6096,6.5904,6.5904,6.5904,6.5904,6.5904,6.5904,6.5904,6.5904,6.5904,6.5904,6.5904,6.5397,6.4512,6.3641,6.282,6.1979,6.1114,6.0806,6.0806,6.0806,6.1229,6.1768,6.1768,6.1768,6.1883,6.2474,6.1781,6.0956,6.1704,6.1441,6.0978,6.107,6.1116,6.1147,6.1147,6.1181,6.124,6.1393,6.1412,6.1454,6.1543,6.1482,6.1412,6.1412,6.1269,6.1136,6.1092,6.1001,6.0902,6.0804,6.0614,6.0223,5.9569,5.9127,5.8627,5.8011,5.717,5.667,5.667,5.6055,5.5708,5.5708,5.5708,5.5708,5.5708,5.5708,5.6016,5.667,5.6887,5.7324,5.7992,5.8819,5.93,5.6385,5.7573,5.8223,5.9022,5.9074,5.8618,5.7423,5.7031,5.6415,5.4646,5.3286,5.2309,5.1894,5.2135,5.3001,5.4879,5.7401,5.9825,6.1826,6.2903,6.3435,6.323,6.3262,6.3121,6.2666,6.3051,6.3468,6.3833,6.4224,6.4647,6.5147,6.6397,6.7071,6.6994,6.7532,6.7378,6.6442,6.6423,6.625,6.5904,6.5904,6.5904,6.5904,6.5904,6.5904,6.5904,6.5904,6.5904,6.5904,6.5904,6.5397,6.4512,6.3641,6.282,6.1979,6.1114,6.0806,6.0845,6.1248,6.1922,6.2512,6.1768,6.1537,6.1691,6.2512,6.2151,6.1655,6.2602,6.2285,6.1674,6.1751,6.1548,6.1339,6.1339,6.1379,6.1449,6.1557,6.1588,6.1618,6.1693,6.1634,6.1576,6.1517,6.1401,6.1279,6.1124,6.1051,6.0944,6.0816,6.0806,6.0614,6.0127,5.9723,5.916,5.8371,5.7497,5.6843,5.6439,5.5978,5.5708,5.5708,5.5708,5.5882,5.6266,5.6266,5.6709,5.7574,5.794,5.8393,5.8971,5.978,6.0179,5.9291,5.9543,5.9126,5.9858,5.9494,5.8537,5.6961,5.6595,5.5829,5.3099,5.2468,5.2079,5.0917,5.1356,5.2505,5.4357,5.6074,5.8363,6.1787,6.2364,6.3018,6.4589,6.4109,6.3679,6.3795,6.3795,6.416,6.5051,6.5917,6.6308,6.6077,6.6942,6.784,6.8699,6.7782,6.7269,6.7269,6.7154,6.6692,6.5904,6.5904,6.5904,6.5904,6.5904,6.5904,6.5904,6.5904,6.5904,6.5904,6.5904,6.5455,6.4686,6.3814,6.2974,6.2178,6.1443,6.1108,6.1133,6.2014,6.2771,6.312,6.1612,6.1204,6.1447,6.2213,6.2452,6.266,6.3581,6.3274,6.2685,6.2585,6.2124,6.1706,6.1706,6.1699,6.1758,6.1992,6.1953,6.1875,6.1875,6.1777,6.1664,6.1543,6.1528,6.1428,6.1139,6.1072,6.1007,6.0872,6.0827,6.0806,6.0806,6.0127,5.9396,5.8684,5.7824,5.6959,5.6093,5.5939,5.5862,5.5862,5.5862,5.6285,5.7151,5.717,5.7594,5.8467,5.9193,5.9679,5.9977,6.0696,6.1087,6.0777,6.0809,6.0294,6.0717,5.916,5.7305,5.6349,5.4757,5.3143,5.1953,5.1363,5.0984,5.0741,5.1356,5.2697,5.5107,5.6934,5.9261,6.2621,6.3705,6.4532,6.5551,6.5532,6.5705,6.6378,6.6436,6.6801,6.768,6.8552,6.8417,6.6981,6.8398,6.9629,7.0437,6.8975,6.816,6.816,6.7455,6.6692,6.5904,6.5904,6.5904,6.5904,6.5904,6.5904,6.5904,6.5904,6.5904,6.5904,6.5904,6.5801,6.559,6.4705,6.3852,6.3094,6.3115,6.267,6.2172,6.3152,6.3608,6.3613,6.305,6.3352,6.3991,6.4259,6.3883,6.3601,6.4704,6.4391,6.3612,6.306,6.2831,6.274,6.274,6.2201,6.209,6.3537,6.3282,6.2774,6.2774,6.2187,6.1696,6.1667,6.1666,6.1658,6.1595,6.1471,6.133,6.1147,6.0948,6.0806,6.0806,6.0666,6.0512,6.0377,5.9569,5.8723,5.7896,5.717,5.6766,5.6766,5.6766,5.717,5.8069,5.8069,5.8473,5.93,5.961,6.0118,6.0789,6.1046,6.1184,6.2327,6.1787,6.067,6.1431,5.9523,5.7139,5.5865,5.4218,5.2592,5.1338,5.0877,5.0707,5.0707,5.1356,5.2447,5.4126,5.5838,5.7973,6.091,6.2454,6.3782,6.507,6.5994,6.6673,6.7058,6.7513,6.7955,6.8372,6.9206,6.934,6.8494,6.9648,7.011,6.961,6.9667,6.9071,6.7744,6.7763,6.7148,6.5904,6.5904,6.5904,6.5904,6.5904,6.5904,6.591,6.5967,6.5999,6.6011,6.6072,6.6099,6.6021,6.5195,6.4595,6.4184,6.3848,6.3436,6.3219,6.4147,6.448,6.4454,6.4293,6.4213,6.4275,6.4793,6.4734,6.4697,6.5709,6.5424,6.4767,6.4446,6.3672,6.3106,6.3576,6.3008,6.248,6.2852,6.2618,6.2324,6.2324,6.1992,6.1699,6.1699,6.1699,6.1689,6.1616,6.1539,6.1434,6.1226,6.1091,6.0954,6.081,6.0856,6.0732,6.0327,5.9903,5.931,5.8466,5.7947,5.7706,5.7771,5.7776,5.8216,5.9163,5.9187,5.9569,6.0382,6.047,6.0787,6.1255,6.1324,6.1387,6.3177,6.241,6.1188,6.1978,5.9717,5.692,5.5619,5.3941,5.2299,5.0976,5.0707,5.0707,5.0707,5.1221,5.1986,5.3024,5.4318,5.6184,5.9088,6.0845,6.2576,6.4628,6.6032,6.7058,6.7596,6.8109,6.8545,6.8911,6.9571,6.9956,6.9956,7.0552,7.0302,6.8968,7.0206,6.9763,6.7398,6.8064,6.7571,6.5904,6.5904,6.591,6.5946,6.5946,6.5956,6.5996,6.6103,6.6133,6.6148,6.6255,6.6291,6.6233,6.5596,6.525,6.5043,6.4577,6.4283,6.4247,6.5145,6.5463,6.5463,6.5463,6.4941,6.4432,6.4989,6.5344,6.5731,6.6446,6.6266,6.5819,6.5643,6.4589,6.3672,6.4181,6.4044,6.3535,6.248,6.2265,6.2207,6.2012,6.1836,6.1699,6.1699,6.1699,6.1664,6.1569,6.1539,6.1486,6.1292,6.1253,6.1248,6.1178,6.109,6.0853,6.0431,6.0373,6.0009,5.9146,5.8993,5.8921,5.8828,5.8817,5.9266,6.0241,6.0264,6.0572,6.1209,6.124,6.1348,6.149,6.153,6.1593,6.2429,6.2474,6.2514,6.2183,5.8965,5.5844,5.569,5.3192,5.088,5.0726,5.0707,5.0707,5.0707,5.0765,5.1323,5.2933,5.3332,5.4857,5.8934,6.0319,6.2133,6.5384,6.5923,6.6917,6.9244,6.8814,6.9026,7.0552,7.0744,7.0783,7.0783,7.086,7.0821,7.0687,7.0821,7.0052,6.8295,6.8353,6.7571,6.5904,6.5904,6.5968,6.6077,6.6077,6.6143,6.6267,6.6283,6.6287,6.6272,6.6287,6.6291,6.6291,6.6213,6.5732,6.521,6.6034,6.5844,6.5299,6.6292,6.6643,6.6643,6.6643,6.6381,6.5975,6.5448,6.5833,6.6517,6.6714,6.6734,6.6523,6.58,6.5487,6.5175,6.4473,6.5391,6.6016,6.4415,6.4064,6.3829,6.3028,6.2246,6.1699,6.1699,6.1699,6.1697,6.1672,6.1672,6.1631,6.149,6.1476,6.1704,6.2275,6.1647,6.146,6.2182,6.224,6.1914,6.1082,6.1033,6.0679,5.9894,5.9855,6.025,6.1073,6.1093,6.1131,6.1209,6.139,6.1481,6.1493,6.1626,6.1694,6.2097,6.2673,6.2689,6.222,5.8863,5.5708,5.5708,5.3112,5.0707,5.0707,5.0707,5.0707,5.0707,5.0707,5.0919,5.1592,5.1707,5.2626,5.5338,5.6876,5.8998,6.2416,6.4185,6.5917,6.7936,6.8763,6.9667,7.0802,7.0898,7.0898,7.0898,7.0898,7.0898,7.0898,7.0898,7.011,6.841,6.8391,6.7609,6.6008,6.6008,6.6093,6.6228,6.6228,6.6247,6.6318,6.6426,6.648,6.6489,6.6561,6.6607,6.6607,6.6607,6.6414,6.6167,6.6571,6.6505,6.6257,6.6652,6.6796,6.6796,6.6796,6.6704,6.6557,6.6283,6.6447,6.6723,6.677,6.6796,6.6738,6.6406,6.6327,6.5977,6.461,6.5215,6.5604,6.3887,6.3517,6.3262,6.2383,6.1934,6.1699,6.1699,6.1699,6.1699,6.1699,6.1699,6.1868,6.2332,6.2407,6.2709,6.3497,6.2737,6.2502,6.3339,6.3398,6.3261,6.2953,6.2355,6.1917,6.1685,6.1179,6.1091,6.1498,6.15,6.15,6.15,6.1572,6.1625,6.1625,6.1689,6.1699,6.0672,6.1936,6.2378,6.1547,5.8498,5.5651,5.5401,5.2938,5.0707,5.0707,5.0707,5.0707,5.0707,5.0707,5.0707,0.0,0.0,5.1284,5.2972,5.4645,5.6882,6.0031,6.2224,6.4339,6.6538,6.8532,7.0033,7.0841,7.0898,7.0939,7.0979,7.0985,7.0985,7.0985,7.0748,6.9938,6.855,6.8293,6.749,6.6157,6.6157,6.6241,6.6399,6.6399,6.6403,6.6467,6.6607,6.6657,6.6664,6.6759,6.6796,6.6796,6.6796,6.6796,6.6796,6.6796,6.6796,6.6796,6.6796,6.6796,6.6796,6.6796,6.6796,6.6796,6.6796,6.6796,6.6796,6.6796,6.6796,6.6796,6.6796,6.6796,6.6504,6.5313,6.5508,6.5546,6.4082,6.3574,6.3125,6.2246,6.1875,6.1699,6.1699,6.1699,6.1699,6.1699,6.1914,6.2304,6.2911,6.3223,6.3711,6.4591,6.4045,6.3856,6.4421,6.448,6.448,6.448,6.3577,6.2985,6.2859,6.2019,6.1595,6.1698,6.1699,6.1699,6.1699,6.1699,6.1699,6.1699,6.1699,6.1836,5.7683,5.9888,6.1691,5.9954,5.7607,5.5497,5.4684,5.2534,5.0707,5.0707,5.0707,5.0707,5.0707,5.0707,5.0707,5.0707,5.0707,5.1284,5.2972,5.4645,5.6646,5.9204,6.03,6.2191,6.5577,6.8205,7.0033,7.0841,7.0898,7.0985,7.1198,7.1189,7.1189,7.1189,7.0361,6.958,6.8894,6.8031,6.7177,6.6307,6.6307,6.6409,6.659,6.659,6.6666,6.6795,6.6795,6.6795,6.6795,6.6796,6.6796,6.6796,6.6796,6.6796,6.6796,6.6796,6.6796,6.6796,6.6796,6.6796,6.6796,6.6796,6.6796,6.6796,6.6796,6.6796,6.6796,6.6796,6.6796,6.6796,6.6796,6.6796,6.6796,6.6777,6.6777,6.6562,6.5741,6.4903,6.4025,6.3164,6.2285,6.1699,6.1699,6.1699,6.1699,6.1699,6.2422,6.2989,6.3008,6.3751,6.463,6.5487,6.5584,6.5564,6.5584,6.5584,6.5584,6.5584,6.4765,6.3906,6.3027,6.2167,6.1698,6.1699,6.1699,6.1699,6.1699,6.1699,6.1699,6.1699,6.1699,6.2168,5.5121,5.7032,5.8344,5.7184,5.5434,5.3914,5.3664,5.2111,5.0707,5.0707,5.0707,5.0707,5.0707,5.0707,5.0707,5.0707,5.0707,5.088,5.1419,5.3919,5.6646,5.9204,6.282,6.5538,6.6615,6.7994,6.9161,7.0014,7.0728,7.1136,7.1189,7.1339,7.1414,7.1414,7.0571,6.9725,6.8902,6.8039,6.7233,6.6518,6.6518,6.66,6.6746,6.6746,6.6759,6.6796,6.6796,6.6796,6.6796,6.6796,6.6796,6.6796,6.6796,6.6796,6.6796,6.6796,6.6796,6.6796,6.6796,6.6796,6.6796,6.6796,6.6796,6.6796,6.6796,6.6796,6.6796,6.6796,6.6796,6.6796,6.6796,6.6796,6.6796,6.6796,6.6796,6.6425,6.5001,6.4493,6.3868,6.2402,6.1895,6.1699,6.1699,6.1699,6.1895,6.25,6.2813,6.3438,6.4628,6.4493,6.4844,6.6269,6.5936,6.5819,6.6366,6.6425,6.6425,6.6425,6.5643,6.5058,6.4785,6.3945,6.3477,6.3477,6.3477,6.3477,6.3477,6.3477,6.3477,6.3477,6.3477,6.3615,5.2916,5.4972,5.6305,5.5458,5.4222,5.3101,5.2774,5.1664,5.0707,5.0707,5.0707,5.0707,5.0707,5.0707,5.0707,5.0707,5.0707,5.0803,5.1106,5.3785,5.6901,6.0094,6.4128,6.6769,6.7077,6.8225,6.9321,7.0188,7.0924,7.1334,7.1393,7.1502,7.1465,7.1202,7.0275,6.9552,6.9086,6.7892,6.7091,6.6689,6.6689,6.6716,6.6796,6.6796,6.6796,6.6796,6.6796,6.6796,0.0,6.6796,6.6796,6.6796,6.6796,6.6796,6.6796,6.6796,6.6796,6.6796,6.6796,6.6796,6.6796,6.6796,6.6796,6.6796,6.6796,6.6796,6.6796,6.6796,6.6796,6.6796,6.6796,6.6796,6.6796,6.6796,6.6796,6.6504,6.5469,6.4747,6.4083,6.3319,6.2363,6.1797,6.2129,6.1914,6.1875,6.2422,6.2794,6.3399,6.4472,6.4434,6.4708,6.5742,6.5702,6.58,6.6307,6.6621,6.6796,6.6796,6.6034,6.5604,6.5604,6.4766,6.4298,6.4298,6.4298,6.4298,6.4298,6.4298,6.4298,6.4317,6.4649,6.4786,0.0,5.3491,5.517,5.4414,5.3626,5.2813,5.2005,5.1241,0.0,5.0707,5.0707,5.0707,5.0707,5.0707,5.0707,5.0707,5.0707,5.0976,5.1793,5.4357,5.769,6.1787,6.4576,6.6378,6.6962,6.876,7.0208,7.0963,7.1332,7.1547,7.1597,7.1688,7.1406,7.0716,6.9673,6.9183,6.9313,6.7636,6.6796,6.6796,6.6796,6.6796,6.6796,6.6796,6.6796,6.6796,6.6796,6.6796,6.6796,6.6796,6.6796,6.6796,6.6796,6.6796,6.6796,6.6796,6.6796,6.6796,6.6796,6.6796,6.6796,6.6796,6.6796,6.6796,6.6796,6.6796,6.6796,6.6796,6.6796,6.6796,6.6796,6.6796,6.6796,6.6796,6.6796,6.6777,6.6738,6.5489,6.461,6.5351,6.3495,6.207,6.293,6.2324,6.1738,6.1875,6.252,6.3028,6.3086,6.3751,6.4239,6.4298,6.5019,6.5526,6.5585,6.6346,6.6796,6.6796,6.6092,6.5682,6.5682,6.4903,6.4473,6.4473,6.4473,6.4473,6.4473,6.4473,6.4473,6.4493,6.5312,6.5682,4.9644,0.0,5.1823,5.163,5.1438,5.1226,0.0,5.0842,5.0707,5.0707,5.0707,5.0707,5.0707,5.0707,5.0707,5.0707,5.0707,5.0976,5.1793,5.6915,6.1441,6.3743,6.6859,6.8129,6.6346,6.8432,6.9705,6.9255,7.0732,7.1376,7.074,7.1482,7.1543,7.0737,6.9806,6.9026,6.8415,6.7342,6.6796,6.6796,6.6796,6.6796,6.6796,6.6796,6.6796,6.6796,6.6796,6.6796,6.6796,6.6796,6.6796,6.6796,6.6796,6.6796,6.6796,6.6796,6.6796,6.6796,6.6796,6.6796,6.6796,6.6796,6.6796,6.6796,6.6796,6.6796,6.6796,6.6796,6.6796,6.6796,6.6796,6.6796,6.6796,6.6796,6.6796,6.6621,6.6014,6.5565,6.5155,6.4708,6.3574,6.2969,6.3849,6.2716,6.2148,6.3496,6.3301,6.3243,6.3907,6.3595,6.3556,6.4239,6.4473,6.4883,6.5546,6.6346,6.6796,6.6796,6.6621,6.6523,6.6523,6.6328,6.6211,6.6211,6.6211,6.6211,6.6211,6.6211,6.6211,6.6211,6.6425,6.6523,4.9764,5.0341,5.0707,5.0707,5.0707,5.0707,5.0707,5.0707,5.0707,5.0707,5.0707,5.0707,5.0707,5.0707,5.0707,5.0707,5.0707,5.1399,5.3376,5.7838,6.1973,6.4839,6.7167,6.845,6.8349,6.9737,7.0301,6.9487,7.0918,7.1283,7.0013,7.0875,7.0816,6.9546,6.9059,6.8571,6.8102,6.7244,6.6796,6.6796,6.6796,6.6796,6.6796,6.6796,6.6796,6.6796,6.6796,6.6796,6.6796,6.6796,6.6796,6.6796,6.6796,6.6796,6.6796,6.6796,6.6796,6.6796,6.6796,6.6796,6.6796,6.6796,6.6796,6.6796,6.6796,6.6796,6.6796,6.6796,6.6796,6.6796,6.6796,6.6796,6.6796,6.6796,6.6796,6.6679,6.6249,6.5858,6.5468,6.498,6.3867,6.3282,6.4142,6.2852,6.2168,6.3498,6.2969,6.2579,6.3047,6.2696,6.2579,6.3067,6.3829,6.4493,6.496,6.6113,6.6796,6.6796,6.6796,6.6796,6.6796,6.6796,6.6796,6.6796,6.6796,6.6796,6.6796,6.6796,6.6796,6.6796,6.6796,6.6796,5.0457,5.0707,5.0707,5.0707,5.0707,5.0707,5.0707,5.0707,5.0707,5.0707,5.0707,5.0707,5.0707,5.0707,5.0707,5.0707,5.1034,5.2496,5.5997,5.855,6.1531,6.5442,6.6846,6.8378,7.0593,7.112,7.1042,7.0459,7.1146,7.0953,6.949,7.0094,6.9761,6.8141,6.8102,6.8043,6.7908,6.7166,6.6796,6.6796,6.6796,6.6796,6.6796,6.6796,6.6796,6.6796,6.6796,6.6796,6.6796,6.6796,6.6796,6.6796,6.6796,6.6796,6.6796,6.6796,6.6796,6.6796,6.6796,6.6796,6.6796,6.6796,6.6796,6.6796,6.6796,6.6796,6.6796,6.6796,6.6796,6.6796,6.6796,6.6796,6.6796,6.6796,6.6796,6.6796,6.6796,6.6268,6.578,6.578,6.4492,6.3672,6.4532,6.3125,6.2187,6.3067,6.2343,6.1699,6.1699,6.1699,6.1699,6.1699,6.3145,6.4161,6.4298,6.5723,6.6679,6.6796,6.6796,6.6796,6.6796,6.6796,6.6796,6.6796,6.6796,6.6796,6.6796,6.6796,6.6796,6.6796,6.6796,6.6796,5.0457,5.0707,5.0707,5.0707,5.0707,5.0707,5.0707,5.0707,5.0707,5.0707,5.0707,5.0707,5.0707,5.0707,5.0707,5.0707,5.2515,5.5338,5.944,6.1589,6.3506,6.5647,6.7917,6.9239,6.9109,6.9874,7.0393,7.04,7.0034,6.9685,6.9412,6.9528,6.9137,6.8121,6.8102,6.7752,6.7011,6.6874,6.6796,6.6796,6.6796,6.6796,6.6796,6.6796,6.6796,6.6796,6.6796,6.6796,6.6796,6.6796,6.6796,6.6796,6.6796,6.6796,6.6796,6.6796,6.6796,6.6796,6.6796,6.6796,6.6796,6.6796,6.6796,6.6796,6.6796,6.6796,6.6796,6.6796,6.6796,6.6796,6.6796,6.6796,6.6796,6.6796,6.6796,6.6796,6.6796,6.6699,6.6621,6.6621,6.5858,6.5468,6.6289,6.4414,6.3106,6.3966,6.2735,6.1699,6.1699,6.1699,6.1699,6.1699,6.2598,6.3498,6.4239,6.5214,6.6073,6.6757,6.6796,6.6796,6.6796,6.6796,6.6796,6.6796,6.6796,6.6796,6.6796,6.6796,6.6796,6.6796,6.6796,6.6796,5.0592,5.0707,5.0707,5.0707,5.0707,5.0707,5.0707,5.0707,5.0707,5.0707,5.0707,5.0707,5.0707,5.1438,5.2496,5.3881,5.5478,5.7376,5.9762,6.1166,6.2935,6.559,6.6513,6.7816,6.9992,6.9781,6.96,6.9839,6.957,6.8983,6.8046,6.8435,6.8298,6.7439,6.74,6.7205,6.6796,6.6366,6.6366,6.6796,6.6796,6.6796,6.6796,6.6796,6.6796,6.6796,6.6796,6.6796,6.6796,6.6796,6.6796,6.6796,6.6796,6.6796,6.6796,6.6796,6.6796,6.6796,6.6796,6.6796,6.6796,6.6796,6.6796,6.6796,6.6796,6.6796,6.6796,6.6796,6.6796,6.6796,6.6796,6.6796,6.6796,6.6796,6.6796,6.6796,6.6796,6.6796,6.6679,6.6249,6.5858,6.5722,6.6092,6.4394,6.3301,6.4161,6.2813,6.1699,6.1699,6.1699,6.1699,6.1699,6.248,6.334,6.4239,6.5097,6.5936,6.6757,6.6796,6.6796,6.6796,6.6796,6.6796,6.6796,6.6796,6.6582,6.6151,6.6151,6.5918,6.5449,6.5449,6.5449,5.0707,5.0707,5.0707,5.0707,5.0707,5.0745,5.0938,5.0976,5.1034,5.1246,5.113,5.0976,5.0976,5.2202,5.403,5.6593,5.7896,5.9088,6.0492,6.1262,6.2878,6.609,6.5761,6.6825,7.0811,6.9671,6.8863,6.9365,6.9022,6.8299,6.7167,6.7537,6.7498,6.6816,6.6796,6.6718,6.6523,6.5917,6.5995,6.6796,6.6601,6.6621,6.6796,6.6796,6.6796,6.6796,6.6796,6.6699,6.6523,6.6523,6.6406,6.6211,6.6211,6.6347,6.6543,6.6738,6.6796,6.6796,6.6796,6.6796,6.6796,6.6796,6.6796,6.6796,6.6796,6.6796,6.6796,6.6796,6.6796,6.6796,6.6796,6.6796,6.6796,6.6796,6.6796,6.6796,6.6796,6.6796,6.6562,6.5761,6.5604,6.5546,6.5331,6.4023,6.3223,6.3907,6.2696,6.1699,6.1699,6.1699,6.1699,6.1699,6.248,6.3438,6.4513,6.539,6.6131,6.6757,6.6796,6.6718,6.6523,6.6523,6.6425,6.6211,6.6211,6.5918,6.5292,6.5292,6.4942,6.4298,6.4298,6.4298,5.0707,5.0707,5.0707,5.0707,5.0707,5.0899,5.164,5.1813,5.2043,5.2851,5.237,5.1813,5.1813,5.2563,5.403,5.6593,5.8363,6.055,6.3782,6.4282,6.5301,6.791,6.7626,6.8011,7.0093,6.8897,6.8378,6.9329,6.7909,6.7283,6.7966,6.7303,6.6855,6.6796,6.6796,6.6445,6.5682,6.5624,6.5995,6.6796,6.6034,6.6073,6.6796,6.6796,6.6796,6.6796,6.6796,6.6385,6.5682,6.5682,6.5214,6.4473,6.4473,6.4961,6.578,6.6523,6.6796,6.6796,6.6796,6.6796,6.6796,6.6796,6.6796,6.6796,6.6796,6.6796,6.6796,6.6796,6.6796,6.6796,6.6796,6.6796,6.6796,6.6796,6.6796,6.6796,6.6796,6.6796,6.6562,6.5761,6.5604,6.5331,6.4532,6.3615,6.3028,6.3086,6.2304,6.1699,6.1699,6.1699,6.1699,6.1699,6.248,6.3672,6.5351,6.6249,6.6738,6.6796,6.6796,6.6464,6.5722,6.5682,6.5312,6.4493,6.4473,6.4454,6.4395,6.4395,6.4356,6.4298,6.4298,6.4298,5.0707,5.0707,5.0707,5.0707,5.0707,5.1053,5.239,5.2717,5.2794,5.3121,5.378,5.426,5.426,5.4972,5.6401,5.894,6.0762,6.2685,6.507,6.5416,6.5998,6.7599,6.7075,6.7362,6.9322,6.8043,6.751,6.8528,6.748,6.6738,6.6541,6.6229,6.58,6.5254,6.5254,6.5098,6.4786,6.4258,6.4414,6.5235,6.4942,6.5235,6.6034,6.5489,6.5254,6.5254,6.5254,6.5079,6.4786,6.4786,6.4591,6.4298,6.4298,6.4825,6.5565,6.5332,6.5586,6.6053,6.6053,6.6053,6.6131,6.664,6.6796,6.6796,6.6796,6.6796,6.6796,6.6796,6.6796,6.6796,6.6796,6.6796,6.6796,6.6796,6.6796,6.6796,6.6796,6.6406,6.6112,6.6307,6.5936,6.5507,6.5175,6.4843,6.4433,6.3888,6.3067,6.25,6.25,6.2031,6.1699,6.1699,6.248,6.3496,6.4688,6.5565,6.6268,6.6777,6.6796,6.666,6.6366,6.6346,6.6191,6.5859,6.5859,6.5332,6.4298,6.4298,6.3732,6.2676,6.2676,6.2676,5.0707,5.0707,5.0707,5.0707,5.0707,5.1284,5.3491,5.3799,5.376,5.4299,5.4895,5.5401,5.5651,5.6189,5.742,5.9973,6.2031,6.3814,6.5282,6.5731,6.6266,6.7276,6.6666,6.6833,6.8558,6.7479,6.6959,6.7632,6.6893,6.617,6.5624,6.5331,6.4922,6.4317,6.4298,6.4161,6.3888,6.3301,6.3301,6.3888,6.3615,6.4082,6.5175,6.4571,6.4298,6.4298,6.4298,6.4142,6.3888,6.3888,6.3732,6.3517,6.3771,6.4258,6.4746,6.4415,6.4688,6.5194,6.5194,6.537,6.5682,6.6249,6.6582,6.6796,6.6796,6.6621,6.6425,6.6425,6.6211,6.6016,6.6016,6.6406,6.6738,6.6484,6.6621,6.6796,6.6796,6.617,6.5761,6.6307,6.5741,6.5194,6.5194,6.5194,6.498,6.4395,6.3556,6.3008,6.3008,6.2246,6.1816,6.207,6.2637,6.334,6.4239,6.5097,6.5839,6.6386,6.666,6.6699,6.6425,6.6425,6.6289,6.6016,6.6016,6.5449,6.4298,6.4298,6.3693,6.252,6.252,6.252,5.0707,5.0707,5.0707,5.0707,5.0707,5.1592,5.4939,5.5074,5.4977,5.6651,5.5689,5.4761,5.5574,5.5728,5.6549,5.9088,6.1641,6.3602,6.4474,6.5346,6.6272,6.7262,6.6752,6.6722,6.7784,6.7223,6.6796,6.6796,6.6034,6.5585,6.5585,6.4766,6.4278,6.4278,6.4278,6.3868,6.3008,6.2989,6.2989,6.2989,6.2109,6.2618,6.4298,6.4278,6.4278,6.4278,6.4278,6.379,6.2989,6.2989,6.248,6.1797,6.2657,6.2989,6.3106,6.3966,6.4278,6.4298,6.4298,6.4844,6.5585,6.5585,6.6131,6.6796,6.6796,6.6229,6.5604,6.5585,6.4961,6.4298,6.4298,6.5528,6.6582,6.578,6.6209,6.6796,6.6777,6.6151,6.5585,6.5585,6.4883,6.4298,6.4298,6.4317,6.4317,6.4298,6.3576,6.3008,6.2989,6.2226,6.2031,6.2891,6.2989,6.334,6.42,6.5077,6.5585,6.5604,6.6346,6.6425,6.5643,6.5604,6.5214,6.4337,6.4317,6.4317,6.4317,6.4317,6.4317,6.4298,6.4298,6.4298,5.0707,5.0707,5.0707,5.0707,5.1592,5.2876,5.4491,5.4203,5.4414,5.7319,5.703,5.6516,5.7376,5.7992,5.8627,5.9377,6.1641,6.3649,6.4596,6.5487,6.6245,6.6761,6.6633,6.6665,6.709,6.6413,6.5956,6.5956,6.5176,6.4415,6.3809,6.3535,6.3106,6.248,6.2461,6.2343,6.209,6.209,6.209,6.207,6.1816,6.2285,6.336,6.2755,6.2461,6.2461,6.2461,6.2324,6.209,6.209,6.1934,6.1738,6.1973,6.2461,6.2969,6.2598,6.2852,6.3399,6.3399,6.3555,6.3965,6.5194,6.5761,6.5956,6.5956,6.58,6.5468,6.4864,6.4493,6.4161,6.3537,6.422,6.4981,6.4747,6.5762,6.6484,6.5293,6.4844,6.4688,6.4688,6.4473,6.4298,6.4298,6.5274,6.5664,6.4473,6.4083,6.3477,6.2246,6.1855,6.1797,6.2051,6.209,6.2441,6.3301,6.3613,6.4297,6.5526,6.5819,6.6092,6.6425,6.6445,6.6328,6.6055,6.6055,6.5781,6.5214,6.5214,6.4903,6.4298,6.4298,6.4298,5.0707,5.0707,5.0784,5.1106,5.2202,5.351,5.4703,5.5357,5.6395,5.88,5.8357,5.7877,5.9069,5.9146,5.9242,5.9915,6.1631,6.3105,6.3729,6.4604,6.5281,6.5536,6.5577,6.5639,6.5796,6.5371,6.5077,6.5077,6.4278,6.3556,6.3028,6.2676,6.2246,6.1719,6.1699,6.1699,6.1699,6.1699,6.1699,6.1699,6.1699,6.1973,6.2461,6.1934,6.1699,6.1699,6.1699,6.1699,6.1699,6.1699,6.1699,6.1699,6.1699,6.2012,6.2422,6.1895,6.2031,6.248,6.248,6.2716,6.3164,6.4238,6.4804,6.5077,6.5077,6.4843,6.4453,6.3927,6.3537,6.3145,6.2618,6.3125,6.3771,6.3771,6.4825,6.5528,6.4513,6.4025,6.3888,6.4239,6.4025,6.3888,6.4239,6.541,6.5859,6.4493,6.4005,6.3282,6.1875,6.1699,6.1699,6.1699,6.1699,6.1914,6.2441,6.2794,6.3457,6.4492,6.5214,6.5819,6.6307,6.6621,6.6796,6.6796,6.6796,6.6562,6.6073,6.6073,6.5801,6.5293,6.5293,6.5293,5.0707,5.0745,5.0976,5.1717,5.2736,5.401,5.5761,5.7953,5.98,6.0441,5.9473,5.8992,6.0512,5.955,5.9036,6.0566,6.1646,6.2307,6.2345,6.32,6.3868,6.4016,6.403,6.4105,6.4273,6.4239,6.4181,6.4181,6.336,6.2872,6.2872,6.2129,6.1699,6.1699,6.1699,6.1699,6.1699,6.1699,6.1699,6.1699,6.1699,6.1699,6.1699,6.1699,6.1699,6.1699,6.1699,6.1699,6.1699,6.1699,6.1699,6.1699,6.1699,6.1699,6.1699,6.1699,6.1699,6.1699,6.1699,6.2226,6.2891,6.2969,6.3537,6.4181,6.4181,6.3634,6.2989,6.2891,6.2304,6.1699,6.1699,6.2285,6.2872,6.2872,6.3615,6.4259,6.4103,6.3498,6.3204,6.3927,6.3496,6.3243,6.4044,6.4902,6.5194,6.4317,6.3438,6.2598,6.1797,6.1699,6.1699,6.1699,6.1699,6.1699,6.1699,6.2422,6.2911,6.2989,6.4492,6.5429,6.5585,6.6366,6.6796,6.6796,6.6796,6.6796,6.6796,6.6796,6.6796,6.6796,6.6796,6.6796,5.0707,5.1164,5.1678,5.1865,5.4068,5.6805,5.9171,6.0133,6.0204,5.9069,5.9608,6.0358,6.0729,6.0517,6.0401,6.0885,6.1703,6.2383,6.2662,6.3423,6.4021,6.4211,6.424,6.4244,6.4297,6.3673,6.3282,6.3282,6.2461,6.1973,6.1973,6.1797,6.1699,6.1699,6.1699,6.1699,6.1699,6.1699,6.1699,6.1699,6.1699,6.1699,6.1699,6.1699,6.1699,6.1699,6.1699,6.1699,6.1699,6.1699,6.1699,6.1699,6.1699,6.1699,6.1699,6.1699,6.1699,6.1699,6.1699,6.1816,6.209,6.2774,6.3125,6.3282,6.3282,6.3145,6.2852,6.2168,6.1836,6.1699,6.1699,6.1836,6.1973,6.1973,6.3164,6.3927,6.2559,6.2657,6.2852,6.2363,6.2657,6.3067,6.3243,6.4005,6.4278,6.3418,6.254,6.1914,6.1719,6.1699,6.1699,6.1699,6.1699,6.1699,6.1699,6.1875,6.2265,6.2969,6.336,6.4179,6.5546,6.6366,6.6796,6.6796,6.6796,6.6796,6.6796,6.6796,6.6796,6.6796,6.6796,6.6796,5.0707,5.1015,5.1625,5.2832,5.5395,5.8074,5.9781,6.0498,6.055,5.9685,6.0185,6.0806,6.0806,6.0806,6.0827,6.089,6.1388,6.1838,6.2,6.2532,6.295,6.3044,6.3067,6.3067,6.3067,6.2637,6.2383,6.2383,6.1953,6.1699,6.1699,6.1699,6.1699,6.1699,6.1699,6.1699,6.1699,6.1699,6.1699,6.1699,6.1699,6.1699,6.1699,6.1699,6.1699,6.1699,6.1699,6.1699,6.1699,6.1699,6.1699,6.1699,6.1699,6.1699,6.1699,6.1699,6.1699,6.1699,6.1699,6.1699,6.1777,6.2226,6.2383,6.2383,6.2383,6.2383,6.2285,6.1836,6.1699,6.1699,6.1699,6.1699,6.1699,6.1699,6.2383,6.2813,6.1895,6.2051,6.2246,6.1797,6.207,6.2383,6.2383,6.2755,6.3047,6.3008,6.2265,6.1699,6.1699,6.1699,6.1699,6.1699,6.1699,6.1699,6.1699,6.1699,6.1895,6.2343,6.2774,6.3418,6.4316,6.5565,6.6406,6.6796,6.6796,6.6796,6.6796,6.6796,6.6796,6.6796,6.6796,6.6796,5.0707,5.0803,5.1515,5.4068,5.6299,5.8107,5.9069,5.9954,6.0569,6.0569,6.071,6.0806,6.0806,6.0806,6.081,6.0856,6.1064,6.1226,6.1275,6.1532,6.1699,6.1699,6.1699,6.1699,6.1699,6.1699,6.1699,6.1699,6.1699,6.1699,6.1699,6.1699,6.1699,6.1699,6.1699,6.1699,6.1699,6.1699,6.1699,6.1699,6.1699,6.1699,6.1699,6.1699,6.1699,6.1699,6.1699,6.1699,6.1699,6.1699,6.1699,6.1699,6.1699,6.1699,6.1699,6.1699,6.1699,6.1699,6.1699,6.1699,6.1699,6.1699,6.1699,6.1699,6.1699,6.1699,6.1699,6.1699,6.1699,6.1699,6.1699,6.1699,6.1699,6.1699,6.1699,6.1699,6.1699,6.1699,6.1699,6.1699,6.1699,6.1699,6.1699,6.1699,6.1934,6.2676,6.2168,6.1699,6.1699,6.1699,6.1699,6.1699,6.1699,6.1699,6.1699,6.1699,6.1699,6.1699,6.2383,6.2833,6.2989,6.4375,6.5546,6.6347,6.666,6.6796,6.6796,6.666,6.666,6.6796,6.666,6.6679,5.0707,5.1202,5.2351,5.4895,5.5805,5.6472,5.8083,5.9088,5.9665,5.9665,6.0262,6.0806,6.0806,6.0806,6.0883,6.112,6.1181,6.1294,6.1582,6.1671,6.1699,6.1699,6.1699,6.1699,6.1699,6.1699,6.1699,6.1699,6.1699,6.1699,6.1699,6.1699,6.1699,6.1699,6.1699,6.1699,6.1699,6.1699,6.1699,6.1699,6.1699,6.1699,6.1699,6.1699,6.1699,6.1699,6.1699,6.1699,6.1699,6.1699,6.1699,6.1699,6.1699,6.1699,6.1699,6.1699,6.1699,6.1699,6.1699,6.1699,6.1699,6.1699,6.1699,6.1699,6.1699,6.1699,6.1699,6.1699,6.1699,6.1699,6.1699,6.1699,6.1699,6.1699,6.1699,6.1699,6.1699,6.1699,6.1699,6.1699,6.1699,6.1699,6.1699,6.1699,6.1738,6.1855,6.1777,6.1699,6.1699,6.1699,6.1699,6.1699,6.1699,6.1699,6.1699,6.1699,6.1699,6.1699,6.1816,6.2207,6.2969,6.3223,6.375,6.461,6.6055,6.6796,6.6796,6.6092,6.6112,6.6777,6.6073,6.6131,5.0707,5.1298,5.2178,5.3294,5.4645,5.5901,5.6665,5.7877,5.8833,5.8833,5.9578,6.0345,6.0733,6.0856,6.0944,6.1062,6.1242,6.1414,6.1576,6.164,6.1699,6.1699,6.1699,6.1699,6.1699,6.1699,6.1699,6.1699,6.1699,6.1699,6.1699,6.1699,6.1699,6.1699,6.1699,6.1699,6.1699,6.1699,6.1699,6.1699,6.1699,6.1699,6.1699,6.1699,6.1699,6.1699,6.1699,6.1699,6.1699,6.1699,6.1699,6.1699,6.1699,6.1699,6.1699,6.1699,6.1699,6.1699,6.1699,6.1699,6.1699,6.1699,6.1699,6.1699,6.1699,6.1699,6.1699,6.1699,6.1699,6.1699,6.1699,6.1699,6.1699,6.1699,6.1699,6.1699,6.1699,6.1699,6.1699,6.1699,6.1699,6.1699,6.1699,6.1699,6.1699,6.1699,6.1699,6.1699,6.1699,6.1699,6.1699,6.1699,6.1699,6.1699,6.1699,6.1699,6.1699,6.1699,6.1699,6.1875,6.2265,6.2735,6.3184,6.3556,6.4766,6.5391,6.5391,6.504,6.5059,6.5391,6.504,6.5059,5.0707,5.1144,5.164,5.1846,5.3505,5.5123,5.5396,5.6788,5.8032,5.8069,5.8842,5.9671,6.0174,6.0703,6.0991,6.082,6.1201,6.1519,6.1541,6.1633,6.1699,6.1699,6.1699,6.1699,6.1699,6.1699,6.1699,6.1699,6.1699,6.1699,6.1699,6.1699,6.1699,6.1699,6.1699,6.1699,6.1699,6.1699,6.1699,6.1699,6.1699,6.1699,6.1699,6.1699,6.1699,6.1699,6.1699,6.1699,6.1699,6.1699,6.1699,6.1699,6.1699,6.1699,6.1699,6.1699,6.1699,6.1699,6.1699,6.1699,6.1699,6.1699,6.1699,6.1699,6.1699,6.1699,6.1699,6.1699,6.1699,6.1699,6.1699,6.1699,6.1699,6.1699,6.1699,6.1699,6.1699,6.1699,6.1699,6.1699,6.1699,6.1699,6.1699,6.1699,6.1699,6.1699,6.1699,6.1699,6.1699,6.1699,6.1699,6.1699,6.1699,6.1699,6.1699,6.1699,6.1699,6.1699,6.1699,6.1699,6.1699,6.2324,6.2676,6.2676,6.3301,6.3868,6.4298,6.4083,6.4083,6.4298,6.4064,6.409,5.0707,5.0726,5.0957,5.1717,5.262,5.3585,5.4538,5.6057,5.7295,5.7418,5.8148,5.877,5.8801,6.0116,6.0987,6.0341,6.0955,6.1541,6.1668,6.1697,6.1699,6.1699,6.1699,6.1699,6.1699,6.1699,6.1699,6.1699,6.1699,6.1699,6.1699,6.1699,6.1699,6.1699,6.1699,6.1699,6.1699,6.1699,6.1699,6.1699,6.1699,6.1699,6.1699,6.1699,6.1699,6.1699,6.1699,6.1699,6.1699,6.1699,6.1699,6.1699,6.1699,6.1699,6.1699,6.1699,6.1699,6.1699,6.1699,6.1699,6.1699,6.1699,6.1699,6.1699,6.1699,6.1699,6.1699,6.1699,6.1699,6.1699,6.1699,6.1699,6.1699,6.1699,6.1699,6.1699,6.1699,6.1699,6.1699,6.1699,6.1699,6.1699,6.1699,6.1699,6.1699,6.1699,6.1699,6.1699,6.1699,6.1699,6.1699,6.1699,6.1699,6.1699,6.1699,6.1699,6.1699,6.1699,6.1699,6.1699,6.1699,6.1738,6.1777,6.1777,6.1816,6.2657,6.4298,6.3477,6.3496,6.4278,6.3457,6.3478,5.0707,5.0707,5.0765,5.1048,5.1818,5.2737,5.3668,5.4839,5.5887,5.6453,5.7328,5.7828,5.7263,5.8565,5.9824,6.0154,6.0054,6.0173,6.078,6.0372,6.0021,6.0021,6.0528,6.0861,6.0861,6.1368,6.1699,6.1699,6.1699,6.1699,6.1699,6.1699,6.1699,6.1699,6.1699,6.1699,6.1699,6.1699,6.1699,6.1699,6.1699,6.1699,6.1699,6.1699,6.1699,6.1699,6.1699,6.1699,6.1699,6.1699,6.1699,6.1699,6.1699,6.1699,6.1699,6.1699,6.1699,6.1699,6.1699,6.1699,6.1699,6.1699,6.1699,6.1699,6.1699,6.1699,6.1699,6.1699,6.1699,6.1699,6.1699,6.1699,6.1699,6.1699,6.1699,6.1699,6.1699,6.1699,6.1699,6.1699,6.1699,6.1699,6.1699,6.1699,6.1699,6.1699,6.1699,6.1699,6.1699,6.1699,6.1699,6.1699,6.1699,6.1699,6.1699,6.1699,6.1699,6.1699,6.1699,6.1699,6.1699,6.1699,6.1699,6.1699,6.1699,6.2012,6.2637,6.2324,6.2324,6.2618,6.2273,6.2263,5.0707,5.0707,5.0707,5.0707,5.136,5.2217,5.2887,5.3992,5.5089,5.5699,5.6604,5.7092,5.6507,5.7342,5.8412,5.925,5.9235,5.9299,5.9885,5.9474,5.9103,5.9103,5.9866,6.0295,5.9983,6.1016,6.1582,6.1289,6.1524,6.1699,6.1699,6.1699,6.1699,6.1699,6.1699,6.1699,6.1699,6.1699,6.1699,6.1699,6.1699,6.1699,6.1699,6.1699,6.1699,6.1699,6.1699,6.1699,6.1699,6.1699,6.1699,6.1699,6.1699,6.1699,6.1699,6.1699,6.1699,6.1699,6.1699,6.1699,6.1699,6.1699,6.1699,6.1699,6.1699,6.1699,6.1699,6.1699,6.1699,6.1699,6.1699,6.1699,6.1699,6.1699,6.1699,6.1699,6.1699,6.1699,6.1699,6.1699,6.1699,6.1699,6.1699,6.1699,6.1699,6.1699,6.1699,6.1699,6.1699,6.1699,6.1699,6.1699,6.1699,6.1699,6.1699,6.1699,6.1699,6.1699,6.1699,6.1699,6.1699,6.1699,6.1699,6.1699,6.1699,6.1836,6.2148,6.1836,6.1688,6.1663,6.1912,6.2165,0.0,0.0,0.0,5.0707,5.1284,5.1948,5.2234,5.3636,5.493,5.5238,5.5999,5.6584,5.6605,5.6605,5.686,5.7641,5.848,5.9025,5.9064,5.9045,5.9025,5.9025,5.9788,5.9983,5.9142,6.0645,6.1309,6.0451,6.1211,6.1699,6.1699,6.1699,6.1699,6.1699,6.1699,6.1699,6.1699,6.1699,6.1699,6.1699,6.1699,6.1699,6.1699,6.1699,6.1699,6.1699,6.1699,6.1699,6.1699,6.1699,6.1699,6.1699,6.1699,6.1699,6.1699,6.1699,6.1699,6.1699,6.1699,6.1699,6.1699,6.1699,6.1699,6.1699,6.1699,6.1699,6.1699,6.1699,6.1699,6.1699,6.1699,6.1699,6.1699,6.1699,6.1699,6.1699,6.1699,6.1699,6.1699,6.1699,6.1699,6.1699,6.1699,6.1699,6.1699,6.1699,6.1699,6.1699,6.1699,6.1699,6.1699,6.1699,6.1699,6.1699,6.1699,6.1719,6.1738,6.1738,6.1738,6.1758,6.1777,6.1758,6.1758,6.1777,6.1777,6.2189,6.303,6.2151,6.1723,6.1699,6.2539,6.3313,5.0707,0.0,0.0,0.0,0.0,0.0,5.2012,5.3084,5.4189,5.4983,5.5801,5.6439,5.658,5.6605,5.6663,5.6899,5.7132,5.7483,5.8089,5.766,5.7288,5.7288,5.8011,5.8421,5.8187,5.9749,6.0666,6.0412,6.1211,6.1699,6.1699,6.1699,6.1699,6.1699,6.1699,6.1699,6.1699,6.1699,6.1699,6.1699,6.1699,6.1699,6.1699,6.1699,6.1699,6.1699,6.1699,6.1699,6.1699,6.1699,6.1699,6.1699,6.1699,6.1699,6.1699,6.1699,6.1699,6.1699,6.1699,6.1699,6.1699,6.1699,6.1699,6.1699,6.1699,6.1699,6.1699,6.1699,6.1699,6.1699,6.1699,6.1699,6.1699,6.1699,6.1699,6.1699,6.1699,6.1699,6.1699,6.1699,6.1699,6.1699,6.1699,6.1699,6.1699,6.1699,6.1699,6.1699,6.1699,6.1699,6.1699,6.1699,6.1699,6.1699,6.1699,6.2285,6.2637,6.2637,6.2637,6.2911,6.3556,6.2989,6.293,6.3576,6.3576,6.3689,6.3865,6.2986,6.287,6.3476,6.3629,6.3816,0.0,0.0,5.0707,5.0707,0.0,0.0,5.1523,5.2667,5.3805,5.4509,5.5581,5.647,5.6581,5.6605,5.6605,5.6605,5.6605,5.6761,5.7231,5.6899,5.6605,5.6605,5.7309,5.7798,5.7798,5.9378,6.0393,6.0393,6.1211,6.1699,6.1699,6.1699,6.1699,6.1699,6.1699,6.1699,6.1699,6.1699,6.1699,6.1699,6.1699,6.1699,6.1699,6.1699,6.1699,6.1699,6.1699,6.1699,6.1699,6.1699,6.1699,6.1699,6.1699,6.1699,6.1699,6.1699,6.1699,6.1699,6.1699,6.1699,6.1699,6.1699,6.1699,6.1699,6.1699,6.1699,6.1699,6.1699,6.1699,6.1699,6.1699,6.1699,6.1699,6.1699,6.1699,6.1699,6.1699,6.1699,6.1699,6.1699,6.1699,6.1699,6.1699,6.1699,6.1699,6.1699,6.1699,6.1699,6.1699,6.1699,6.1699,6.1699,6.1699,6.1855,6.2207,6.2716,6.3164,6.3517,6.3537,6.3771,6.4278,6.381,6.3771,6.4298,6.4277,6.4394,6.4656,6.3843,6.3862,6.4654,6.4554,6.4701,0.0,0.0,0.0,5.0822,5.0919,0.0,5.1078,5.2366,5.3627,5.3883,5.5233,5.6425,5.6528,5.6554,5.6577,5.6577,5.6582,5.6605,5.6605,5.6605,5.6605,5.6605,5.7231,5.766,5.766,5.9143,6.01,6.01,6.1016,6.1602,6.1699,6.1699,6.1699,6.1699,6.1699,6.1699,6.1699,6.1699,6.1699,6.1699,6.1699,6.1699,6.1699,6.1699,6.1699,6.1699,6.1699,6.1699,6.1699,6.1699,6.1699,6.1699,6.1699,6.1699,6.1699,6.1699,6.1699,6.1699,6.1699,6.1699,6.1699,6.1699,6.1699,6.1699,6.1699,6.1699,6.1699,6.1699,6.1699,6.1699,6.1699,6.1699,6.1699,6.1699,6.1699,6.1699,6.1699,6.1699,6.1699,6.1699,6.1699,6.1699,6.1699,6.1699,6.1699,6.1699,6.1699,6.1699,6.1699,6.1699,6.1699,6.1699,6.1699,6.2051,6.293,6.3086,6.3516,6.4395,6.4434,6.4473,6.4571,6.4493,6.4493,6.4571,6.4509,6.48,6.5438,6.4697,6.4712,6.5436,6.5187,6.5572,5.0707,5.1164,5.1678,5.1678,5.2197,0.0,5.1871,5.253,5.3317,5.3474,5.4347,5.5294,5.6058,5.6285,5.6354,5.6354,5.6499,5.6605,5.6605,5.6605,5.6605,5.6605,5.6742,5.6821,5.6821,5.7738,5.8305,5.8305,5.9768,6.0959,6.166,6.1699,6.1699,6.1699,6.1699,6.1699,6.1699,6.1699,6.1699,6.1699,6.1699,6.1699,6.1699,6.1699,6.1699,6.1699,6.1699,6.1699,6.1699,6.1699,6.1699,6.1699,6.1699,6.1699,6.1699,6.1699,6.1699,6.1699,6.1699,6.1699,6.1699,6.1699,6.1699,6.1699,6.1699,6.1699,6.1699,6.1699,6.1699,6.1699,6.1699,6.1699,6.1699,6.1699,6.1699,6.1699,6.1699,6.1699,6.1699,6.1699,6.1699,6.1699,6.1699,6.1699,6.1699,6.1699,6.1699,6.1699,6.1699,6.1699,6.1699,6.1699,6.1699,6.2051,6.293,6.3634,6.4415,6.5292,6.5351,6.5643,6.6289,6.5682,6.5643,6.6308,6.6248,6.6268,6.6337,6.5505,6.5499,6.6238,6.4872,6.5052,5.1952,5.2241,5.2544,5.2544,5.287,0.0,0.0,5.2992,5.3455,5.4033,5.4497,5.5068,5.5948,5.6202,5.629,5.629,5.6472,5.6605,5.6605,5.6605,5.6605,5.6605,5.6605,5.6761,5.7153,5.7562,5.8169,5.9026,5.9905,6.0783,6.1641,6.1699,6.1699,6.1699,6.1699,6.1699,6.1699,6.1699,6.1699,6.1699,6.1699,6.1699,6.1699,6.1699,6.1699,6.1699,6.1699,6.1699,6.1699,6.1699,6.1699,6.1699,6.1699,6.1699,6.1699,6.1699,6.1699,6.1699,6.1699,6.1699,6.1699,6.1699,6.1699,6.1699,6.1699,6.1699,6.1699,6.1699,6.1699,6.1699,6.1699,6.1699,6.1699,6.1699,6.1699,6.1699,6.1699,6.1699,6.1699,6.1699,6.1699,6.1699,6.1699,6.1699,6.1699,6.1699,6.1699,6.1699,6.1699,6.1699,6.1699,6.1699,6.209,6.2696,6.3576,6.4454,6.5312,6.6151,6.619,6.6385,6.6777,6.6406,6.6367,6.6738,6.6721,6.6649,6.6539,6.5686,6.569,6.647,6.5188,6.5285,5.3197,5.3313,5.3453,5.3453,5.3568,5.3666,0.0,0.0,0.0,5.466,5.4828,5.5068,5.5879,5.6152,5.6205,5.6066,5.6345,5.6546,5.6372,5.6488,5.6605,5.6605,5.6605,5.686,5.7504,5.7562,5.8285,6.0022,6.0159,6.0607,6.1641,6.1699,6.1699,6.1699,6.1699,6.1699,6.1699,6.1699,6.1699,6.1699,6.1699,6.1699,6.1699,6.1699,6.1699,6.1699,6.1699,6.1699,6.1699,6.1699,6.1699,6.1699,6.1699,6.1699,6.1699,6.1699,6.1699,6.1699,6.1699,6.1699,6.1699,6.1699,6.1699,6.1699,6.1699,6.1699,6.1699,6.1699,6.1699,6.1699,6.1699,6.1699,6.1699,6.1699,6.1699,6.1699,6.1699,6.1699,6.1699,6.1699,6.1699,6.1699,6.1699,6.1699,6.1699,6.1699,6.1699,6.1699,6.1699,6.1699,6.1699,6.1699,6.248,6.334,6.4239,6.5097,6.5936,6.6757,6.6796,6.6796,6.6796,6.6796,6.6772,6.67,6.6699,6.6627,6.6508,6.5631,6.565,6.6489,6.5456,6.5514,5.3197,5.376,5.4357,5.4357,5.4895,5.5233,5.4522,0.0,5.4403,5.452,0.0,5.4799,5.5608,0.0,0.0,5.5177,5.5939,5.6333,5.5553,5.6118,5.6605,5.6605,5.6605,5.6644,5.6722,5.6742,5.7425,5.9123,5.9259,5.9962,6.1602,6.1699,6.1699,6.1699,6.1699,6.1699,6.1699,6.1699,6.1699,6.1699,6.1699,6.1699,6.1699,6.1699,6.1699,6.1699,6.1699,6.1699,6.1699,6.1699,6.1699,6.1699,6.1699,6.1699,6.1699,6.1699,6.1699,6.1699,6.1699,6.1699,6.1699,6.1699,6.1699,6.1699,6.1699,6.1699,6.1699,6.1699,6.1699,6.1699,6.1699,6.1699,6.1699,6.1699,6.1699,6.1699,6.1699,6.1699,6.1699,6.1699,6.1699,6.1699,6.1699,6.1699,6.1699,6.1699,6.1699,6.1699,6.1699,6.1699,6.1699,6.1699,6.248,6.334,6.4239,6.5097,6.5936,6.6757,6.6796,6.6796,6.6796,6.6796,6.6772,6.67,6.6699,6.6627,6.6508,6.5631,6.565,6.647,6.4877,6.4993,5.4645,5.4914,5.5208,5.5208,5.5458,5.5612,5.5266,5.4838,5.4626,5.5112,0.0,0.0,0.0,0.0,0.0,0.0,5.5943,5.6206,5.5925,5.6204,5.6472,5.6582,5.6605,5.6605,5.6605,5.6605,5.7093,5.8265,5.8811,5.963,6.0881,6.1426,6.1699,6.1699,6.1699,6.1699,6.1699,6.1699,6.1699,6.1699,6.1699,6.1699,6.1699,6.1699,6.1699,6.1699,6.1699,6.1699,6.1699,6.1699,6.1699,6.1699,6.1699,6.1699,6.1699,6.1699,6.1699,6.1699,6.1699,6.1699,6.1699,6.1699,6.1699,6.1699,6.1699,6.1699,6.1699,6.1699,6.1699,6.1699,6.1699,6.1699,6.1699,6.1699,6.1699,6.1699,6.1699,6.1699,6.1699,6.1699,6.1699,6.1699,6.1699,6.1699,6.1699,6.1699,6.1699,6.1699,6.1699,6.1699,6.1699,6.1699,6.293,6.3907,6.4278,6.5528,6.6445,6.6777,6.6796,6.6809,6.6809,6.681,6.6756,6.6639,6.6635,6.6607,6.6508,6.6136,6.6136,6.647,6.5265,6.5343,5.5708,5.5708,5.5708,5.5708,5.5708,5.5708,5.5708,5.5439,5.5285,5.5631,5.5439,0.0,0.0,0.0,5.5829,5.5617,0.0,5.6054,5.5925,5.6136,5.6361,5.658,5.6605,5.6605,5.6605,5.6605,5.6938,5.7739,5.8382,5.9123,6.0002,6.086,6.1348,6.1348,6.1582,6.1699,6.1699,6.1699,6.1699,6.1699,6.1699,6.1699,6.1699,6.1699,6.1699,6.1699,6.1699,6.1699,6.1699,6.1699,6.1699,6.1699,6.1699,6.1699,6.1699,6.1699,6.1699,6.1699,6.1699,6.1699,6.1699,6.1699,6.1699,6.1699,6.1699,6.1699,6.1699,6.1699,6.1699,6.1699,6.1699,6.1699,6.1699,6.1699,6.1699,6.1699,6.1699,6.1699,6.1699,6.1699,6.1699,6.1699,6.1699,6.1699,6.1699,6.1699,6.1699,6.1699,6.1699,6.1699,6.1699,6.1699,6.3047,6.4044,6.4278,6.5625,6.6562,6.6796,6.6809,6.6806,6.6797,6.6776,6.671,6.6595,6.6592,6.6573,6.6508,6.6508,6.6508,6.6489,6.5833,6.5872,5.5708,5.5708,5.5708,5.5708,5.5708,5.5708,5.5708,5.6324,5.6689,5.5862,5.6343,5.667,5.5843,5.5803,5.5655,0.0,5.5493,0.0,0.0,5.5738,5.6361,5.658,5.6605,5.6605,5.6605,5.6605,5.6938,5.7739,5.7837,5.8226,5.9103,5.9963,6.0432,6.0432,6.125,6.1699,6.1699,6.1699,6.1699,6.1699,6.1699,6.1699,6.1699,6.1699,6.1699,6.1699,6.1699,6.1699,6.1699,6.1699,6.1699,6.1699,6.1699,6.1699,6.1699,6.1699,6.1699,6.1699,6.1699,6.1699,6.1699,6.1699,6.1699,6.1699,6.1699,6.1699,6.1699,6.1699,6.1699,6.1699,6.1699,6.1699,6.1699,6.1699,6.1699,6.1699,6.1699,6.1699,6.1699,6.1699,6.1699,6.1699,6.1699,6.1699,6.1699,6.1699,6.1699,6.1699,6.1699,6.1699,6.1699,6.1699,6.25,6.3379,6.4239,6.5116,6.5975,6.6757,6.6791,6.6797,6.6797,6.6743,6.667,6.6595,6.6592,6.6573,6.6508,6.6508,6.6508,6.6505,6.6407,6.6407,5.5708,5.6112,5.6555,5.6555,5.6555,5.6555,5.6555,5.6786,5.6747,5.5882,5.6382,5.6728,5.5862,5.5747,5.5677,0.0,0.0,5.577,0.0,5.6,5.6361,5.658,5.6605,5.6605,5.6605,5.6605,5.6702,5.6996,5.7504,5.7933,5.8226,5.9065,5.9807,6.0373,6.0686,6.1114,6.1699,6.1699,6.1699,6.1699,6.1699,6.1699,6.1699,6.1699,6.1699,6.1699,6.1699,6.1699,6.1699,6.1699,6.1699,6.1699,6.1699,6.1699,6.1699,6.1699,6.1699,6.1699,6.1699,6.1699,6.1699,6.1699,6.1699,6.1699,6.1699,6.1699,6.1699,6.1699,6.1699,6.1699,6.1699,6.1699,6.1699,6.1699,6.1699,6.1699,6.1699,6.1699,6.1699,6.1699,6.1699,6.1699,6.1699,6.1699,6.1699,6.1699,6.1699,6.1699,6.1699,6.1699,6.1699,6.1699,6.248,6.3125,6.3418,6.4239,6.4837,6.5052,6.5624,6.5892,6.5814,6.635,6.6598,6.6549,6.6526,6.6521,6.6508,6.6508,6.6508,6.6505,6.6422,6.6446,5.6074,5.6574,5.7074,5.7382,5.7459,5.7459,5.7459,5.769,5.7651,5.6799,5.7305,5.7536,5.6382,5.6151,5.6055,0.0,0.0,0.0,0.0,5.6087,5.6294,5.6472,5.6555,5.6605,5.6605,5.6605,5.6605,5.6605,5.7074,5.7367,5.7367,5.8187,5.9046,5.9905,6.0237,6.0822,6.1699,6.1699,6.1699,6.1699,6.1699,6.1699,6.1699,6.1699,6.1699,6.1699,6.1699,6.1699,6.1699,6.1699,6.1699,6.1699,6.1699,6.1699,6.1699,6.1699,6.1699,6.1699,6.1699,6.1699,6.1699,6.1699,6.1699,6.1699,6.1699,6.1699,6.1758,6.207,6.1934,6.1777,6.207,6.1934,6.1699,6.1699,6.1699,6.1699,6.1699,6.1699,6.1699,6.1699,6.1699,6.1699,6.1699,6.1699,6.1699,6.1699,6.1699,6.1699,6.1699,6.1699,6.1699,6.1699,6.2207,6.2657,6.2969,6.381,6.4395,6.4648,6.5174,6.5556,6.5748,6.6282,6.6974,6.7829,6.6955,6.6955,6.7849,6.6936,6.6508,6.6508,6.6458,6.6462]}]]